[[{"header":{"parameterUnit":"m.s-1","parameterCategory":1,"la1":30.6,"la2":28.766,"lo1":-90.7593,"lo2":-88.6598,"dy":0.0162,"dx":0.0183,"nx":116,"ny":114,"refTime":"2024-06-13T18:00:00:Z","depth":0,"parameterNumber":2,"parameterNumberName":"U-component_of_WINDS"},"data":[0.0,0.0,0.0,0.0,0.0,0.0,0.0,0.0,0.0,0.0,0.0,0.0,0.0,0.0,0.0,0.0,0.0,0.0,0.0,0.0,0.0,0.0,0.0,0.0,0.0,0.0,0.0,0.0,0.0,0.0,0.0,0.0,0.0,0.0,0.0,0.0,0.0,0.0,0.0,0.0,0.0,0.0,0.0,0.0,0.0,0.0,0.0,0.0,0.0,0.0,0.0,0.0,0.0,0.0,0.0,0.0,0.0,0.0,0.0,0.0,0.0,0.0,0.0,0.0,0.0,0.0,0.0,0.0,0.0,0.0,0.0,0.0,0.0,0.0,0.0,0.0,0.0,0.0,0.0,0.0,0.0,0.0,0.0,0.0,0.0,0.0,0.0,0.0,0.0,0.0,0.0,0.0,0.0,0.0,0.0,0.0,0.0,0.0,0.0,0.0,0.0,0.0,0.0,0.0,0.0,0.0,0.0,0.0,0.0,0.0,0.0,0.0,0.0,0.0,0.0,0.0,0.0,0.0,0.0,0.0,0.0,0.0,0.0,0.0,0.0,0.0,0.0,0.0,0.0,0.0,0.0,0.0,0.0,0.0,0.0,0.0,0.0,0.0,0.0,0.0,0.0,0.0,0.0,0.0,0.0,0.0,0.0,0.0,0.0,0.0,0.0,0.0,0.0,0.0,0.0,0.0,0.0,0.0,0.0,0.0,0.0,0.0,0.0,0.0,0.0,0.0,0.0,0.0,0.0,0.0,0.0,0.0,0.0,0.0,0.0,0.0,0.0,0.0,0.0,0.0,0.0,0.0,0.0,0.0,0.0,0.0,0.0,0.0,0.0,0.0,0.0,0.0,0.0,0.0,0.0,0.0,0.0,0.0,0.0,0.0,0.0,0.0,0.0,0.0,0.0,0.0,0.0,0.0,0.0,0.0,0.0,0.0,0.0,0.0,0.0,0.0,0.0,0.0,0.0,0.0,0.0,0.0,0.0,0.0,0.0,0.0,0.0,0.0,0.0,0.0,0.0,0.0,0.0,0.0,0.0,0.0,0.0,0.0,0.0,0.0,0.0,0.0,0.0,0.0,0.0,0.0,0.0,0.0,0.0,0.0,0.0,0.0,0.0,0.0,0.0,0.0,0.0,0.0,0.0,0.0,0.0,0.0,0.0,0.0,0.0,0.0,0.0,0.0,0.0,0.0,0.0,0.0,0.0,0.0,0.0,0.0,0.0,0.0,0.0,0.0,0.0,0.0,0.0,0.0,0.0,0.0,0.0,0.0,0.0,0.0,0.0,0.0,0.0,0.0,0.0,0.0,0.0,0.0,0.0,0.0,0.0,0.0,0.0,0.0,0.0,0.0,0.0,0.0,0.0,0.0,0.0,0.0,0.0,0.0,0.0,0.0,0.0,0.0,0.0,0.0,0.0,0.0,0.0,0.0,0.0,0.0,0.0,0.0,0.0,0.0,0.0,0.0,0.0,0.0,0.0,0.0,0.0,0.0,0.0,0.0,0.0,0.0,0.0,0.0,0.0,0.0,0.0,0.0,0.0,0.0,0.0,0.0,0.0,0.0,0.0,0.0,0.0,0.0,0.0,0.0,0.0,0.0,0.0,0.0,0.0,0.0,0.0,0.0,0.0,0.0,0.0,0.0,0.0,0.0,0.0,0.0,0.0,0.0,0.0,0.0,0.0,0.0,0.0,0.0,0.0,0.0,0.0,0.0,0.0,0.0,0.0,0.0,0.0,0.0,0.0,0.0,0.0,0.0,0.0,0.0,0.0,0.0,0.0,0.0,0.0,0.0,0.0,0.0,0.0,0.0,0.0,0.0,0.0,0.0,0.0,0.0,0.0,0.0,0.0,0.0,0.0,0.0,0.0,0.0,0.0,0.0,0.0,0.0,0.0,0.0,0.0,0.0,0.0,0.0,0.0,0.0,0.0,0.0,0.0,0.0,0.0,0.0,0.0,0.0,0.0,0.0,0.0,0.0,0.0,0.0,0.0,0.0,0.0,0.0,0.0,0.0,0.0,0.0,0.0,0.0,0.0,0.0,0.0,0.0,0.0,0.0,0.0,0.0,0.0,0.0,0.0,0.0,0.0,0.0,0.0,0.0,0.0,0.0,0.0,0.0,0.0,0.0,0.0,0.0,0.0,0.0,0.0,0.0,0.0,0.0,0.0,0.0,0.0,0.0,0.0,0.0,0.0,0.0,0.0,0.0,0.0,0.0,0.0,0.0,0.0,0.0,0.0,0.0,0.0,0.0,0.0,0.0,0.0,0.0,0.0,0.0,0.0,0.0,0.0,0.0,0.0,0.0,0.0,0.0,0.0,0.0,0.0,0.0,0.0,0.0,0.0,0.0,0.0,0.0,0.0,0.0,0.0,0.0,0.0,0.0,0.0,0.0,0.0,0.0,0.0,0.0,0.0,0.0,0.0,0.0,0.0,0.0,0.0,0.0,0.0,0.0,0.0,0.0,0.0,0.0,0.0,0.0,0.0,0.0,0.0,0.0,0.0,0.0,0.0,0.0,0.0,0.0,0.0,0.0,0.0,0.0,0.0,0.0,0.0,0.0,0.0,0.0,0.0,0.0,0.0,0.0,0.0,0.0,0.0,0.0,0.0,0.0,0.0,0.0,0.0,0.0,0.0,0.0,0.0,0.0,0.0,0.0,0.0,0.0,0.0,0.0,0.0,0.0,0.0,0.0,0.0,0.0,0.0,0.0,0.0,0.0,0.0,0.0,0.0,0.0,0.0,0.0,0.0,0.0,0.0,0.0,0.0,0.0,0.0,0.0,0.0,0.0,0.0,0.0,0.0,0.0,0.0,0.0,0.0,0.0,0.0,0.0,0.0,0.0,0.0,0.0,0.0,0.0,0.0,0.0,0.0,0.0,0.0,0.0,0.0,0.0,0.0,0.0,0.0,0.0,0.0,0.0,0.0,0.0,0.0,0.0,0.0,0.0,0.0,0.0,0.0,0.0,0.0,0.0,0.0,0.0,0.0,0.0,0.0,0.0,0.0,0.0,0.0,0.0,0.0,0.0,0.0,0.0,0.0,0.0,0.0,0.0,0.0,0.0,0.0,0.0,0.0,0.0,0.0,0.0,0.0,0.0,0.0,0.0,0.0,0.0,0.0,0.0,0.0,0.0,0.0,0.0,0.0,0.0,0.0,0.0,0.0,0.0,0.0,0.0,0.0,0.0,0.0,0.0,0.0,0.0,0.0,0.0,0.0,0.0,0.0,0.0,0.0,0.0,0.0,0.0,0.0,0.0,0.0,0.0,0.0,0.0,0.0,0.0,0.0,0.0,0.0,0.0,0.0,0.0,0.0,0.0,0.0,0.0,0.0,0.0,0.0,0.0,0.0,0.0,0.0,0.0,0.0,0.0,0.0,0.0,0.0,0.0,0.0,0.0,0.0,0.0,0.0,0.0,0.0,0.0,0.0,0.0,0.0,0.0,0.0,0.0,0.0,0.0,0.0,0.0,0.0,0.0,0.0,0.0,0.0,0.0,0.0,0.0,0.0,0.0,0.0,0.0,0.0,0.0,0.0,0.0,0.0,0.0,0.0,0.0,0.0,0.0,0.0,0.0,0.0,0.0,0.0,0.0,0.0,0.0,0.0,0.0,0.0,0.0,0.0,0.0,0.0,0.0,0.0,0.0,0.0,0.0,0.0,0.0,0.0,0.0,0.0,0.0,0.0,0.0,0.0,0.0,0.0,0.0,0.0,0.0,0.0,0.0,0.0,0.0,0.0,0.0,0.0,0.0,0.0,0.0,0.0,0.0,0.0,0.0,0.0,0.0,0.0,0.0,0.0,0.0,0.0,0.0,0.0,0.0,0.0,0.0,0.0,0.0,0.0,0.0,0.0,0.0,0.0,0.0,0.0,0.0,0.0,0.0,0.0,0.0,0.0,0.0,0.0,0.0,0.0,0.0,0.0,0.0,0.0,0.0,0.0,0.0,0.0,0.0,0.0,0.0,0.0,0.0,0.0,0.0,0.0,0.0,0.0,0.0,0.0,0.0,0.0,0.0,0.0,0.0,0.0,0.0,0.0,0.0,0.0,0.0,0.0,0.0,0.0,0.0,0.0,0.0,0.0,0.0,0.0,0.0,0.0,0.0,0.0,0.0,0.0,0.0,0.0,0.0,0.0,0.0,0.0,0.0,0.0,0.0,0.0,0.0,0.0,0.0,0.0,0.0,0.0,0.0,0.0,0.0,0.0,0.0,0.0,0.0,0.0,0.0,0.0,0.0,0.0,0.0,0.0,0.0,0.0,0.0,0.0,0.0,0.0,0.0,0.0,0.0,0.0,0.0,0.0,0.0,0.0,0.0,0.0,0.0,0.0,0.0,0.0,0.0,0.0,0.0,0.0,0.0,0.0,0.0,0.0,0.0,0.0,0.0,0.0,0.0,0.0,0.0,0.0,0.0,0.0,0.0,0.0,0.0,0.0,0.0,0.0,0.0,0.0,0.0,0.0,0.0,0.0,0.0,0.0,0.0,0.0,0.0,0.0,0.0,0.0,0.0,0.0,0.0,0.0,0.0,0.0,0.0,0.0,0.0,0.0,0.0,0.0,0.0,0.0,0.0,0.0,0.0,0.0,0.0,0.0,0.0,0.0,0.0,0.0,0.0,0.0,0.0,0.0,0.0,0.0,0.0,0.0,0.0,0.0,0.0,0.0,0.0,0.0,0.0,0.0,0.0,0.0,0.0,0.0,0.0,0.0,0.0,0.0,0.0,0.0,0.0,0.0,0.0,0.0,0.0,0.0,0.0,0.0,0.0,0.0,0.0,0.0,0.0,0.0,0.0,0.0,0.0,0.0,0.0,0.0,0.0,0.0,0.0,0.0,0.0,0.0,0.0,0.0,0.0,0.0,0.0,0.0,0.0,0.0,0.0,0.0,0.0,0.0,0.0,0.0,0.0,0.0,0.0,0.0,0.0,0.0,0.0,0.0,0.0,0.0,0.0,0.0,0.0,0.0,0.0,0.0,0.0,0.0,0.0,0.0,0.0,0.0,0.0,0.0,0.0,0.0,0.0,0.0,0.0,0.0,0.0,0.0,0.0,0.0,0.0,0.0,0.0,0.0,0.0,0.0,0.0,0.0,0.0,0.0,0.0,0.0,0.0,0.0,0.0,0.0,0.0,0.0,0.0,0.0,0.0,0.0,0.0,0.0,0.0,0.0,0.0,0.0,0.0,0.0,0.0,0.0,0.0,0.0,0.0,0.0,0.0,0.0,0.0,0.0,0.0,0.0,0.0,0.0,0.0,0.0,0.0,0.0,0.0,0.0,0.0,0.0,0.0,0.0,0.0,0.0,0.0,0.0,0.0,0.0,0.0,0.0,0.0,0.0,0.0,0.0,0.0,0.0,0.0,0.0,0.0,0.0,0.0,0.0,0.0,0.0,0.0,0.0,0.0,0.0,0.0,0.0,0.0,0.0,0.0,0.0,0.0,0.0,0.0,0.0,0.0,0.0,0.0,0.0,0.0,0.0,0.0,0.0,0.0,0.0,0.0,0.0,0.0,0.0,0.0,0.0,0.0,0.0,0.0,0.0,0.0,0.0,0.0,0.0,0.0,0.0,0.0,0.0,0.0,0.0,0.0,0.0,0.0,0.0,0.0,0.0,0.0,0.0,0.0,0.0,0.0,0.0,0.0,0.0,0.0,0.0,0.0,0.0,0.0,0.0,0.0,0.0,0.0,0.0,0.0,0.0,0.0,0.0,0.0,0.0,0.0,0.0,0.0,0.0,0.0,0.0,0.0,0.0,0.0,0.0,0.0,0.0,0.0,0.0,0.0,0.0,0.0,0.0,0.0,0.0,0.0,0.0,0.0,0.0,0.0,0.0,0.0,0.0,0.0,0.0,0.0,0.0,0.0,0.0,0.0,0.0,0.0,0.0,0.0,0.0,0.0,0.0,0.0,0.0,0.0,0.0,0.0,0.0,0.0,0.0,0.0,0.0,0.0,0.0,0.0,0.0,0.0,0.0,0.0,0.0,0.0,0.0,0.0,0.0,0.0,0.0,0.0,0.0,0.0,0.0,0.0,0.0,0.0,0.0,0.0,0.0,0.0,0.0,0.0,0.0,0.0,0.0,0.0,0.0,0.0,-4.3944,0.0,0.0,0.0,0.0,0.0,0.0,0.0,0.0,0.0,0.0,0.0,0.0,0.0,0.0,0.0,0.0,0.0,0.0,0.0,0.0,0.0,0.0,0.0,0.0,-3.5857,-3.6766,-3.7796,-3.7501,-3.7424,-3.7872,0.0,0.0,0.0,0.0,0.0,-3.7659,-3.7339,-3.7165,-3.7165,-3.7513,-3.7465,-3.7016,-3.7391,-3.752,-3.7404,0.0,0.0,0.0,0.0,0.0,0.0,0.0,0.0,0.0,0.0,0.0,0.0,0.0,0.0,0.0,0.0,0.0,0.0,0.0,0.0,0.0,0.0,0.0,0.0,0.0,0.0,0.0,0.0,0.0,0.0,0.0,0.0,0.0,0.0,0.0,0.0,0.0,0.0,0.0,0.0,0.0,0.0,0.0,0.0,0.0,0.0,0.0,0.0,0.0,0.0,0.0,0.0,0.0,0.0,0.0,0.0,0.0,0.0,0.0,0.0,0.0,0.0,0.0,0.0,0.0,0.0,0.0,0.0,0.0,0.0,0.0,-4.506,0.0,0.0,0.0,0.0,0.0,0.0,0.0,0.0,0.0,0.0,0.0,0.0,0.0,0.0,0.0,0.0,0.0,0.0,0.0,0.0,0.0,-3.2,-3.4464,-3.5244,-3.6065,-3.7376,-3.7299,-3.7222,-3.7376,-3.7337,0.0,0.0,0.0,-3.6894,-3.6894,-3.6894,-3.6894,-3.6894,-3.6822,-3.6867,-3.6973,-3.6888,-3.7404,-3.844,-3.8085,0.0,0.0,0.0,0.0,0.0,0.0,0.0,0.0,0.0,0.0,0.0,0.0,0.0,0.0,0.0,0.0,0.0,0.0,0.0,0.0,0.0,0.0,0.0,0.0,0.0,0.0,0.0,0.0,0.0,0.0,0.0,0.0,0.0,0.0,0.0,0.0,0.0,0.0,0.0,0.0,0.0,0.0,0.0,0.0,0.0,0.0,0.0,0.0,0.0,0.0,0.0,0.0,0.0,0.0,0.0,0.0,0.0,0.0,0.0,0.0,0.0,0.0,0.0,-4.7496,-4.7564,-4.7564,-4.7428,-4.7361,-4.7361,-4.7225,-4.6684,-4.5872,0.0,0.0,0.0,0.0,0.0,0.0,0.0,0.0,0.0,0.0,0.0,0.0,0.0,0.0,0.0,0.0,0.0,0.0,0.0,0.0,-3.1424,-3.3172,-3.4294,-3.5495,-3.6961,-3.6071,-3.575,-3.6413,-3.6136,0.0,0.0,-3.6543,-3.6894,-3.6894,-3.6894,-3.6894,-3.6894,-3.6671,-3.6946,-3.7658,-3.7442,-3.7759,-3.8488,-3.688,-3.5751,-3.5082,0.0,0.0,0.0,0.0,0.0,0.0,0.0,0.0,0.0,0.0,0.0,0.0,0.0,0.0,0.0,0.0,0.0,0.0,0.0,0.0,0.0,0.0,0.0,0.0,0.0,0.0,0.0,0.0,0.0,0.0,0.0,0.0,0.0,0.0,0.0,0.0,0.0,0.0,0.0,0.0,0.0,-4.2696,-4.3622,0.0,0.0,0.0,0.0,0.0,0.0,0.0,0.0,0.0,0.0,0.0,0.0,0.0,-4.939,-4.8849,-4.939,-4.9661,-4.9661,-5.0304,-5.0642,-5.0608,-4.9965,-4.9661,-4.9627,-4.8984,0.0,-4.6616,-4.5974,0.0,0.0,0.0,0.0,0.0,0.0,0.0,0.0,0.0,0.0,0.0,0.0,0.0,0.0,0.0,0.0,0.0,0.0,0.0,0.0,0.0,-3.4597,-3.5814,-3.7059,-3.6975,-3.6866,-3.6834,-3.6713,-3.6225,-3.5386,-3.5683,-3.5736,-3.5494,-3.5818,-3.6169,-3.6425,-3.669,-3.6983,-3.7369,-3.758,-3.766,-3.7677,-3.6853,-3.6293,-3.5899,-3.5031,0.0,0.0,0.0,0.0,0.0,0.0,0.0,0.0,0.0,0.0,0.0,0.0,0.0,0.0,0.0,0.0,0.0,0.0,0.0,0.0,0.0,0.0,0.0,0.0,0.0,0.0,0.0,0.0,0.0,0.0,0.0,0.0,0.0,0.0,0.0,0.0,0.0,0.0,0.0,-4.2109,-4.3417,-4.4106,-4.4772,-4.5193,0.0,0.0,0.0,0.0,0.0,0.0,0.0,0.0,0.0,-4.9557,-5.0316,-5.0777,-5.0845,-5.0777,-5.071,-5.0744,-5.1048,-5.1185,-5.1217,-5.0879,-5.0473,-5.0067,-4.9763,-4.9018,-4.797,-4.7259,-4.6684,-4.621,0.0,0.0,0.0,0.0,-4.297,-4.2523,0.0,0.0,0.0,0.0,0.0,0.0,0.0,0.0,0.0,0.0,0.0,0.0,-3.4251,-3.5401,-3.6521,-3.7618,-3.7868,-3.7799,-3.7316,-3.7029,-3.6402,-3.529,-3.5168,-3.4962,-3.4564,-3.5041,-3.5495,-3.5887,-3.6645,-3.7011,-3.7011,-3.7612,-3.7665,-3.722,-3.7063,-3.6791,-3.6368,-3.5333,-3.4176,-3.2927,0.0,0.0,0.0,0.0,0.0,0.0,0.0,0.0,0.0,0.0,0.0,0.0,0.0,0.0,0.0,0.0,0.0,0.0,0.0,0.0,0.0,0.0,0.0,0.0,0.0,0.0,0.0,0.0,0.0,0.0,0.0,0.0,0.0,0.0,0.0,0.0,0.0,-4.3285,-4.4341,-4.4898,-4.5614,-4.5998,0.0,0.0,0.0,0.0,0.0,0.0,-4.7909,-4.9064,-5.0037,-5.0761,-5.1355,-5.1966,-5.2539,-5.2001,-5.1764,-5.1792,-5.1792,-5.1792,-5.1792,-5.1589,-5.1183,-5.0642,-5.0236,-4.9796,-4.9221,-4.8277,-4.7597,-4.6955,-4.5698,-4.5156,-4.506,-4.4485,-4.4147,-4.4051,0.0,0.0,0.0,0.0,0.0,0.0,0.0,0.0,0.0,0.0,0.0,-3.3576,-3.5751,-3.6547,-3.7445,-3.8721,-3.7893,-3.7316,0.0,-3.6333,-3.5737,-3.5669,-3.5331,-3.5086,-3.5086,-3.521,-3.5312,-3.5338,-3.6462,-3.7011,-3.7011,-3.7612,-3.7874,-3.7821,-3.7246,-3.6402,-3.5335,-3.4706,-3.3762,-3.266,-3.2018,0.0,0.0,0.0,0.0,0.0,0.0,0.0,0.0,0.0,0.0,0.0,0.0,0.0,0.0,0.0,0.0,0.0,0.0,0.0,0.0,0.0,0.0,0.0,0.0,0.0,0.0,0.0,0.0,0.0,0.0,0.0,0.0,0.0,0.0,0.0,0.0,0.0,0.0,-4.5573,-4.6744,0.0,0.0,0.0,0.0,-4.8381,-4.7967,-4.8783,-5.1591,-5.1797,-5.2159,-5.2909,-5.2981,-5.3079,-5.3235,-5.3202,-5.3263,-5.3382,-5.3382,-5.3382,-5.3382,-5.2604,-5.2232,-5.2097,-5.071,-5.0067,-4.9932,-4.8511,-4.7872,-4.777,-4.6989,-4.6684,-4.6684,-4.6616,-4.6177,-4.5602,0.0,0.0,0.0,0.0,0.0,-2.6383,-2.8112,-2.9071,-3.0096,-3.1378,-3.2778,-3.4304,-3.5911,-3.6978,-3.8074,-3.938,-3.913,-3.874,-3.8348,-3.7572,-3.697,-3.6755,-3.6237,-3.6008,-3.6178,-3.6247,-3.6507,-3.6985,-3.7377,-3.7586,-3.7586,-3.7795,-3.79,-3.79,-3.7691,-3.7142,-3.6305,-3.4972,-3.4162,-3.3666,-3.2319,-3.1562,0.0,0.0,0.0,0.0,0.0,0.0,0.0,0.0,0.0,0.0,0.0,0.0,0.0,0.0,0.0,0.0,0.0,0.0,0.0,0.0,0.0,0.0,0.0,0.0,0.0,0.0,0.0,0.0,0.0,0.0,0.0,0.0,0.0,0.0,0.0,0.0,0.0,-4.7434,-4.8758,0.0,-4.8323,-4.8244,-4.8542,-4.9287,-4.9116,-4.9646,-5.109,-5.2109,-5.2786,-5.3009,-5.3568,-5.3837,-5.3889,-5.2976,-5.2799,-5.3361,-5.2929,-5.2972,-5.3484,-5.3213,-5.2807,-5.2232,-5.1251,-5.0541,-4.9999,-4.9018,-4.8612,-4.8545,-4.78,-4.753,-4.7462,-4.6989,-4.6616,-4.6413,0.0,0.0,0.0,0.0,-2.5974,-2.667,-2.8978,-2.9898,-3.0809,-3.2194,-3.3633,-3.5096,-3.6529,-3.7597,-3.8721,-3.9985,-3.9704,-3.9352,-3.893,-3.8074,-3.7478,-3.7226,-3.6872,-3.6702,-3.671,-3.6983,-3.7334,-3.7813,-3.7887,-3.79,-3.79,-3.79,-3.79,-3.79,-3.79,-3.7691,-3.722,-3.5861,-3.5155,-3.4868,-3.3535,-3.2842,-3.2554,0.0,0.0,0.0,0.0,0.0,0.0,0.0,0.0,0.0,0.0,0.0,0.0,0.0,0.0,0.0,0.0,0.0,0.0,0.0,0.0,0.0,0.0,0.0,0.0,0.0,0.0,0.0,0.0,0.0,0.0,0.0,0.0,0.0,0.0,0.0,-4.7711,-4.885,-4.9989,-5.042,-4.9743,-4.9897,-5.0112,-5.0359,-5.0359,-5.0667,-5.1344,-5.2355,-5.2918,-5.2918,-5.3397,-5.372,-5.3751,-5.2605,-5.2327,-5.2893,-5.2207,-5.2167,-5.2696,-5.2696,-5.2533,-5.227,-5.1497,-5.0923,-5.0405,-4.9695,-4.9221,-4.8951,-4.8477,-4.8274,-4.8206,-4.7733,-4.7394,-4.7124,0.0,0.0,0.0,-2.6427,-2.5835,-2.6167,-2.9523,-2.9592,-3.0225,-3.2947,-3.443,-3.5892,-3.7681,-3.844,-3.938,-4.0547,-3.9577,-3.8874,-3.8874,-3.7721,-3.7007,-3.7007,-3.7226,-3.7153,-3.6701,-3.737,-3.774,-3.7767,-3.7885,-3.79,-3.79,-3.79,-3.79,-3.79,-3.79,-3.79,-3.7874,-3.7273,-3.6698,-3.6123,-3.5547,-3.4972,-3.4371,0.0,0.0,0.0,0.0,0.0,0.0,0.0,0.0,0.0,0.0,0.0,0.0,0.0,0.0,0.0,0.0,0.0,0.0,0.0,0.0,0.0,0.0,0.0,0.0,0.0,0.0,0.0,0.0,0.0,0.0,0.0,0.0,0.0,-4.6573,-4.7835,-4.8943,-4.9682,-5.0389,-5.0543,-4.9866,-5.0389,-5.1036,-5.1682,-5.1744,-5.2021,-5.2667,-5.2698,-5.2698,-5.2698,-5.2698,-5.2759,-5.2902,-5.225,-5.1972,-5.2062,-5.1388,-5.1102,-5.1107,-5.1107,-5.1549,-5.2238,-5.1409,-5.1093,-5.1085,-5.0373,-4.963,-4.8987,-4.8984,-4.9018,-4.9018,-4.9018,-4.8545,-4.7804,0.0,0.0,-2.4581,-2.6457,-2.6337,-2.7065,-3.019,-3.0364,-3.1063,-3.3627,-3.4674,-3.5723,-3.7091,-3.7793,-3.8496,-3.9311,-3.8636,-3.8159,-3.8159,-3.7428,-3.7175,-3.7625,-3.819,-3.8435,-3.8418,-3.862,-3.8744,-3.8871,-3.8567,-3.8421,-3.8376,-3.8083,-3.79,-3.79,-3.79,-3.79,-3.79,-3.7717,-3.756,-3.7325,-3.6305,-3.5547,-3.4972,0.0,0.0,0.0,0.0,0.0,0.0,0.0,0.0,0.0,0.0,0.0,0.0,0.0,0.0,0.0,0.0,0.0,0.0,0.0,0.0,0.0,0.0,0.0,0.0,0.0,0.0,0.0,0.0,0.0,0.0,0.0,0.0,-4.7835,-4.8019,-4.9251,-5.0574,-5.1744,-5.2483,-5.2821,-5.2637,-5.279,-5.276,-5.2452,-5.2452,-5.2513,-5.2698,-5.2698,-5.2698,-5.2698,-5.2698,-5.2695,-5.2745,-5.2095,-5.182,-5.1963,-5.1264,-5.1012,-5.1107,-5.1107,-5.122,-5.1373,-5.0587,-4.9945,-4.9506,-4.9293,-4.8827,-4.8257,-4.8798,-4.9018,-4.9018,-4.9018,-4.8883,-4.8612,0.0,-2.4722,-2.4532,-2.6457,-2.6658,-2.7414,-2.9942,-3.0438,-3.1382,-3.388,-3.4759,-3.5752,-3.7203,-3.7681,-3.8159,-3.8846,-3.8271,-3.7906,-3.7906,-3.7569,-3.7512,-3.7878,-3.8777,-3.9298,-3.9381,-3.9446,-3.9507,-3.9601,-3.9141,-3.8917,-3.8917,-3.8602,-3.8376,-3.822,-3.822,-3.8083,-3.79,-3.79,-3.79,-3.7848,-3.7142,-3.6515,-3.594,-3.5338,-3.4763,-3.4293,-3.4162,-3.3979,-3.377,-3.3666,0.0,0.0,0.0,0.0,0.0,0.0,0.0,0.0,0.0,0.0,0.0,0.0,0.0,0.0,0.0,0.0,0.0,0.0,0.0,0.0,0.0,0.0,0.0,0.0,-4.8327,-4.9589,-4.9866,-5.0605,-5.1498,-5.2575,-5.3067,-5.3283,-5.3283,-5.3283,-5.3252,-5.316,-5.3129,-5.3252,-5.3529,-5.3283,-5.3129,-5.3129,-5.2852,-5.2698,-5.2698,-5.2052,-5.1605,-5.1403,-5.0715,-5.0281,-5.0033,-5.0033,-5.0267,0.0,-5.0089,-4.9507,-4.8904,-4.887,-4.8324,0.0,0.0,0.0,0.0,0.0,-4.9018,-4.8951,0.0,-2.4794,-2.4549,-2.647,-2.6807,-2.7453,-2.9307,-3.0091,-3.1354,-3.3768,-3.4731,-3.5808,-3.74,-3.7709,-3.799,-3.8536,-3.8102,-3.7821,0.0,0.0,-3.7962,-3.8102,-3.9198,-3.9816,-3.9873,-4.0022,-4.0083,-4.0083,-3.9601,-3.938,-3.938,-3.9292,-3.9096,-3.8692,-3.8692,-3.8421,-3.7992,-3.7992,-3.7946,-3.79,-3.79,-3.7534,-3.6959,-3.641,-3.5861,-3.5443,-3.594,-3.5783,-3.5469,-3.594,0.0,0.0,0.0,0.0,0.0,0.0,0.0,0.0,0.0,0.0,0.0,0.0,0.0,0.0,0.0,0.0,0.0,0.0,0.0,0.0,0.0,0.0,0.0,0.0,-4.9959,-5.1036,-5.1713,-5.1805,-5.2052,-5.2637,-5.2698,-5.2698,-5.2698,-5.2698,-5.3006,-5.3683,-5.3714,-5.3976,-5.4652,0.0,0.0,0.0,0.0,-5.2698,-5.2698,-5.2113,-5.1436,-5.0697,-5.0082,-4.9374,-4.8604,-4.8604,-4.9015,-4.9749,-4.9749,-4.9381,-4.8776,-4.8752,-4.7984,-4.6965,-4.8322,-4.8861,-4.8892,-4.8954,-4.9018,-4.9018,0.0,-2.5347,-2.5741,-2.6638,-2.6807,-2.7453,-2.9307,-3.0091,-3.1213,-3.3206,-3.4486,-3.533,-3.5667,-3.6595,-3.7007,-3.668,-3.6989,-3.7372,0.0,0.0,-3.8355,-3.9367,-3.9648,-4.0013,-4.0519,-4.0546,-4.0559,-4.0559,-4.0083,-3.9865,-3.9865,-3.9469,-3.9247,-3.9158,-3.9158,-3.8917,-3.8466,-3.8466,-3.8266,-3.79,-3.79,-3.7534,-3.6985,-3.6881,-3.6462,-3.5966,-3.607,-3.6044,-3.5966,-3.607,-3.5966,-3.5678,-3.5129,0.0,0.0,0.0,0.0,0.0,0.0,0.0,0.0,0.0,0.0,0.0,0.0,0.0,0.0,0.0,0.0,0.0,0.0,0.0,0.0,-5.0008,-5.0974,-5.1744,-5.2421,-5.2513,-5.2575,-5.2698,-5.2698,-5.2698,-5.2698,-5.2698,-5.3006,-5.3683,-5.3714,-5.3976,-5.4652,-5.4037,-5.3714,-5.3714,-5.3067,-5.2698,-5.2698,-5.2575,-5.1898,-5.0697,0.0,0.0,-4.8604,-4.8604,-4.8687,-4.8852,-4.8852,-4.8469,-4.7862,-4.7927,-4.7481,-4.6896,-4.777,-4.8129,-4.8161,-4.8798,-4.9018,-4.9018,-2.5063,-2.526,-2.5626,-2.6245,-2.7144,-2.7959,-2.8605,-3.001,-3.1443,-3.2707,-3.3663,-3.4514,-3.5133,-3.5752,-3.5977,-3.5667,-3.6202,0.0,0.0,-3.8187,-3.8805,-3.9732,-4.0069,-4.0378,-4.0688,-4.0688,-4.0688,-4.0688,-4.0473,-4.0343,-4.0343,-4.0126,-3.9865,-3.9645,-3.9645,-3.9247,-3.8602,-3.8602,-3.833,-3.79,-3.79,-3.7717,-3.7456,-3.7456,-3.709,-3.6541,-3.6541,-3.6541,-3.6541,-3.6541,-3.6358,-3.6044,-3.5783,-3.5521,-3.5234,0.0,0.0,0.0,0.0,0.0,0.0,0.0,0.0,0.0,0.0,0.0,0.0,0.0,0.0,-4.6477,0.0,0.0,-5.0629,-5.2407,-5.3006,-5.3221,-5.3221,-5.3221,-5.3098,-5.276,-5.2698,-5.2852,-5.3191,-5.3221,-5.3622,-5.4637,-5.4699,-5.5007,-5.5715,-5.5068,-5.4545,-5.4191,-5.356,-5.3067,-5.2698,-5.2698,-5.2206,-5.119,-5.0851,-5.0143,-4.9127,-4.8789,-4.8604,-4.8604,-4.8604,-4.8235,-4.7567,-4.6913,-4.6272,-4.5769,-4.6518,-4.7035,-4.7372,-4.777,-4.8129,-4.845,-2.5486,-2.526,-2.5372,-2.5964,-2.7425,-2.838,-2.8044,-2.9869,-3.1527,-3.2145,-3.2876,-3.3691,-3.4739,-3.5048,-3.5245,0.0,0.0,0.0,0.0,-3.8621,-3.924,-3.9929,-4.0435,-4.0688,-4.0688,-4.0688,-4.0688,-4.0688,-4.0688,-4.0688,-4.0688,-4.0688,-4.0473,-4.0126,-4.0126,-3.9645,-3.8872,-3.8782,-3.8466,-3.8037,-3.7946,-3.79,-3.79,-3.7769,-3.7429,-3.6985,-3.6881,-3.6828,-3.6828,-3.6828,-3.6515,-3.6096,-3.5992,-3.573,-3.5443,-3.5338,-3.5678,0.0,0.0,0.0,0.0,0.0,0.0,0.0,0.0,0.0,-4.3328,-4.6059,-4.7388,-4.8834,-5.1372,-5.2164,-5.3067,-5.4822,-5.513,-5.4853,-5.4022,-5.3883,-5.3622,-5.2821,-5.2698,-5.2975,-5.3607,-5.3714,-5.4268,-5.5592,-5.5684,-5.5992,-5.6779,-5.6084,-5.5468,-5.4898,-5.4145,-5.3468,-5.2914,-5.279,-5.2359,-5.1682,-5.1005,-5.0328,-4.9651,-4.8943,-4.8604,-4.8604,-4.8604,-4.8173,-4.7311,-4.6234,-4.5311,-4.4648,-4.5253,-4.5841,-4.641,-4.6692,-4.7171,-4.7671,0.0,-2.616,-2.5992,-2.661,-2.7369,-2.8072,-2.8521,-2.9757,-3.0853,-3.1499,-3.2595,-3.3347,-3.3522,-3.4542,-3.5414,-3.5949,0.0,0.0,-3.8677,-3.8874,-3.9436,-4.0547,-4.0659,-4.0688,-4.0688,-4.0688,-4.0688,-4.0688,-4.0688,-4.0688,-4.0688,-4.0688,-4.0645,-4.0602,-4.0602,-4.0343,-3.9821,-3.938,-3.8962,-3.8466,-3.8083,-3.79,-3.7848,-3.7299,-3.7063,-3.6933,-3.641,-3.6201,-3.6201,-3.6201,-3.6149,-3.6018,-3.5547,-3.5678,-3.5913,-3.5443,0.0,-3.6096,-3.6096,-3.6149,-3.6567,-3.8135,-3.8952,-4.0391,0.0,0.0,-4.6703,-4.9243,-5.0856,-5.2107,-5.3253,-5.4453,-5.553,-5.644,-5.6594,-5.6084,-5.4745,-5.456,-5.4145,-5.2852,-5.2698,-5.2975,-5.3607,-5.3714,-5.4268,-5.5592,-5.5684,-5.5992,-5.6779,-5.6084,-5.5653,-5.5592,-5.436,-5.3683,-5.3622,-5.3006,-5.2359,-5.1682,-5.1005,-5.0328,-4.9651,-4.8943,-4.8604,-4.8604,-4.8604,-4.7896,-4.6696,-4.6542,-4.5741,-4.461,-4.4685,-4.4761,-4.4993,-4.634,-4.6862,-4.6898,0.0,-2.6076,-2.6217,-2.72,-2.8183,-2.8914,-2.9195,-3.0291,-3.105,-3.0937,-3.1696,-3.2398,-3.2764,-3.3888,-3.5012,-3.6033,-3.6117,-3.6905,-3.879,-3.924,-3.9957,-4.1165,-4.1221,-4.1395,-4.1825,-4.1454,-4.1423,-4.1798,-4.1798,-4.1798,-4.1798,-4.1798,-4.1798,-4.1798,-4.1451,-4.1029,-4.0531,-3.9645,-3.9051,-3.8584,-3.8425,-3.7978,-3.7351,-3.7116,-3.6593,-3.5992,-3.573,-3.5835,0.0,0.0,-3.5626,-3.56,-3.5365,-3.5443,-3.5652,-3.573,-3.6175,0.0,-3.7429,-3.7874,-3.8397,-3.9442,-4.0421,-4.1697,-4.4007,-4.5725,-4.7425,-4.9399,-5.1348,-5.3039,-5.4083,-5.5407,-5.6594,0.0,-5.7734,-5.7469,-5.6115,-5.5561,-5.4791,-5.3468,-5.3314,-5.356,-5.4191,-5.4637,-5.5284,-5.6286,-5.633,-5.6502,-5.6779,-5.6532,-5.5961,-5.5161,-5.4607,-5.3883,-5.316,-5.2852,-5.2575,-5.2267,-5.1221,-5.0543,-5.0236,-4.9127,-4.8604,-4.8604,-4.8604,-4.7835,-4.6603,-4.6603,-4.5803,-4.461,-4.461,-4.461,-4.4685,-4.529,-4.5805,-4.6163,0.0,-2.5907,-2.6329,-2.7819,-2.8774,-2.9476,-2.9813,-3.0628,-3.119,-3.1017,-3.1302,-3.1864,-3.2792,-3.3683,-3.4694,-3.6005,-3.6117,-3.6821,-3.8536,-3.924,-4.0196,-4.1609,-4.1807,-4.2195,-4.2878,-4.2486,-4.2344,-4.2589,-4.2589,-4.2589,-4.2589,-4.2589,-4.2589,-4.2589,-4.2129,-4.1757,-4.1352,-4.0229,-3.9595,-3.9249,-3.8992,-3.8201,-3.7246,-3.7063,-3.6305,-3.5286,-3.5103,-3.5312,0.0,0.0,-3.5051,-3.5051,-3.5051,-3.5155,-3.5417,-3.594,-3.6645,-3.7456,-3.8449,-3.9024,-3.952,-4.0226,-4.1448,-4.2746,-4.4031,-4.6076,-4.8178,-4.9693,-5.1706,-5.3574,-5.4759,-5.5961,-5.7087,-5.7949,-5.8454,-5.83,-5.6994,-5.6146,-5.5284,-5.4145,-5.3991,-5.4268,-5.4914,-5.5253,-5.5807,-5.6748,-5.6625,-5.6594,-5.681,-5.681,-5.6207,-5.5037,-5.4775,-5.4129,-5.3006,-5.279,-5.2698,-5.2698,-5.1344,-5.0697,-5.0636,-4.9251,-4.8604,-4.8604,-4.8604,-4.7835,-4.6603,-4.6603,-4.5803,-4.461,-4.461,-4.461,-4.461,-4.461,-4.4918,-4.54,0.0,0.0,-2.6497,-2.8352,-2.8689,-2.9111,-3.0287,-3.0484,-3.0993,-3.2174,-3.1836,-3.2174,-3.3936,-3.4189,-3.4694,-3.6005,-3.6117,-3.6624,-3.785,-3.8564,-3.9782,-4.1715,-4.2349,-4.2963,-4.3661,-4.3632,-4.3307,-4.2589,-4.2589,-4.2589,-4.2589,-4.2589,-4.2589,-4.2589,-4.2589,-4.2548,-4.2467,-4.1394,-4.0969,-4.0902,-3.9814,-3.876,-3.7821,-3.722,-3.6305,-3.5208,-3.4633,0.0,0.0,0.0,-3.4424,-3.4424,-3.4424,-3.4816,0.0,-3.594,-3.6959,-3.8004,-3.8553,-3.871,-3.8998,-4.0148,-4.167,-4.3479,-4.5385,-4.7755,-4.9892,-5.1263,-5.2673,-5.4068,-5.5421,-5.63,-5.7241,-5.8596,-5.8762,-5.83,-5.6994,-5.6146,-5.5438,-5.4745,-5.4652,-5.4945,0.0,-5.513,-5.5315,-5.6717,-5.6115,-5.6023,-5.6779,-5.681,-5.6471,-5.5684,-5.5068,-5.4345,-5.3714,-5.3037,-5.2698,-5.2698,-5.1344,-5.0697,-5.0636,-4.9251,-4.8604,-4.8604,-4.8604,-4.7835,-4.6603,-4.6603,-4.5803,-4.461,-4.461,-4.461,-4.461,-4.461,-4.461,-4.4648,0.0,0.0,0.0,-2.9116,-2.9982,-3.0825,-3.164,-3.1017,-3.0792,-3.1696,-3.2679,0.0,0.0,0.0,0.0,0.0,-3.6708,-3.7201,-3.8414,-3.907,-4.0308,-4.2263,-4.2526,-4.3355,-4.4915,-4.4537,-4.4619,-4.5263,-4.5263,-4.5263,-4.5263,-4.5263,-4.5263,-4.5232,-4.4789,-4.4597,-4.4515,-4.3478,-4.2998,-4.2911,-4.1674,-4.0131,-3.8438,-3.775,-3.6279,-3.4685,0.0,0.0,0.0,-3.4397,-3.4397,-3.4397,-3.4397,0.0,0.0,-3.6305,-3.7534,-3.8658,-3.9599,-4.0148,-4.0723,-4.1873,-4.2602,-4.3383,-4.4765,-4.5989,-4.708,-4.8076,-4.9974,-5.1773,-5.2761,-5.4694,-5.6515,-5.7919,-5.8485,-5.8608,-5.8227,-5.7179,-5.6146,-5.5468,-5.5376,0.0,0.0,0.0,0.0,-5.6748,-5.6084,-5.5992,-5.6779,-5.681,-5.6238,-5.5099,-5.4806,-5.4129,-5.3067,-5.2821,-5.2698,-5.2698,-5.1344,-5.0205,-4.9312,-4.882,-4.8604,-4.8604,-4.8604,-4.7835,-4.6603,-4.6603,-4.5803,-4.461,-4.461,-4.461,-4.461,-4.461,-4.461,-4.461,0.0,0.0,0.0,0.0,0.0,0.0,0.0,0.0,0.0,0.0,0.0,0.0,0.0,0.0,0.0,0.0,0.0,-3.7968,-3.8754,-3.9354,-4.048,-4.2228,-4.2703,-4.3678,-4.5202,-4.5059,-4.5257,-4.5865,-4.5865,-4.5865,-4.5865,-4.5865,-4.5865,-4.5865,-4.544,-4.5242,-4.5202,-4.424,-4.3902,-4.3826,-4.2495,-4.0912,-3.9172,-3.8098,-3.6561,0.0,0.0,0.0,-3.4397,-3.4397,-3.4397,-3.4424,-3.4659,-3.4999,-3.56,-3.6933,-3.8135,-3.9285,-4.0435,-4.1167,-4.1847,-4.2788,-4.3023,-4.3284,-4.4174,-4.4858,-4.5481,-4.6167,-4.7825,-4.9584,-5.1053,-5.2802,-5.4674,-5.6713,-5.7408,-5.7777,-5.8073,-5.7148,-5.6347,-5.6084,-5.5838,-5.5807,0.0,0.0,0.0,-5.6748,-5.6084,-5.5992,-5.6779,-5.6563,-5.5869,-5.4714,-5.4437,-5.3791,-5.2729,-5.2698,-5.2483,-5.199,-5.1097,-4.9959,-4.8604,-4.8604,-4.8604,-4.8604,-4.8604,-4.7989,-4.6942,-4.6696,-4.5926,-4.491,-4.4702,-4.461,-4.461,-4.461,-4.461,-4.461,0.0,0.0,0.0,0.0,0.0,0.0,0.0,0.0,0.0,0.0,0.0,0.0,0.0,0.0,0.0,0.0,0.0,0.0,-3.887,-3.9394,0.0,-4.1633,-4.2839,-4.3836,-4.451,-4.5157,-4.5187,-4.461,-4.461,-4.4641,-4.4671,-4.4671,-4.4702,-4.4702,-4.4702,-4.4702,-4.4664,-4.4009,-4.3798,-4.376,-4.2427,-4.1225,-4.0073,-3.8436,0.0,0.0,0.0,0.0,-3.4476,-3.445,-3.445,-3.4607,-3.5234,-3.6175,-3.7168,-3.7795,-3.8789,-3.9939,-4.1089,-4.1821,-4.2447,-4.2971,-4.3075,-4.3179,-4.3721,-4.4377,-4.4969,-4.556,-4.6308,-4.7604,0.0,0.0,-5.1927,-5.5095,-5.5715,-5.5992,-5.6779,-5.6207,-5.5992,0.0,0.0,0.0,0.0,0.0,0.0,-5.6748,0.0,-5.5992,-5.6779,-5.6084,-5.5407,-5.4714,-5.4037,-5.3406,-5.2729,-5.2667,-5.199,-5.0697,-5.0667,-4.9928,-4.8604,-4.8604,-4.8604,-4.8604,-4.8604,-4.8235,-4.7558,-4.688,-4.6203,-4.5526,-4.4849,-4.461,-4.461,-4.461,-4.461,-4.461,0.0,0.0,0.0,0.0,0.0,0.0,0.0,0.0,0.0,0.0,0.0,0.0,0.0,0.0,0.0,0.0,0.0,0.0,-3.9415,0.0,0.0,0.0,-4.1954,-4.2671,-4.384,-4.4024,-4.4271,-4.461,-4.461,-4.4887,-4.5341,-4.5341,-4.5588,-4.608,-4.608,-4.608,-4.608,-4.5923,-4.555,-4.5026,0.0,-4.2149,-4.0539,0.0,0.0,0.0,0.0,0.0,-3.56,-3.5208,-3.5338,-3.5861,-3.6907,-3.7429,-3.7874,-3.8893,-3.9991,-4.1141,-4.2265,-4.2997,-4.3572,-4.4147,-4.365,-4.3022,-4.3139,-4.264,-4.2339,-4.289,-4.3574,-4.4872,0.0,0.0,0.0,-5.4512,-5.5838,0.0,-5.7457,-5.6964,0.0,-5.6779,0.0,-5.6594,-5.6779,-5.6656,0.0,0.0,-5.6084,-5.5992,-5.6779,-5.6084,-5.5407,-5.4714,-5.4037,-5.3406,-5.2729,-5.2206,-5.1528,-5.0697,-5.0174,-4.9466,-4.8604,-4.8604,-4.8604,-4.8604,-4.8604,-4.8235,-4.7558,-4.688,-4.6203,-4.5526,-4.4849,-4.461,-4.461,-4.461,-4.461,-4.461,0.0,0.0,0.0,0.0,0.0,0.0,0.0,0.0,0.0,0.0,0.0,0.0,0.0,0.0,0.0,0.0,0.0,0.0,0.0,-4.0051,0.0,-4.1089,-4.1432,-4.1955,-4.273,-4.3316,-4.3778,-4.4178,0.0,0.0,-4.4733,-4.4418,-4.4479,-4.4849,-4.4849,-4.4849,-4.4849,-4.4849,0.0,0.0,0.0,0.0,0.0,0.0,0.0,0.0,0.0,-3.708,-3.6585,-3.699,-3.719,-3.7351,-3.8057,-3.8606,-3.9181,-4.0095,0.0,-4.2265,-4.3154,-4.3807,-4.433,-4.4589,-4.3676,-4.2655,-4.2569,-4.1508,-4.06,-4.0861,-4.1477,-4.2559,-4.4766,-4.7358,-5.0117,0.0,0.0,0.0,-5.7241,-5.7056,-5.681,0.0,-5.681,0.0,-5.681,-5.681,-5.681,0.0,-5.644,-5.6207,-5.63,-5.5653,-5.4976,-5.4252,-5.3622,-5.2944,-5.2267,-5.1898,-5.1221,-5.0266,-4.9866,-4.9312,-4.8604,-4.8604,-4.8604,-4.8604,0.0,-4.8389,-4.7958,-4.7004,-4.6357,-4.5926,-4.501,-4.461,-4.461,-4.461,-4.461,-4.461,0.0,0.0,0.0,0.0,0.0,0.0,0.0,0.0,0.0,0.0,0.0,0.0,0.0,0.0,0.0,0.0,0.0,0.0,0.0,0.0,0.0,-4.0505,-4.1124,-4.1463,-4.1463,-4.2663,-4.3316,-4.3193,0.0,0.0,0.0,0.0,0.0,0.0,0.0,0.0,0.0,0.0,0.0,0.0,0.0,0.0,0.0,0.0,0.0,0.0,-3.824,-3.752,-3.7437,-3.9009,-3.9177,-3.8736,-3.9066,-3.9725,-4.054,-4.1219,-4.2186,-4.3154,-4.3729,-4.4278,-4.4642,-4.4643,-4.3389,-4.2185,-4.2028,-4.0671,-3.9494,-3.9494,-3.986,-4.0754,-4.2713,-4.5127,-4.7945,-5.1134,0.0,-5.5191,-5.6625,-5.681,-5.681,-5.681,-5.681,-5.681,-5.681,-5.681,-5.681,-5.681,-5.681,-5.6502,-5.5745,-5.5068,-5.4345,-5.3622,-5.3006,-5.239,-5.1713,-5.1621,-5.0944,-4.9682,-4.9589,-4.922,-4.8604,-4.8604,-4.8604,-4.8604,0.0,0.0,-4.8512,-4.7157,-4.6603,-4.6449,-4.5095,-4.461,-4.461,-4.461,-4.461,-4.461,0.0,0.0,0.0,0.0,0.0,0.0,0.0,0.0,0.0,0.0,-3.8157,0.0,0.0,0.0,0.0,0.0,0.0,0.0,0.0,0.0,0.0,0.0,-4.0597,-4.0689,-4.0689,-4.1524,-4.1648,0.0,0.0,0.0,0.0,0.0,0.0,0.0,0.0,0.0,0.0,0.0,0.0,0.0,0.0,0.0,0.0,0.0,0.0,0.0,-3.9278,-3.8733,-3.8253,-3.9573,-3.9428,-3.904,-4.0918,-4.0988,-4.0618,-4.169,-4.25,-4.3154,-4.3729,-4.4278,-4.4617,-4.4147,-4.3075,-4.195,-4.0932,-3.9756,0.0,0.0,-3.8945,-3.9761,-4.2379,-4.4733,-4.7398,-5.0909,-5.3285,-5.5191,-5.6625,-5.681,-5.681,0.0,-5.681,-5.681,-5.681,-5.681,0.0,0.0,0.0,-5.6502,-5.5745,-5.5068,-5.4129,-5.2914,-5.276,-5.239,-5.1713,-5.1159,-5.0482,-4.9682,-4.9097,-4.8727,-4.8604,-4.8604,-4.8604,-4.8604,-4.8604,0.0,-4.8512,-4.7157,-4.6603,-4.6449,-4.5095,-4.461,-4.461,-4.461,-4.461,-4.461,0.0,0.0,0.0,0.0,0.0,0.0,0.0,0.0,0.0,-3.8908,-3.9305,-3.9644,0.0,0.0,0.0,0.0,0.0,0.0,0.0,0.0,0.0,0.0,0.0,-4.0505,-4.0505,-4.1247,0.0,0.0,0.0,0.0,0.0,0.0,0.0,0.0,0.0,0.0,0.0,0.0,0.0,0.0,0.0,0.0,0.0,0.0,0.0,0.0,0.0,-4.0504,-3.9683,-4.0074,-4.0175,-4.0267,-4.1015,-4.1261,-4.1507,-4.2369,-4.3023,-4.3598,-4.4173,-4.4513,-4.4591,-4.4016,-4.2788,-4.1507,-4.0618,0.0,0.0,0.0,-3.8527,-3.9104,-4.0377,-4.3245,-4.6229,-4.8685,-5.1577,-5.4129,-5.5961,-5.6255,-5.6378,-5.6779,-5.681,-5.681,0.0,-5.681,0.0,0.0,0.0,-5.5899,-5.5222,-5.4237,-5.3375,-5.2729,-5.2698,-5.2206,-5.119,-5.0851,-5.0174,-4.9127,-4.8789,-4.8604,-4.8604,-4.8604,-4.8604,-4.8604,-4.8604,0.0,-4.8512,-4.7157,-4.6603,-4.6449,-4.5095,-4.461,-4.461,-4.461,-4.461,-4.461,0.0,0.0,0.0,0.0,0.0,0.0,0.0,-3.7615,-3.82,-3.9521,-4.0166,-4.0505,-4.0505,-4.0505,-4.0505,0.0,0.0,0.0,0.0,0.0,0.0,0.0,0.0,0.0,0.0,0.0,0.0,0.0,0.0,0.0,0.0,0.0,0.0,0.0,0.0,0.0,0.0,0.0,0.0,0.0,0.0,0.0,0.0,0.0,0.0,0.0,0.0,-4.1784,-4.0627,-4.0718,-4.0871,-4.1012,-4.0508,-4.1123,-4.2203,-4.2525,-4.3154,-4.3807,-4.4382,-4.4643,-4.4565,-4.3859,-4.25,-4.1115,-4.0409,-3.9024,0.0,-3.8057,-3.8318,-3.8655,-3.9159,-4.1952,-4.4874,0.0,-4.9915,-5.2749,-5.5282,-5.5667,-5.5913,0.0,-5.681,0.0,-5.681,0.0,0.0,0.0,0.0,0.0,-5.4498,-5.3375,-5.2698,-5.2698,-5.2698,-5.2052,-5.0697,-5.0697,-4.9989,-4.8604,-4.8604,-4.8604,-4.8604,-4.8604,-4.8604,-4.8604,-4.8604,0.0,0.0,-4.7157,-4.6603,-4.6449,-4.5095,-4.461,-4.461,-4.461,-4.461,-4.461,0.0,0.0,0.0,0.0,0.0,0.0,0.0,-3.8015,-3.8908,-4.0228,-4.0443,-4.0505,-4.0505,-4.0505,-4.0505,0.0,0.0,0.0,0.0,0.0,0.0,0.0,0.0,0.0,0.0,0.0,0.0,0.0,0.0,0.0,0.0,0.0,0.0,0.0,0.0,0.0,0.0,0.0,0.0,0.0,0.0,0.0,0.0,0.0,0.0,0.0,0.0,0.0,-3.9857,-4.1569,-4.1063,-3.9815,-4.0051,-4.0923,-4.1764,-4.1547,0.0,0.0,-4.3807,-4.433,-4.4407,-4.3363,-4.2186,-4.1036,-3.9939,0.0,-3.8057,-3.8527,-3.8292,-3.8633,-4.0819,-4.1746,-4.3574,-4.7848,-4.9502,-5.1454,-5.4952,-5.5411,-5.5752,-5.6669,0.0,0.0,0.0,0.0,0.0,0.0,0.0,0.0,-5.3837,-5.3129,-5.2698,-5.2698,-5.2698,-5.2052,-5.0697,-5.0697,-4.9989,-4.8604,-4.8604,-4.8604,-4.8604,-4.8604,-4.8604,-4.8604,-4.8604,0.0,0.0,-4.7157,-4.6603,-4.6449,-4.5095,-4.461,-4.461,-4.461,-4.461,-4.461,0.0,0.0,0.0,0.0,0.0,0.0,0.0,-3.8077,-3.8967,-4.032,-4.0505,-4.0505,-4.0505,-4.0505,-4.0505,0.0,0.0,0.0,0.0,0.0,0.0,0.0,0.0,0.0,0.0,0.0,0.0,0.0,0.0,0.0,0.0,0.0,0.0,0.0,0.0,0.0,0.0,0.0,0.0,0.0,0.0,0.0,0.0,0.0,0.0,0.0,0.0,0.0,0.0,0.0,0.0,0.0,-3.9581,-3.9974,0.0,0.0,-4.1638,-4.2186,-4.3101,-4.352,-4.352,-4.2709,-4.1899,-4.101,-3.986,-3.9259,-3.8789,-3.8318,-3.8754,-3.9237,-3.9311,-4.062,-4.2636,-4.5345,-4.7259,-4.9389,-5.2337,-5.3574,-5.4432,-5.5279,-5.5821,0.0,0.0,0.0,0.0,0.0,0.0,0.0,-5.316,-5.2852,-5.2698,-5.2698,-5.2698,-5.2052,-5.0697,-5.0697,-4.9989,-4.8604,-4.8604,-4.8604,-4.8604,-4.8604,-4.8604,-4.8604,-4.8604,0.0,0.0,-4.7004,-4.6357,-4.5895,-4.4979,-4.461,-4.461,-4.461,-4.461,-4.461,0.0,0.0,0.0,0.0,0.0,0.0,-3.7092,-3.7954,-3.8967,-4.032,-4.0505,-4.0505,-4.0505,-4.0505,-4.0566,-4.0816,0.0,0.0,0.0,0.0,0.0,0.0,0.0,0.0,0.0,0.0,0.0,-4.3187,0.0,0.0,0.0,0.0,0.0,0.0,0.0,0.0,0.0,0.0,0.0,0.0,0.0,0.0,0.0,0.0,0.0,0.0,0.0,0.0,0.0,0.0,0.0,-4.1957,-3.9564,-3.9647,-4.0615,0.0,-4.0906,-4.1507,-4.2291,-4.2762,-4.2892,-4.2317,-4.1742,-4.1063,-4.0069,-3.973,-3.939,-3.8579,-3.9111,-3.9432,-3.8694,-3.9833,-4.1555,-4.3567,-4.5386,-4.7583,-5.0472,-5.2079,-5.3299,0.0,0.0,0.0,0.0,0.0,0.0,0.0,0.0,0.0,-5.276,-5.2698,-5.2698,-5.2698,-5.2513,-5.1867,-5.0697,-5.0482,-4.9805,-4.8604,-4.8604,-4.8604,-4.8604,-4.8604,-4.8604,-4.8604,0.0,0.0,0.0,-4.688,-4.6203,-4.5526,-4.4849,-4.461,-4.461,-4.461,-4.461,-4.461,0.0,0.0,0.0,0.0,0.0,0.0,0.0,-3.7646,-3.8967,-4.032,-4.0505,-4.0505,-4.0505,-4.0505,-4.0782,-4.1524,0.0,0.0,0.0,0.0,0.0,0.0,0.0,0.0,0.0,0.0,-4.3932,-4.4579,-4.5218,-4.5557,0.0,0.0,0.0,0.0,0.0,0.0,0.0,0.0,0.0,0.0,0.0,0.0,0.0,0.0,0.0,0.0,0.0,0.0,0.0,0.0,0.0,0.0,0.0,-4.0285,-4.0707,-3.9173,-3.9965,-4.1324,-4.1324,-4.216,-4.2892,-4.2317,-4.1742,-4.1167,-4.054,-3.9991,-3.9599,-3.9599,-3.9128,-3.8964,-3.9905,-3.9617,-4.0255,-4.3373,-4.4458,-4.6241,-5.008,-5.1455,-5.2596,0.0,0.0,0.0,0.0,0.0,0.0,0.0,0.0,0.0,-5.276,-5.2698,-5.2698,-5.2698,-5.2082,-5.1374,-5.0697,-5.002,-4.9343,-4.8604,-4.8604,-4.8604,-4.8604,-4.8604,-4.8604,0.0,0.0,0.0,0.0,-4.688,-4.6203,-4.5526,-4.4849,-4.461,-4.461,-4.461,-4.461,-4.461,0.0,0.0,0.0,0.0,0.0,0.0,0.0,-3.7646,-3.8816,-3.9674,-4.0197,-4.0505,-4.0505,-4.0505,-4.0782,-4.1524,0.0,0.0,0.0,0.0,0.0,0.0,0.0,0.0,0.0,0.0,-4.3932,-4.461,-4.4825,-4.4949,-4.4949,-4.4949,0.0,0.0,0.0,0.0,0.0,0.0,0.0,0.0,0.0,0.0,0.0,0.0,0.0,0.0,0.0,0.0,0.0,0.0,0.0,0.0,0.0,0.0,0.0,-3.8798,-3.9417,-4.0455,-4.0211,-4.0409,-4.0644,-4.0461,-4.0566,-4.054,-3.9991,-4.0017,-3.9939,-3.9155,-3.9329,-3.9432,-3.872,-3.8926,-3.9949,-4.2159,-4.3719,0.0,0.0,0.0,0.0,-5.3357,0.0,0.0,0.0,0.0,0.0,0.0,0.0,0.0,-5.276,-5.2698,-5.2698,-5.2698,-5.2052,-5.1374,-5.0697,-5.002,-4.9312,-4.8604,-4.8604,-4.8604,-4.8604,-4.8604,0.0,0.0,0.0,0.0,0.0,-4.6696,-4.5926,-4.4918,-4.4664,-4.461,-4.461,-4.461,-4.461,-4.461,0.0,0.0,0.0,0.0,0.0,0.0,0.0,-3.7646,-3.8754,-3.9398,-4.0074,-4.0505,-4.0505,-4.0751,-4.1217,-4.1925,0.0,0.0,0.0,0.0,0.0,0.0,0.0,0.0,0.0,-4.3494,-4.4456,-4.5341,-4.5095,-4.5095,-4.5341,-4.5095,-4.4856,-4.461,0.0,0.0,0.0,0.0,0.0,0.0,0.0,0.0,0.0,0.0,0.0,0.0,0.0,0.0,0.0,0.0,0.0,0.0,0.0,0.0,0.0,0.0,-3.9008,-3.9567,-3.9301,-3.9442,-3.9599,-3.9599,-4.0017,-4.0331,-3.9991,-4.0357,-4.0435,-3.9285,-3.9494,-3.9488,-3.8123,-3.8349,-3.9347,-4.128,-4.3046,0.0,0.0,0.0,0.0,-5.3558,0.0,0.0,0.0,0.0,0.0,0.0,0.0,0.0,-5.2729,-5.2483,-5.2329,-5.2329,-5.1682,-5.1005,-5.0328,-4.962,-4.9066,-4.8604,-4.8604,-4.8604,-4.8604,-4.8604,0.0,0.0,0.0,0.0,0.0,-4.6603,-4.5803,-4.461,-4.461,-4.461,-4.461,-4.461,-4.461,-4.461,0.0,0.0,0.0,0.0,0.0,0.0,0.0,0.0,0.0,0.0,-4.0043,-4.0505,-4.0505,-4.1186,-4.1863,0.0,0.0,0.0,0.0,0.0,0.0,0.0,0.0,0.0,0.0,-4.3956,-4.528,-4.6511,-4.5926,-4.5988,-4.6573,-4.5957,-4.5311,-4.4702,-4.4702,0.0,0.0,0.0,0.0,0.0,0.0,0.0,0.0,0.0,0.0,0.0,0.0,0.0,0.0,0.0,0.0,0.0,0.0,0.0,0.0,0.0,0.0,0.0,0.0,-3.8966,-3.9364,-3.9364,-3.9808,-4.0226,-4.0226,-4.0697,0.0,-3.9756,-3.952,-3.9181,-3.8214,-3.8004,-3.8668,-4.0749,-4.2565,0.0,0.0,-5.019,0.0,0.0,0.0,0.0,0.0,0.0,0.0,0.0,0.0,0.0,-5.2698,-5.2082,-5.1682,-5.1621,-5.0974,-5.0328,-4.9682,-4.8974,-4.8604,-4.8604,-4.8604,-4.8604,-4.8604,-4.8604,0.0,0.0,0.0,0.0,0.0,-4.6603,-4.5834,-4.4671,-4.4641,-4.461,-4.461,-4.461,-4.461,-4.461,0.0,0.0,0.0,0.0,0.0,0.0,0.0,0.0,0.0,0.0,0.0,-4.0505,-4.0505,-4.1186,0.0,0.0,0.0,0.0,0.0,0.0,0.0,0.0,0.0,0.0,-4.3377,-4.4664,-4.5495,-4.5834,-4.6172,-4.6449,-4.6603,-4.6419,-4.5988,-4.5341,-4.5341,-4.4895,0.0,0.0,0.0,0.0,0.0,0.0,0.0,0.0,0.0,0.0,0.0,-4.4343,0.0,0.0,0.0,0.0,0.0,0.0,0.0,0.0,-3.8922,-3.7988,-3.7768,0.0,-3.6933,-3.6933,-3.7717,-3.8501,0.0,-3.8919,-3.9259,-3.8972,-3.8606,-3.8475,-3.9102,-3.8841,-3.9275,-4.1568,0.0,0.0,-4.6987,0.0,0.0,-5.4787,0.0,0.0,0.0,0.0,0.0,0.0,0.0,-5.2698,-5.2698,-5.2082,-5.1467,-5.0944,-5.0266,-4.9835,-4.9682,-4.8974,-4.8604,-4.8604,-4.8604,-4.8604,-4.8604,-4.8604,0.0,0.0,0.0,0.0,-4.7342,-4.6819,-4.6111,-4.5311,-4.4825,-4.461,-4.461,-4.461,-4.461,-4.461,0.0,0.0,0.0,0.0,0.0,0.0,0.0,0.0,0.0,0.0,0.0,0.0,0.0,0.0,0.0,0.0,0.0,0.0,0.0,0.0,0.0,0.0,0.0,0.0,-4.3624,-4.488,-4.5741,-4.6049,-4.6419,-4.6757,-4.7065,-4.6419,-4.5926,-4.5557,-4.5172,-4.4749,0.0,0.0,0.0,0.0,0.0,0.0,0.0,0.0,0.0,0.0,-4.461,-4.4381,0.0,-4.4228,-4.3949,-4.3457,0.0,0.0,0.0,0.0,-3.8581,-3.6807,-3.6633,-3.6934,-3.7299,-3.7299,-3.8187,-3.905,-3.905,-3.9076,-3.905,-3.8762,-3.8684,-3.8789,-3.9128,-3.9764,-4.0696,-4.1974,-4.4642,0.0,0.0,0.0,-5.2965,0.0,0.0,0.0,0.0,0.0,0.0,0.0,0.0,-5.2698,-5.2698,-5.1775,-5.1067,-5.0697,-4.9712,-4.9189,-4.9189,-4.882,-4.8604,-4.8604,-4.8604,-4.8604,-4.8604,-4.8604,-4.8604,0.0,0.0,0.0,-4.7588,-4.7219,-4.6665,-4.5988,-4.5311,-4.5033,-4.5003,-4.4733,-4.461,-4.461,0.0,0.0,0.0,0.0,0.0,0.0,0.0,0.0,0.0,0.0,0.0,0.0,0.0,0.0,0.0,0.0,0.0,0.0,0.0,0.0,0.0,0.0,0.0,-4.4332,-4.3778,-4.4979,-4.5926,-4.6603,-4.6696,-4.7034,-4.7588,-4.6419,-4.5772,-4.5518,-4.4688,-4.4297,0.0,0.0,0.0,0.0,0.0,0.0,0.0,0.0,0.0,0.0,0.0,0.0,0.0,-4.4335,-4.4026,-4.3675,-4.3949,0.0,0.0,0.0,0.0,0.0,-3.6076,-3.7457,-3.8762,-3.8397,-3.9311,-4.0278,-4.0174,-3.986,-3.9468,-3.8945,-3.9259,-3.9542,-3.9344,-4.0769,0.0,0.0,0.0,0.0,-5.2107,-5.1773,-5.1806,0.0,0.0,0.0,0.0,0.0,0.0,0.0,0.0,-5.2622,-5.2575,-5.1374,-5.0636,-5.0543,-4.9281,-4.8604,-4.8604,-4.8604,-4.8604,-4.8604,-4.8604,-4.8604,-4.8604,-4.8604,-4.8604,0.0,0.0,0.0,-4.7742,-4.765,-4.7281,-4.6665,-4.5895,-4.5588,-4.5495,-4.4856,-4.461,-4.4572,0.0,0.0,0.0,0.0,0.0,0.0,0.0,0.0,0.0,0.0,0.0,0.0,0.0,0.0,0.0,0.0,0.0,0.0,0.0,0.0,0.0,0.0,-4.4579,-4.4579,-4.4456,-4.5187,-4.5926,-4.6603,-4.7157,-4.7496,-4.7619,-4.7404,-4.6616,-4.5323,-4.4611,-4.4104,-4.3793,0.0,0.0,0.0,0.0,0.0,0.0,0.0,0.0,0.0,0.0,0.0,0.0,-4.4419,-4.4035,-4.3448,-4.4065,0.0,0.0,0.0,0.0,0.0,-3.7621,-3.8663,-3.8998,-3.7011,-3.8135,-3.9599,-3.9076,-3.9311,-3.9573,-3.9494,-3.9547,-4.0149,-4.1839,-4.175,-4.2034,0.0,0.0,-4.8391,0.0,0.0,0.0,0.0,0.0,0.0,0.0,0.0,0.0,0.0,0.0,0.0,-5.1898,-5.1128,-5.042,-4.9866,-4.9035,-4.8604,-4.8604,-4.8604,-4.8604,-4.8604,-4.8604,-4.8604,-4.8604,-4.8604,-4.8604,0.0,0.0,-4.8543,-4.8419,-4.7835,-4.7558,-4.7311,-4.608,-4.5588,-4.5495,-4.4856,-4.461,-4.4572,0.0,0.0,0.0,0.0,0.0,0.0,0.0,0.0,0.0,0.0,0.0,0.0,0.0,0.0,0.0,0.0,0.0,0.0,0.0,0.0,0.0,-4.461,-4.461,-4.461,-4.461,-4.5588,-4.6111,-4.6049,-4.7465,-4.7958,-4.7588,-4.7219,-4.6287,-4.4918,-4.438,-4.4104,-4.4026,-4.384,0.0,0.0,0.0,0.0,0.0,0.0,0.0,0.0,0.0,0.0,0.0,0.0,-4.4112,-4.3557,-4.384,0.0,0.0,0.0,0.0,0.0,-3.6944,-3.8352,-3.9337,-3.8266,-3.973,-4.1376,-4.1115,-4.0514,-4.0043,-4.0043,-4.0043,-4.0346,-4.1333,0.0,-4.3798,-4.6027,0.0,-4.7668,-5.0427,0.0,0.0,0.0,0.0,0.0,0.0,0.0,0.0,0.0,0.0,0.0,-5.1461,0.0,-4.9861,-4.9682,-4.8974,-4.8604,-4.8604,-4.8604,-4.8604,-4.8604,-4.8604,-4.8604,-4.8604,-4.8604,-4.8604,-4.8563,0.0,-4.848,-4.8563,-4.8173,-4.8019,-4.8019,-4.6665,-4.6063,-4.5861,-4.4702,-4.4297,-4.4258,0.0,0.0,0.0,0.0,0.0,0.0,0.0,0.0,0.0,0.0,0.0,0.0,0.0,0.0,0.0,0.0,0.0,0.0,0.0,0.0,-4.461,-4.461,-4.461,-4.4702,-4.4856,-4.568,-4.6018,-4.5834,-4.7373,-4.7917,-4.7507,-4.6831,-4.5839,-4.4588,-4.4317,-4.4239,-4.4278,-4.3807,-4.3818,0.0,0.0,0.0,0.0,0.0,0.0,0.0,0.0,0.0,0.0,0.0,0.0,0.0,0.0,0.0,0.0,-3.969,-3.8038,-3.6384,-3.6645,-3.7926,-3.9311,-3.9703,-4.1115,-4.2526,-4.2944,-4.1664,-4.054,-4.0932,-4.0906,-4.0877,0.0,-4.3007,0.0,-4.7263,-4.7126,-4.7434,0.0,0.0,0.0,0.0,0.0,0.0,0.0,0.0,0.0,0.0,0.0,0.0,-5.075,0.0,-4.9219,-4.9309,-4.8828,-4.8521,-4.8521,-4.8521,-4.8521,-4.8604,-4.8604,-4.8604,-4.8604,-4.8604,-4.8563,-4.8521,-4.8385,-4.8385,-4.8438,-4.8313,-4.8385,-4.8398,-4.7046,-4.619,-4.5624,-4.443,-4.3988,-4.3988,0.0,0.0,0.0,0.0,0.0,0.0,0.0,0.0,0.0,0.0,0.0,0.0,0.0,0.0,0.0,0.0,0.0,0.0,0.0,0.0,-4.461,-4.461,-4.461,-4.4918,-4.5495,-4.5003,-4.5311,-4.6511,-4.6665,-4.6954,-4.7303,-4.663,-4.5687,-4.4629,-4.4819,-4.4699,-4.4308,-4.4429,-4.487,-4.5423,0.0,0.0,0.0,0.0,0.0,0.0,0.0,0.0,0.0,0.0,0.0,0.0,0.0,0.0,-4.0504,-4.0318,-3.8688,-3.7168,-3.824,-3.8266,-3.8397,-3.9965,-4.0488,-4.1036,-4.2657,-4.1664,-4.088,-4.25,-4.2422,-4.2334,0.0,-4.4022,-4.4963,-4.6288,-4.728,-4.8296,0.0,0.0,0.0,0.0,0.0,0.0,0.0,0.0,0.0,0.0,0.0,0.0,0.0,0.0,0.0,-4.814,-4.8248,-4.8343,-4.8343,-4.8343,-4.8427,-4.8604,-4.8604,-4.8604,-4.8604,-4.8604,-4.851,-4.8343,-4.8301,-4.8218,-4.8049,-4.826,-4.8301,-4.819,-4.6844,-4.544,-4.4148,-4.4057,-4.3988,-4.3988,0.0,0.0,0.0,0.0,0.0,0.0,0.0,0.0,0.0,0.0,0.0,0.0,0.0,0.0,0.0,0.0,0.0,0.0,0.0,0.0,-4.4178,-4.461,-4.461,-4.488,-4.5588,-4.5741,-4.5865,-4.5957,-4.6819,-4.7302,-4.7466,-4.7221,-4.6355,-4.5038,-4.5117,-4.4786,-4.4146,-4.4459,-4.476,-4.4971,-4.473,0.0,0.0,0.0,0.0,0.0,0.0,0.0,0.0,0.0,-4.4026,-4.3596,-4.314,-4.1988,-4.0618,-3.9924,-3.8684,-3.7665,-3.8083,-3.9096,-4.0103,-4.035,-4.0653,-4.1323,-4.2682,-4.25,-4.2317,-4.3337,-4.3101,-4.2786,0.0,0.0,-4.3857,-4.4731,-4.6077,0.0,0.0,0.0,0.0,0.0,0.0,0.0,0.0,0.0,0.0,0.0,0.0,0.0,0.0,0.0,0.0,-4.8007,-4.8218,-4.8301,-4.8301,-4.8301,-4.8343,-4.8396,-4.8301,-4.8301,-4.8396,-4.8396,-4.8355,-4.8301,-4.8175,-4.8049,-4.8007,-4.788,-4.7806,-4.7537,-4.6072,-4.4777,-4.3793,-4.3636,-4.3566,-4.3527,0.0,0.0,0.0,0.0,0.0,0.0,0.0,0.0,0.0,0.0,0.0,0.0,0.0,0.0,0.0,0.0,0.0,0.0,0.0,-4.3377,-4.3809,-4.4271,-4.4517,-4.4825,-4.5249,-4.5926,-4.6049,-4.5588,-4.6511,-4.7025,-4.7231,-4.7455,-4.6843,-4.5532,-4.5532,-4.5139,-4.4546,-4.4519,-4.4609,-4.4789,-4.4579,-4.4409,0.0,0.0,0.0,0.0,0.0,0.0,0.0,0.0,-4.3805,-4.3675,-4.2941,-4.2029,-4.1,-3.9809,-3.9356,-3.9068,-3.8549,-3.968,-4.0958,-4.067,-4.092,-4.1544,-4.2701,-4.2708,-4.2788,-4.3912,-4.3546,-4.3075,-4.3258,0.0,0.0,0.0,0.0,0.0,0.0,0.0,0.0,0.0,0.0,0.0,0.0,0.0,0.0,0.0,0.0,0.0,0.0,0.0,0.0,0.0,-4.7964,-4.8091,-4.8091,-4.8091,-4.8091,-4.8091,-4.788,-4.7922,-4.8218,-4.8218,-4.8175,-4.8091,-4.7922,-4.7837,-4.7752,-4.7624,-4.728,-4.6661,-4.5374,-4.4367,-4.3557,-4.3369,-4.329,-4.329,0.0,0.0,0.0,0.0,0.0,0.0,0.0,0.0,0.0,0.0,0.0,0.0,0.0,0.0,0.0,0.0,0.0,0.0,-4.1586,-4.2854,-4.3593,-4.3593,-4.424,-4.461,-4.461,-4.5249,-4.5588,-4.5588,-4.5588,-4.5878,-4.6324,-4.72,-4.7048,-4.6001,-4.6001,-4.5879,-4.5604,-4.4668,-4.4676,-4.5214,-4.4586,-4.4048,0.0,0.0,0.0,0.0,0.0,0.0,0.0,0.0,-4.3287,-4.384,-4.321,-4.2537,-4.1728,-4.0346,-4.0824,-4.1518,-3.9932,-3.9922,-4.055,-4.0986,-4.1129,-4.1477,-4.2671,-4.2095,-4.1977,-4.4251,-4.3833,-4.3206,-4.3781,-4.3415,0.0,0.0,0.0,0.0,0.0,0.0,0.0,0.0,0.0,0.0,0.0,0.0,0.0,0.0,0.0,0.0,0.0,0.0,0.0,0.0,-4.7495,-4.7581,-4.7581,-4.7581,-4.7581,-4.7581,-4.7366,-4.7538,-4.8007,-4.8007,-4.7837,-4.7581,-4.7581,-4.7495,-4.7309,-4.7495,-4.684,-4.5615,-4.4951,-4.4128,-4.329,-4.329,-4.329,-4.329,0.0,0.0,0.0,0.0,0.0,0.0,0.0,0.0,0.0,0.0,0.0,0.0,0.0,0.0,0.0,0.0,0.0,0.0,-4.1586,-4.1955,-4.2602,-4.3562,-4.3809,-4.4117,-4.461,-4.4787,-4.5341,-4.6296,-4.6296,-4.6348,-4.6524,-4.6779,-4.6303,-4.5303,-4.5422,-4.495,-4.4008,-4.4358,-4.4528,-4.4586,-4.4377,-4.4237,0.0,0.0,0.0,0.0,0.0,0.0,0.0,0.0,0.0,0.0,-4.3021,-4.2953,-4.2682,-4.1269,-4.1025,-4.0924,-3.9525,-4.0608,-4.1947,-4.1268,-4.2664,-4.4266,-4.4699,-4.4576,-4.4508,-4.5209,-4.4414,-4.3676,-4.3833,0.0,0.0,0.0,0.0,0.0,0.0,0.0,0.0,0.0,0.0,0.0,0.0,0.0,0.0,0.0,0.0,0.0,0.0,0.0,0.0,0.0,-4.7044,-4.7141,-4.7581,-4.7141,-4.69,-4.69,-4.6676,-4.6989,-4.7709,-4.7709,-4.7666,-4.7581,-4.7581,-4.7495,-4.7219,-4.6473,-4.5612,-4.4678,-4.4178,-4.3737,-4.329,-4.329,-4.329,-4.329,0.0,0.0,0.0,0.0,0.0,0.0,0.0,0.0,0.0,0.0,-4.0734,-4.1102,0.0,0.0,0.0,0.0,0.0,0.0,0.0,0.0,-4.1955,-4.2756,-4.3316,-4.3932,-4.461,-4.461,-4.4972,-4.5803,-4.5803,-4.5803,-4.5803,-4.6001,-4.5791,-4.5236,-4.5078,-4.4667,-4.3988,-4.4068,-4.3978,-4.3888,-4.3888,-4.3818,-4.3628,0.0,0.0,0.0,0.0,0.0,0.0,0.0,0.0,0.0,-4.313,-4.3288,-4.3271,-4.2382,-4.2334,-4.2466,-4.1567,-4.2402,-4.3477,-4.325,-4.4335,-4.5629,-4.6436,-4.6068,-4.5576,0.0,-4.4705,-4.3991,-4.4173,-4.4016,0.0,0.0,0.0,0.0,0.0,0.0,0.0,0.0,0.0,0.0,0.0,0.0,0.0,0.0,0.0,0.0,0.0,0.0,0.0,0.0,-4.6779,-4.6683,-4.7061,-4.6443,-4.6082,-4.6082,-4.5945,-4.6154,-4.6713,-4.6941,-4.7212,-4.7452,-4.7182,-4.6976,-4.68,-4.5578,-4.4798,-4.4257,-4.3718,-4.3438,-4.329,-4.329,-4.329,-4.329,0.0,0.0,0.0,0.0,0.0,0.0,0.0,0.0,0.0,0.0,-4.0152,-4.04,0.0,0.0,0.0,0.0,0.0,0.0,0.0,0.0,-4.1524,-4.1586,-4.2884,-4.3932,-4.461,-4.4548,-4.4548,-4.461,-4.461,-4.461,-4.4603,-4.5025,-4.5301,-4.5418,-4.4859,-4.4669,-4.4667,-4.3728,-4.326,-4.32,-4.326,-4.3049,-4.2724,-4.3395,0.0,0.0,0.0,0.0,0.0,0.0,0.0,0.0,-4.3369,-4.3478,-4.3638,-4.3378,-4.4167,-4.5031,-4.4814,-4.4701,-4.4963,-4.6044,-4.5931,-4.5978,-4.774,-4.6873,-4.5742,-4.5742,0.0,-4.4201,-4.4671,-4.4357,0.0,0.0,0.0,0.0,0.0,0.0,0.0,0.0,0.0,0.0,0.0,0.0,0.0,0.0,0.0,0.0,0.0,0.0,0.0,-4.7309,-4.6621,-4.6262,-4.6279,-4.5574,-4.5214,0.0,-4.5214,-4.5214,-4.5214,-4.5992,-4.6651,-4.7189,-4.6591,-4.6219,-4.601,-4.4825,-4.4287,-4.4167,-4.3529,-4.329,-4.329,-4.329,-4.329,-4.329,0.0,0.0,0.0,0.0,0.0,0.0,0.0,0.0,0.0,0.0,0.0,0.0,0.0,0.0,0.0,0.0,0.0,0.0,0.0,0.0,-4.1001,-4.1586,-4.2884,-4.3932,-4.461,-4.4086,-4.4086,-4.461,-4.461,-4.461,-4.4572,-4.4534,-4.4442,-4.4317,-4.4043,-4.3576,-4.2947,-4.3219,-4.303,-4.265,-4.312,-4.324,-4.3159,-4.3339,-4.3019,0.0,0.0,0.0,0.0,0.0,0.0,0.0,-4.318,-4.3329,-4.3399,-4.3549,-4.3579,-4.3529,-4.3677,-4.4531,-4.5433,-4.5656,-4.6585,-4.7578,-4.8021,-4.7494,-4.6925,-4.6925,-4.6032,-4.5289,-4.5368,0.0,0.0,0.0,0.0,0.0,0.0,0.0,0.0,0.0,0.0,0.0,0.0,0.0,0.0,0.0,0.0,0.0,0.0,0.0,0.0,-4.7309,-4.6142,-4.5783,-4.6279,-4.5125,-4.4526,0.0,-4.4526,-4.4526,-4.4556,-4.5783,-4.6411,-4.6488,-4.6339,-4.5681,-4.4736,-4.4436,-4.4018,-4.3499,-4.3349,-4.329,-4.329,-4.329,-4.329,-4.329,0.0,0.0,0.0,0.0,0.0,0.0,0.0,0.0,0.0,0.0,0.0,0.0,0.0,0.0,0.0,0.0,0.0,0.0,0.0,0.0,-4.0966,-4.2048,-4.2756,-4.3587,-4.4579,-4.4271,-4.4271,-4.461,-4.461,-4.4534,-4.4488,-4.4564,-4.46,-4.46,-4.4167,-4.3687,-4.3163,-4.2929,-4.2491,-4.1961,-4.2252,-4.2402,-4.2402,-4.2402,-4.2192,-4.1931,-4.1931,0.0,0.0,0.0,0.0,0.0,0.0,0.0,-4.2677,-4.3455,-4.3223,-4.2952,-4.4406,-4.521,-4.5832,-4.6722,-4.7789,-4.8681,-4.8681,-4.8156,-4.7647,-4.7647,-4.6769,-4.5954,-4.5954,0.0,0.0,0.0,0.0,0.0,0.0,0.0,0.0,0.0,0.0,0.0,0.0,0.0,0.0,0.0,0.0,0.0,0.0,-4.7309,-4.7309,-4.7309,-4.5992,-4.5454,-4.5843,-4.4496,-4.3798,-4.3798,-4.3798,-4.4018,-4.4377,-4.5723,-4.6279,-4.6249,-4.5963,-4.5244,-4.4287,-4.3917,-4.3618,-4.329,-4.329,-4.329,-4.329,-4.329,-4.329,-4.329,0.0,0.0,0.0,0.0,0.0,0.0,0.0,0.0,0.0,0.0,0.0,0.0,0.0,0.0,0.0,0.0,0.0,0.0,0.0,-4.0067,-4.112,-4.254,-4.2602,-4.3217,-4.4579,-4.4517,-4.4449,-4.4534,-4.4449,-4.4458,-4.4517,-4.4856,-4.5108,-4.5196,-4.4599,-4.4098,-4.3659,-4.2775,-4.2021,-4.1422,-4.1422,-4.1422,-4.1422,-4.1265,-4.1145,-4.1025,-4.1025,-4.1384,-4.1901,-4.2021,0.0,0.0,0.0,0.0,-4.1535,-4.268,-4.2463,-4.2389,-4.4869,-4.5647,-4.6209,-4.8312,-4.9062,-4.9348,-4.9348,-4.8709,-4.811,-4.7976,-4.7225,-4.6533,0.0,0.0,0.0,0.0,0.0,0.0,0.0,0.0,0.0,0.0,0.0,0.0,0.0,0.0,0.0,0.0,0.0,0.0,-4.7309,-4.7309,-4.7309,-4.7309,-4.5992,-4.5304,-4.5304,-4.3947,-4.329,-4.329,-4.329,-4.3648,-4.4347,-4.5442,-4.592,-4.5891,-4.5364,-4.4766,-4.4067,-4.3529,-4.329,-4.329,-4.329,-4.329,-4.329,-4.329,-4.329,-4.329,0.0,0.0,0.0,0.0,0.0,0.0,0.0,0.0,0.0,0.0,-3.9828,-3.9567,-3.9074,-3.9017,0.0,0.0,0.0,0.0,-3.9425,0.0,0.0,-4.254,-4.2602,-4.3217,-4.4579,-4.4024,-4.3912,-4.4374,-4.3912,-4.4335,-4.5414,-4.5122,-4.5029,-4.5029,-4.4519,-4.3668,-4.2608,-4.2479,-4.2021,-4.1422,-4.1422,-4.1422,-4.1324,-4.0756,-4.0187,-3.9679,-3.9679,-3.9738,-3.9888,-4.0457,-4.1115,0.0,0.0,0.0,0.0,-4.0142,-4.0124,-4.0414,-4.2112,-4.4318,-4.677,-4.9509,-4.9812,-4.9369,-4.9369,0.0,-4.8124,0.0,-4.7297,0.0,0.0,0.0,0.0,0.0,0.0,0.0,0.0,0.0,0.0,0.0,0.0,0.0,0.0,0.0,0.0,0.0,0.0,0.0,-4.7309,-4.7309,-4.7309,-4.7309,-4.5992,-4.5304,-4.5304,-4.3947,-4.329,-4.329,-4.329,-4.3648,-4.4317,-4.4496,-4.4586,-4.4586,-4.4496,-4.4077,-4.3409,-4.3319,-4.329,-4.329,-4.329,-4.329,-4.329,-4.329,-4.329,-4.329,0.0,0.0,0.0,0.0,0.0,0.0,0.0,0.0,0.0,0.0,0.0,-3.9461,-3.8901,-3.8374,0.0,0.0,0.0,0.0,-3.8875,-3.9585,0.0,0.0,0.0,-4.2479,-4.3464,-4.2817,-4.2934,-4.3905,-4.2934,-4.3714,-4.6133,-4.5698,-4.5849,-4.6422,-4.5728,-4.4788,-4.3617,-4.2359,-4.1482,-4.0816,-4.0427,-4.0726,-4.1265,-4.0247,-3.9888,-3.9918,-3.9523,-3.917,-3.8931,-3.9619,-4.0277,-4.0726,-4.0068,0.0,0.0,0.0,-3.8782,-3.9199,-4.1973,-4.4217,-4.6345,-4.8834,-4.9161,-4.8984,-4.9342,-4.8879,-4.8278,-4.7969,0.0,0.0,0.0,0.0,0.0,0.0,0.0,0.0,0.0,0.0,0.0,0.0,0.0,0.0,0.0,0.0,0.0,0.0,0.0,-4.6726,-4.7266,-4.7309,-4.7309,-4.7309,-4.5992,-4.5304,-4.5304,-4.3947,-4.329,-4.329,-4.3678,-4.3838,-4.3738,-4.4137,-4.4317,-4.4317,-4.4317,-4.3917,-4.329,-4.329,-4.329,-4.329,-4.329,-4.329,-4.329,-4.329,-4.329,-4.329,0.0,0.0,0.0,0.0,0.0,0.0,0.0,0.0,0.0,0.0,0.0,0.0,-3.8662,0.0,0.0,0.0,0.0,0.0,-3.8167,0.0,0.0,0.0,0.0,0.0,-4.2602,-4.1955,-4.2171,-4.3273,-4.2171,-4.3236,-4.6324,-4.6042,-4.6573,-4.7735,-4.6903,-4.5837,-4.4469,-4.2659,-4.1504,-4.0846,-4.0367,-4.0666,-4.1294,-4.0487,-4.0367,-4.0576,-3.9918,-3.911,-3.8482,-3.899,-3.9379,-3.9529,-3.8871,0.0,0.0,0.0,0.0,-3.8163,-4.1663,-4.3426,-4.4847,-4.7405,-4.8103,-4.8356,0.0,0.0,-4.8399,0.0,0.0,0.0,0.0,0.0,0.0,0.0,0.0,0.0,0.0,0.0,0.0,0.0,0.0,0.0,0.0,0.0,0.0,0.0,0.0,-4.6255,-4.7266,-4.7309,-4.7309,-4.7309,-4.6172,-4.5484,-4.5304,-4.3947,-4.329,-4.329,-4.3798,-4.3768,-4.3319,-4.3838,-4.4077,-4.4077,-4.4077,-4.3738,-4.329,-4.329,-4.329,-4.329,-4.329,-4.329,-4.329,-4.329,-4.329,-4.329,0.0,0.0,0.0,0.0,0.0,0.0,0.0,0.0,0.0,0.0,0.0,0.0,-3.8427,-3.7793,-3.7473,-3.7613,0.0,0.0,0.0,0.0,0.0,0.0,0.0,0.0,-4.2571,-4.1955,-4.1853,-4.2377,-4.1853,-4.2975,-4.5664,-4.5798,-4.6731,-4.8251,-4.7549,-4.6172,-4.4257,-4.3499,-4.2851,-4.2291,-4.2261,-4.1901,-4.1482,-4.2021,-4.1871,-4.1235,-4.0576,-3.9499,-3.8392,-3.8422,-3.8063,-3.7464,-3.6836,-3.7015,-3.7225,0.0,0.0,0.0,-4.0058,-4.0915,-4.1805,-4.5471,-4.6895,-4.7609,0.0,0.0,0.0,0.0,0.0,0.0,0.0,0.0,0.0,0.0,0.0,0.0,0.0,0.0,0.0,0.0,0.0,0.0,0.0,0.0,0.0,0.0,0.0,-4.6255,-4.7266,-4.7309,-4.7309,-4.7309,-4.6621,-4.5963,-4.5304,-4.3947,-4.329,-4.329,-4.3319,-4.3319,-4.329,-4.3319,-4.3349,-4.3349,-4.3349,-4.3319,-4.329,-4.329,-4.329,-4.329,-4.329,-4.329,-4.329,-4.329,-4.329,-4.329,0.0,0.0,0.0,0.0,0.0,0.0,0.0,0.0,0.0,0.0,0.0,0.0,0.0,-3.8063,-3.7439,-3.7473,-3.683,0.0,0.0,0.0,0.0,0.0,0.0,0.0,0.0,-4.0532,-4.0782,-4.1848,-4.0677,-4.1662,-4.4765,-4.4527,-4.5182,-4.6635,-4.6634,-4.6022,-4.4855,-4.3329,-4.262,-4.241,-4.241,-4.277,-4.321,-4.262,-4.253,-4.2462,-4.0935,-3.9529,-3.8392,-3.8392,-3.8242,-3.7853,-3.6806,-3.6896,-3.7165,-3.5878,-3.6237,-3.7319,-3.8456,-3.9099,-4.016,-4.3366,-4.4433,-4.5161,-4.6772,-4.7548,-4.7862,0.0,0.0,0.0,0.0,0.0,0.0,0.0,0.0,0.0,0.0,0.0,0.0,0.0,0.0,0.0,0.0,0.0,0.0,0.0,0.0,0.0,-4.6299,-4.6975,-4.7309,-4.7309,-4.6681,-4.5783,-4.4676,-4.4197,-4.3708,-4.329,-4.329,-4.329,-4.329,-4.329,-4.329,-4.329,-4.329,-4.329,-4.329,-4.329,-4.329,-4.329,-4.329,-4.329,-4.329,-4.329,-4.329,-4.329,0.0,0.0,0.0,0.0,0.0,0.0,0.0,0.0,0.0,-3.9858,0.0,0.0,0.0,0.0,-3.7678,-3.7503,-3.7395,-3.7352,-3.7306,0.0,0.0,0.0,0.0,0.0,0.0,-3.9726,-3.9975,-4.1177,-3.9803,-4.07,-4.37,-4.343,-4.4087,-4.5582,-4.5585,-4.5514,-4.5214,-4.3938,-4.3129,-4.2731,-4.3219,-4.3599,-4.3988,-4.4018,-4.3898,-4.3569,-4.2432,-4.0905,-3.9409,0.0,0.0,-3.8512,-3.7195,-3.6776,-3.6656,-3.6028,-3.6297,-3.684,-3.7214,-3.7639,-3.8637,-4.1509,-4.2507,-4.332,-4.5489,0.0,-4.7261,0.0,0.0,0.0,0.0,0.0,0.0,0.0,0.0,0.0,0.0,0.0,0.0,0.0,0.0,0.0,0.0,0.0,0.0,0.0,0.0,0.0,-4.6211,-4.6931,-4.7309,-4.7309,-4.6681,-4.5861,-4.5005,-4.4526,-4.4107,-4.3618,-4.3409,-4.329,-4.329,-4.329,-4.329,-4.329,-4.329,-4.329,-4.329,-4.329,-4.329,-4.329,-4.329,-4.329,-4.329,-4.329,-4.329,-4.329,0.0,0.0,0.0,0.0,0.0,0.0,0.0,0.0,-4.0457,-4.0427,0.0,0.0,0.0,0.0,0.0,-3.7794,-3.837,-3.853,-3.8001,-3.794,0.0,0.0,0.0,0.0,-4.047,-3.9688,-3.9619,-4.0292,-3.9477,-4.0202,-4.2552,-4.2552,-4.3488,-4.5214,-4.4556,-4.4646,-4.5274,-4.5244,-4.4496,-4.3439,-4.4766,-4.4526,-4.3648,-4.6262,-4.6022,-4.4436,-4.5035,-4.3629,0.0,-4.1482,0.0,0.0,-3.7883,-3.6596,-3.5699,-3.6297,-3.6058,-3.5729,0.0,0.0,0.0,0.0,0.0,0.0,-4.4678,0.0,0.0,0.0,0.0,0.0,0.0,0.0,0.0,0.0,0.0,0.0,0.0,0.0,0.0,0.0,0.0,0.0,0.0,0.0,0.0,0.0,0.0,-4.5173,-4.7179,-4.7266,-4.7309,-4.7309,-4.6681,-4.6309,-4.6279,-4.5005,-4.4347,-4.4317,-4.3618,-4.329,-4.329,-4.329,-4.329,-4.329,-4.329,-4.329,-4.329,-4.329,-4.329,-4.329,-4.329,-4.329,-4.329,-4.329,-4.329,-4.329,0.0,0.0,0.0,0.0,0.0,-4.312,-4.25,-4.2081,-4.1692,0.0,0.0,0.0,-4.0816,-4.0247,-3.9625,-3.8966,-3.9122,-3.9122,-3.8977,-3.9013,-3.9073,-3.9324,-3.9949,-4.0389,-4.0643,-4.0563,-4.0598,-4.0781,-3.9935,-4.013,-4.1203,-4.1085,-4.2021,-4.3828,-4.3648,-4.3917,-4.4556,-4.4077,-4.3917,-4.4077,-4.4436,-4.4945,0.0,0.0,0.0,0.0,0.0,-4.3808,-4.2751,0.0,-4.1923,-4.0606,-3.929,-3.7943,-3.6836,-3.6567,-3.7015,-3.7315,-3.6118,0.0,0.0,0.0,0.0,0.0,0.0,0.0,0.0,0.0,0.0,0.0,0.0,0.0,0.0,0.0,0.0,0.0,0.0,0.0,0.0,0.0,0.0,0.0,0.0,0.0,0.0,0.0,-4.5372,-4.5552,-4.6897,-4.7199,-4.7309,-4.7309,-4.713,-4.68,-4.6279,-4.5454,-4.4796,-4.4317,-4.3618,-4.329,-4.329,-4.329,-4.329,-4.329,-4.329,-4.329,-4.329,-4.329,-4.329,-4.329,-4.329,-4.329,-4.329,-4.329,-4.329,-4.329,0.0,0.0,0.0,0.0,0.0,-4.326,-4.318,-4.274,-4.2351,0.0,0.0,0.0,-4.1422,-4.1294,-4.0935,-4.0277,-4.0247,-4.0127,-3.9858,-3.9828,-3.9745,-3.9517,-4.0293,-4.0764,-4.0837,-4.1109,-4.1176,-4.0873,-4.0299,-4.019,-4.0581,-4.074,-4.1564,-4.294,-4.317,-4.3499,-4.3858,-4.3469,-4.3529,-4.3917,-4.4496,0.0,0.0,-4.5544,-4.5544,0.0,0.0,0.0,-4.329,-4.329,-4.2282,0.0,-4.0438,-3.8973,-3.7345,-3.6985,-3.7404,-3.7734,-3.6596,-3.6836,-3.7644,-3.8571,0.0,0.0,0.0,-4.2161,0.0,0.0,0.0,0.0,0.0,0.0,0.0,0.0,0.0,0.0,0.0,0.0,0.0,0.0,0.0,0.0,0.0,0.0,0.0,-4.7165,-4.6386,-4.6235,-4.6961,-4.7183,-4.7309,-4.7309,-4.7309,-4.713,-4.6741,-4.5783,-4.5095,-4.4706,-4.3738,-4.329,-4.329,-4.329,-4.329,-4.329,-4.329,-4.329,-4.329,-4.329,-4.329,-4.329,-4.329,-4.329,-4.329,-4.329,-4.329,-4.329,0.0,0.0,-4.4227,-4.4317,-4.3798,-4.3589,-4.4227,-4.3329,-4.2821,0.0,-4.2551,-4.1803,-4.1803,-4.2321,-4.2381,-4.1743,-4.1564,-4.1235,-4.0666,-4.0546,-4.0321,-3.9902,-4.054,-4.0975,-4.1152,-4.1542,-4.1468,-4.0902,-4.0658,-4.0516,-4.0516,-4.1115,-4.1782,-4.241,-4.288,-4.317,-4.329,-4.323,-4.326,-4.3499,-4.4706,-4.4915,0.0,0.0,-4.6022,-4.4616,-4.5095,-4.4496,-4.3379,-4.3319,-4.2141,0.0,-4.1505,-4.0013,-3.7944,-3.7781,-3.7751,-3.7717,-3.7558,-3.7524,-3.7793,-3.902,-3.8781,0.0,-4.1076,-4.1053,-4.0999,0.0,0.0,0.0,0.0,0.0,0.0,0.0,0.0,0.0,0.0,0.0,0.0,0.0,0.0,0.0,-4.8368,-4.7787,-4.7791,-4.8835,-4.7765,-4.7137,-4.7296,-4.7309,-4.7309,-4.7309,-4.7309,-4.7279,-4.7189,-4.5933,-4.5244,-4.5155,-4.3928,-4.329,-4.329,-4.329,-4.329,-4.329,-4.329,-4.329,-4.329,-4.329,-4.329,-4.329,-4.329,-4.329,-4.329,-4.329,-4.329,-4.329,0.0,-4.3898,-4.3648,-4.4227,-4.4197,-4.4167,-4.4287,-4.4107,-4.4167,-4.4825,-4.4676,-4.4526,-4.4526,-4.4167,-4.3898,-4.3748,-4.283,-4.2141,-4.2021,-4.1512,-4.1153,-4.107,-4.17,-4.2098,-4.2136,-4.2218,-4.2179,-4.2059,-4.1482,-4.1175,-4.1205,-4.1324,-4.1782,-4.2381,-4.1953,-4.2342,-4.326,-4.2761,0.0,-4.4137,-4.4407,0.0,-4.5861,-4.5753,-4.5783,-4.5873,-4.5454,-4.4796,-4.4007,-4.3469,-4.3128,-4.2812,0.0,-4.1969,-4.144,-4.0232,-3.9906,-3.9711,-3.8507,-3.8182,-3.8272,-3.8512,0.0,0.0,-4.0201,-4.0141,-4.0237,0.0,0.0,0.0,0.0,0.0,0.0,0.0,0.0,0.0,0.0,0.0,0.0,0.0,0.0,0.0,-5.0603,-4.9688,-4.9582,-5.0614,-4.9518,-4.8358,-4.7369,-4.7309,-4.7309,-4.7309,-4.7309,-4.704,-4.6531,-4.5693,-4.5035,-4.4496,-4.3678,-4.329,-4.329,-4.329,-4.329,-4.329,-4.329,-4.329,-4.329,-4.329,-4.329,-4.329,-4.329,-4.329,-4.329,-4.329,-4.329,-4.329,0.0,-4.4317,-4.4407,-4.4736,-4.4526,-4.4556,-4.5214,-4.5035,-4.5035,-4.5723,-4.5813,-4.5663,-4.5334,-4.5304,-4.5035,-4.4377,-4.3718,-4.306,-4.244,-4.2081,-4.1752,-4.1384,-4.2051,-4.241,-4.241,-4.2671,-4.2671,-4.241,-4.2081,-4.1752,-4.1384,-4.1752,-4.2081,-4.241,-4.2342,-4.2692,-4.326,-4.3,-4.324,-4.3858,-4.4874,0.0,-4.68,-4.68,-4.68,-4.6681,-4.5663,-4.4646,-4.3818,-4.3892,-4.3472,0.0,0.0,-4.3118,-4.2427,0.0,-4.1531,-4.1361,-4.0226,-3.9677,-3.9469,-3.9469,0.0,0.0,0.0,-3.9379,-3.9326,-4.0748,0.0,0.0,0.0,0.0,0.0,0.0,0.0,0.0,0.0,0.0,0.0,0.0,0.0,0.0,-5.1229,-5.0728,-5.0484,-5.0704,-4.9823,-4.888,-4.7848,-4.7489,-4.7309,-4.7309,-4.7309,-4.716,-4.68,-4.5813,-4.5125,-4.4796,-4.3768,-4.329,-4.329,-4.329,-4.329,-4.329,-4.329,-4.329,-4.329,-4.329,-4.329,-4.329,-4.329,-4.329,-4.329,-4.329,-4.329,-4.329,-4.4436,-4.4766,-4.5214,-4.4975,-4.4796,-4.5035,-4.5963,-4.5753,-4.5693,-4.6219,-4.6488,-4.6501,-4.5933,-4.6262,-4.6142,-4.5155,-4.4736,-4.4047,-4.3039,-4.286,-4.253,-4.1953,-4.2342,-4.265,-4.277,-4.312,-4.306,-4.259,-4.259,-4.2321,-4.1773,-4.2351,-4.259,-4.262,-4.297,-4.317,-4.329,-4.317,0.0,-4.4007,0.0,-4.6591,-4.683,-4.7608,-4.7489,-4.677,-4.5544,-4.4347,-4.3409,-4.4043,-4.3716,-4.3221,-4.4148,-4.3912,0.0,0.0,0.0,0.0,0.0,0.0,0.0,0.0,0.0,-3.9119,0.0,0.0,0.0,-3.9619,0.0,0.0,0.0,0.0,0.0,0.0,0.0,0.0,0.0,0.0,0.0,0.0,0.0,0.0,0.0,-5.072,-5.0541,-5.0226,-4.9284,-4.8566,-4.8297,-4.7668,-4.7309,-4.7309,-4.7309,-4.7249,-4.713,-4.6022,-4.5364,-4.5095,-4.3977,-4.3409,-4.329,-4.329,-4.329,-4.329,-4.329,-4.329,-4.329,-4.329,-4.329,-4.329,-4.329,-4.329,-4.329,-4.329,-4.329,-4.329,-4.3888,-4.4436,-4.4915,-4.3708,-4.4934,-4.5933,-4.5484,-4.5873,-4.619,-4.6279,-4.7339,-4.8027,-4.7967,-4.7489,-4.7369,-4.7788,-4.6202,-4.5125,-4.4975,-4.4407,-4.4047,-4.3988,-4.3439,-4.3509,-4.4077,-4.3559,-4.326,-4.32,-4.32,-4.314,-4.308,-4.314,-4.32,-4.317,-4.2701,-4.2791,-4.326,0.0,-4.3838,0.0,-4.686,-4.6172,0.0,-4.6052,-4.6112,-4.5424,-4.4676,-4.3917,-4.3329,0.0,-4.4289,-4.5112,0.0,-4.4822,-4.606,-4.4721,0.0,0.0,0.0,0.0,0.0,0.0,-4.1344,0.0,0.0,0.0,-3.9649,-4.0903,0.0,0.0,0.0,0.0,0.0,0.0,0.0,0.0,0.0,0.0,0.0,0.0,0.0,0.0,0.0,0.0,-4.9075,-5.0106,-4.7983,-4.713,-4.8237,-4.7668,-4.7309,-4.7309,-4.7309,-4.701,-4.6399,-4.6249,-4.5603,-4.4436,-4.4287,-4.3898,-4.329,-4.329,-4.329,-4.329,-4.329,-4.329,-4.329,-4.329,-4.329,-4.329,-4.329,-4.329,-4.329,-4.329,-4.329,-4.329,-4.4246,-4.4646,-4.5005,-4.4077,-4.4915,-4.5753,-4.5873,-4.68,-4.7459,-4.7459,-4.7938,-4.8716,-4.9853,-4.9075,-4.8716,-4.9374,0.0,-4.713,0.0,0.0,-4.5304,-4.4915,-4.4616,-4.4436,-4.4317,-4.4007,-4.3678,-4.329,-4.329,-4.329,-4.329,-4.329,-4.329,-4.329,-4.3449,-4.3658,-4.3858,0.0,-4.4137,0.0,0.0,0.0,0.0,-4.7219,-4.689,-4.5244,-4.4975,-4.4227,-4.329,0.0,-4.3732,0.0,0.0,0.0,0.0,0.0,0.0,0.0,0.0,0.0,0.0,0.0,0.0,0.0,-4.1784,0.0,-4.078,0.0,0.0,0.0,0.0,0.0,0.0,0.0,0.0,0.0,0.0,0.0,0.0,0.0,0.0,0.0,0.0,0.0,0.0,0.0,0.0,-4.6741,-4.7668,-4.7459,-4.7309,-4.7309,-4.7309,-4.716,-4.689,-4.6459,-4.5843,-4.4885,-4.4496,-4.3917,-4.329,-4.329,-4.329,-4.329,-4.329,-4.329,-4.329,-4.329,-4.329,-4.329,-4.329,-4.329,-4.329,-4.329,-4.329,-4.329,-4.5095,-4.5244,-4.5364,-4.4706,-4.5125,-4.5873,-4.6741,-4.7668,-4.8356,-4.8536,-4.8716,-4.9494,-5.1289,-5.0631,0.0,0.0,-5.0511,-4.9194,0.0,0.0,-4.6441,-4.6142,-4.5574,-4.5244,-4.5125,-4.4586,-4.4077,-4.3559,-4.3379,-4.329,-4.329,-4.329,-4.329,-4.3319,-4.4018,-4.4317,-4.4317,0.0,-4.4796,-4.5185,-4.5663,-4.6052,-4.6561,-4.8117,-4.7429,-4.5544,-4.5364,-4.4436,-4.329,-4.329,-4.3448,0.0,-4.4082,0.0,0.0,0.0,0.0,0.0,-4.5882,0.0,0.0,0.0,0.0,0.0,0.0,0.0,0.0,0.0,0.0,0.0,0.0,0.0,0.0,0.0,0.0,0.0,0.0,0.0,0.0,0.0,0.0,0.0,0.0,0.0,0.0,0.0,0.0,0.0,-4.7249,-4.713,-4.713,-4.7309,-4.7309,-4.7309,-4.7309,-4.6651,-4.5963,-4.5274,-4.4616,-4.3917,-4.329,-4.329,-4.329,-4.329,-4.329,-4.329,-4.329,-4.329,-4.329,-4.329,-4.329,-4.329,-4.329,-4.329,-4.329,-4.329,-4.6381,-4.6219,-4.6082,-4.5394,-4.5843,-4.6741,-4.8027,-4.8267,-4.8506,-4.9209,0.0,0.0,0.0,0.0,0.0,0.0,0.0,-5.1139,-5.1079,0.0,-4.7549,-4.8177,-4.6322,-4.5903,0.0,-4.5304,-4.4317,-4.4287,-4.3618,-4.329,-4.329,-4.329,-4.329,-4.3319,-4.4018,-4.4317,-4.4347,-4.4975,-4.6022,-4.7219,-4.7249,-4.7997,-4.906,0.0,-4.692,-4.6202,-4.5544,0.0,0.0,-4.329,-4.381,0.0,0.0,0.0,0.0,0.0,0.0,0.0,0.0,0.0,0.0,-4.5922,0.0,0.0,0.0,0.0,-4.2773,0.0,0.0,0.0,0.0,0.0,0.0,0.0,0.0,0.0,0.0,0.0,0.0,0.0,0.0,0.0,0.0,0.0,0.0,0.0,0.0,0.0,-4.713,-4.6711,-4.6651,-4.7279,-4.7309,-4.7309,-4.7309,-4.6651,-4.5963,-4.5274,-4.4616,-4.3917,-4.329,-4.329,-4.329,-4.329,-4.329,-4.329,-4.329,-4.329,-4.329,-4.329,-4.329,-4.329,-4.329,-4.329,-4.329,-4.329,-4.701,-4.6621,-4.6112,-4.5424,0.0,-4.677,-4.8087,-4.87,-4.9539,0.0,-5.1409,0.0,0.0,-5.467,-5.464,0.0,0.0,-5.3743,-5.1977,-5.105,0.0,-5.0242,-4.8745,-4.7938,0.0,-4.686,-4.5633,-4.4317,-4.4077,-4.3708,-4.329,-4.329,-4.329,-4.3319,-4.4018,-4.4556,0.0,0.0,0.0,0.0,0.0,-4.8087,-4.9269,0.0,0.0,-4.689,-4.6202,-4.5125,0.0,-4.3947,-4.3848,-4.3654,-4.3369,-4.3488,-4.381,-4.432,-4.451,0.0,0.0,0.0,-4.6134,-4.6401,0.0,0.0,0.0,0.0,0.0,0.0,0.0,0.0,0.0,0.0,0.0,0.0,0.0,0.0,0.0,0.0,0.0,0.0,0.0,0.0,0.0,0.0,0.0,0.0,-4.3269,0.0,0.0,-4.6381,-4.686,-4.6681,-4.707,-4.71,-4.6651,-4.6399,-4.5753,-4.4646,-4.4436,-4.3917,-4.329,-4.329,-4.329,-4.329,-4.329,-4.329,-4.329,-4.329,-4.329,-4.329,-4.329,-4.321,-4.313,-4.325,-4.329,-4.329,-4.7668,-4.7309,0.0,0.0,0.0,-4.7399,-4.8476,-4.9404,0.0,0.0,-5.2755,0.0,-5.6795,0.0,-5.6226,0.0,-5.6637,-5.5359,-5.3384,-5.2815,0.0,-5.1588,-5.0541,0.0,0.0,-4.8237,-4.689,-4.5394,-4.4885,-4.4317,-4.3648,-4.3409,-4.329,-4.3319,-4.4018,-4.4676,-4.5304,-4.5544,-4.6052,0.0,0.0,-4.8147,0.0,0.0,-4.8237,-4.7219,0.0,-4.5603,-4.4676,-4.4676,-4.4227,-4.3648,-4.3648,-4.3469,-4.3409,-4.3927,-4.4082,-4.4243,-4.5073,-4.5258,0.0,-4.6518,-4.6243,0.0,-4.612,0.0,0.0,0.0,0.0,0.0,0.0,0.0,0.0,0.0,0.0,0.0,0.0,0.0,0.0,0.0,0.0,0.0,0.0,0.0,-4.0756,-4.1632,0.0,0.0,0.0,0.0,-4.686,-4.6681,-4.707,-4.698,-4.6279,-4.6082,-4.5394,-4.4317,-4.4077,-4.3708,-4.329,-4.329,-4.329,-4.329,-4.329,-4.329,-4.329,-4.329,-4.329,-4.329,-4.321,-4.313,-4.3021,-4.317,-4.313,-4.305,-4.8327,-4.8356,0.0,0.0,-4.7908,0.0,0.0,0.0,-5.1708,0.0,-5.3892,-5.5089,-5.6974,-5.7184,-5.7693,-5.8949,-5.7363,-5.6017,-5.5299,-5.4042,0.0,0.0,-5.1708,-5.1319,-5.1319,0.0,0.0,-4.7309,-4.5963,-4.4975,-4.4317,-4.3589,-4.329,-4.3319,-4.3988,0.0,-4.5334,-4.5992,-4.6681,-4.7369,-4.7997,-4.8237,-4.8237,-4.8237,-4.7848,-4.7219,-4.6591,-4.5933,-4.5334,-4.5334,-4.4885,-4.4317,-4.4317,-4.3828,-4.329,-4.329,-4.329,-4.3488,-4.4205,-4.4434,-4.4812,-4.6308,0.0,0.0,0.0,0.0,-4.6877,0.0,0.0,0.0,0.0,0.0,0.0,0.0,0.0,0.0,0.0,0.0,0.0,0.0,0.0,0.0,0.0,-4.0038,-4.0397,-4.0457,-4.2222,0.0,0.0,0.0,-4.6561,-4.7249,-4.7249,-4.695,-4.6249,-4.5603,-4.4915,-4.4257,-4.3589,-4.329,-4.329,-4.329,-4.329,-4.329,-4.329,-4.329,-4.329,-4.329,-4.329,-4.329,-4.3061,-4.2981,-4.2981,-4.2981,-4.289,-4.2688,-4.906,-4.9404,-4.9628,0.0,-4.8805,-4.8686,0.0,0.0,0.0,0.0,-5.5658,-5.6915,-5.8411,-5.859,-5.853,-5.8381,-5.8351,0.0,0.0,0.0,0.0,-5.5149,-5.3563,-5.2665,-5.2665,-5.075,0.0,-4.7309,0.0,-4.4975,-4.4317,0.0,0.0,0.0,0.0,0.0,-4.5304,-4.5484,-4.6232,-4.7309,-4.7489,-4.7549,0.0,0.0,-4.7459,-4.7279,-4.713,-4.6621,-4.6052,-4.6052,-4.5274,-4.4317,-4.4317,-4.3828,-4.329,-4.329,-4.329,-4.3329,-4.3536,-4.3606,-4.3849,-4.4849,-4.4954,-4.4888,0.0,0.0,0.0,0.0,0.0,0.0,0.0,0.0,0.0,0.0,0.0,0.0,0.0,0.0,0.0,0.0,0.0,0.0,0.0,0.0,-4.0606,-4.1085,0.0,0.0,0.0,0.0,0.0,-4.6561,-4.6591,-4.6232,-4.5574,-4.4885,-4.4227,-4.3529,-4.3379,-4.329,-4.329,-4.329,-4.329,-4.329,-4.329,-4.329,-4.329,-4.329,-4.329,-4.329,-4.3061,-4.2809,-4.2566,-4.2729,-4.2729,-4.2688,-5.0062,0.0,0.0,-5.1468,0.0,0.0,-5.1409,-5.1588,0.0,-5.488,-5.6077,0.0,-5.8112,-5.874,-5.8949,-5.859,-5.862,0.0,-5.6675,0.0,0.0,-5.5777,-5.494,-5.4221,-5.3653,-5.2247,0.0,-4.8596,0.0,0.0,-4.4736,0.0,0.0,0.0,0.0,-4.3858,-4.4915,-4.5484,-4.6172,-4.689,-4.7189,0.0,0.0,-4.7309,-4.7309,-4.7309,-4.7309,-4.707,-4.6741,-4.6741,-4.6052,-4.5125,-4.4825,-4.4287,-4.3678,-4.3379,-4.329,-4.329,-4.329,-4.329,-4.3488,-4.4282,-4.451,-4.4606,-4.4975,-4.5734,-4.6212,0.0,0.0,0.0,0.0,0.0,0.0,0.0,0.0,0.0,0.0,0.0,0.0,0.0,0.0,0.0,0.0,0.0,0.0,0.0,0.0,0.0,0.0,0.0,0.0,-4.5382,-4.5723,-4.5544,-4.4885,-4.4496,-4.3947,-4.329,-4.329,-4.329,-4.329,-4.329,-4.329,-4.329,-4.329,-4.329,-4.329,-4.329,-4.325,-4.313,-4.285,-4.2555,-4.2298,-4.2685,-4.2667,-4.2462,-5.1379,0.0,0.0,0.0,0.0,0.0,0.0,-5.3144,0.0,-5.5209,0.0,-5.6765,-5.7304,-5.8411,-5.9099,-5.9099,0.0,-5.7962,-5.7274,-5.7244,-5.6705,-5.5478,-5.5897,-5.5628,-5.4491,-5.3533,-5.2187,0.0,0.0,0.0,0.0,0.0,0.0,0.0,0.0,0.0,0.0,-4.5741,-4.6339,-4.6459,-4.707,-4.7309,-4.7309,-4.7399,-4.7369,-4.7309,-4.7399,-4.7369,-4.7309,-4.7309,-4.686,-4.619,-4.5603,-4.4915,-4.4197,-4.3589,-4.3349,-4.329,-4.329,-4.329,-4.3488,-4.4197,-4.432,-4.451,-4.5221,-4.5478,-4.5551,-4.5551,-4.5624,-4.5697,0.0,0.0,0.0,0.0,0.0,0.0,0.0,0.0,0.0,0.0,0.0,0.0,0.0,0.0,0.0,0.0,0.0,0.0,0.0,0.0,0.0,-4.4317,-4.4855,0.0,-4.4317,0.0,-4.3898,-4.329,-4.329,-4.329,-4.329,-4.329,-4.329,-4.329,-4.329,-4.329,-4.329,-4.325,-4.313,-4.289,-4.2555,-4.2327,-4.2266,-4.2789,-4.2731,-4.2411,-5.2815,0.0,0.0,0.0,0.0,-5.5179,-5.6256,-5.5867,-5.5777,-5.6645,-5.7842,-5.862,-5.874,-5.8949,-5.9099,-5.9099,-5.9009,0.0,0.0,0.0,0.0,-5.6795,-5.6376,-5.6128,-5.5837,-5.3563,-5.1947,0.0,0.0,0.0,0.0,0.0,0.0,0.0,0.0,0.0,-4.5185,-4.5992,0.0,-4.716,-4.7249,-4.7309,-4.7369,-4.7908,-4.7788,-4.7369,-4.7908,-4.7758,-4.7309,-4.7309,-4.686,-4.6249,-4.613,-4.5304,-4.4287,-4.4167,-4.3708,-4.329,-4.329,-4.329,-4.3329,-4.3488,-4.3527,-4.3566,-4.3693,-4.4205,-4.4699,-4.4699,-4.5258,-4.5697,-4.5697,0.0,0.0,0.0,0.0,0.0,0.0,0.0,0.0,0.0,0.0,0.0,0.0,0.0,0.0,0.0,0.0,0.0,0.0,0.0,0.0,0.0,-4.4436,0.0,0.0,0.0,-4.3409,-4.329,-4.329,-4.329,-4.329,-4.329,-4.329,-4.329,-4.329,-4.329,-4.329,-4.313,-4.285,-4.2514,-4.2433,-4.259,-4.2847,-4.2963,-4.3282,-4.3689,0.0,0.0,0.0,0.0,0.0,0.0,0.0,-5.7663,0.0,-5.7154,-5.7663,-5.8052,-5.8052,-5.868,-5.9099,-5.9099,-5.9099,-5.8979,-5.865,-5.8321,-5.7992,-5.7633,-5.7004,0.0,-5.6248,-5.4251,-5.2576,-5.1229,0.0,0.0,0.0,0.0,0.0,0.0,0.0,-4.4197,0.0,0.0,0.0,-4.683,-4.716,-4.7519,-4.7848,-4.8177,-4.8297,-4.8327,-4.8297,-4.8087,-4.7758,-4.7429,-4.71,-4.677,-4.6399,-4.5873,-4.5173,-4.4526,-4.4077,-4.3738,-4.3379,-4.329,-4.329,-4.329,-4.329,-4.329,-4.329,-4.3576,-4.3888,-4.3888,-4.4197,-4.4586,-4.4999,-4.4793,0.0,0.0,0.0,0.0,0.0,0.0,0.0,0.0,0.0,0.0,0.0,0.0,0.0,0.0,0.0,0.0,0.0,0.0,0.0,0.0,0.0,0.0,0.0,0.0,0.0,-4.329,-4.329,-4.329,-4.329,-4.329,-4.329,-4.329,-4.329,-4.325,-4.313,-4.2809,-4.2566,-4.2421,-4.2619,-4.2815,-4.3079,-4.3718,-4.4182,-4.4443,0.0,-5.5029,0.0,0.0,-5.6885,0.0,-5.8052,-5.868,-5.871,-5.7663,-5.7513,-5.7513,-5.7513,-5.8471,-5.9099,-5.9099,-5.9099,-5.9099,-5.9099,-5.862,-5.8261,-5.8141,-5.7603,-5.7004,-5.6376,-5.5089,-5.3503,0.0,0.0,0.0,0.0,0.0,0.0,0.0,0.0,0.0,0.0,0.0,-4.6578,-4.68,-4.7459,-4.8027,-4.8506,-4.8656,-4.8925,-4.9269,-4.8835,-4.8536,-4.8207,-4.7698,-4.7429,-4.7219,-4.6681,-4.6399,-4.607,-4.5035,-4.4526,-4.4197,-4.3648,-4.3409,-4.329,-4.329,-4.329,-4.329,-4.329,-4.329,-4.329,-4.329,-4.329,-4.3566,-4.4358,-4.4358,0.0,0.0,0.0,0.0,0.0,0.0,0.0,0.0,0.0,0.0,0.0,0.0,0.0,0.0,0.0,0.0,-3.9619,-4.0127,0.0,0.0,0.0,-4.265,-4.312,0.0,-4.329,0.0,-4.329,-4.329,-4.329,-4.329,-4.329,-4.325,-4.325,-4.309,-4.285,-4.2555,-4.2351,-4.2368,-4.2698,-4.2963,-4.3311,-4.4327,-4.4879,-4.5082,0.0,0.0,0.0,0.0,0.0,0.0,-5.8112,-5.868,-5.9069,-5.8919,-5.8919,-5.8919,-5.8919,-5.9039,-5.9099,-5.9099,-5.9099,-5.9099,-5.9099,-5.9039,-5.874,-5.8141,-5.8052,-5.7723,-5.7034,-5.5748,-5.4401,0.0,0.0,0.0,0.0,0.0,0.0,0.0,0.0,0.0,0.0,-4.692,-4.7549,-4.8147,-4.885,-4.9179,-4.9269,-4.9823,-4.9733,-4.9389,-4.9853,-4.9284,-4.8267,-4.8207,-4.7788,-4.7309,-4.7249,-4.68,-4.6249,-4.613,-4.5274,-4.4317,-4.4227,-4.3738,-4.329,-4.329,-4.329,-4.329,-4.329,-4.329,-4.329,-4.329,-4.329,-4.3566,-4.4358,-4.3888,-4.3654,0.0,0.0,0.0,0.0,0.0,0.0,0.0,0.0,0.0,0.0,0.0,0.0,0.0,0.0,0.0,-4.0277,-4.0367,-4.0696,-4.1392,0.0,-4.244,-4.25,-4.303,-4.329,-4.329,-4.329,-4.329,-4.329,-4.329,-4.321,-4.3021,-4.3021,-4.2809,-4.2474,-4.2433,-4.2269,-4.2133,-4.215,-4.2876,-4.3921,-4.4037,-4.4821,-4.5808,0.0,0.0,0.0,0.0,0.0,0.0,0.0,-5.8949,-5.9099,-5.9099,-5.9099,-5.9099,-5.9099,-5.9099,-5.9099,-5.9099,-5.9099,-5.9099,-5.9099,-5.9099,-5.8979,-5.871,-5.8321,-5.7992,-5.7723,-5.6047,-5.4521,0.0,0.0,-4.9388,-4.7878,0.0,0.0,0.0,0.0,-4.686,-4.7549,-4.8207,-4.867,-4.894,-4.9209,-4.9494,-4.9883,-5.0106,-5.0331,-5.0421,-5.0255,-4.9867,-4.9404,-4.9015,-4.8177,-4.7309,-4.7309,-4.713,-4.683,-4.6441,-4.5891,-4.5334,-4.4526,-4.4107,-4.3798,-4.3379,-4.329,-4.329,-4.329,-4.329,-4.329,-4.329,-4.329,-4.3409,-4.3732,-4.3527,-4.3409,0.0,0.0,0.0,0.0,0.0,0.0,0.0,0.0,-4.2051,0.0,0.0,0.0,0.0,0.0,0.0,0.0,0.0,0.0,-4.0786,0.0,-4.241,-4.241,-4.3,-4.329,-4.329,-4.317,-4.313,-4.313,-4.301,-4.289,-4.2809,-4.2688,-4.2555,-4.2392,-4.2269,-4.2378,-4.2673,-4.3079,-4.3776,-4.4589,-4.4966,-4.5459,-4.5895,-5.7363,0.0,-5.7603,0.0,-5.8411,-5.856,-5.9039,-5.9099,-5.9099,-5.9099,-5.9099,-5.9099,-5.9099,-5.9099,-5.9099,-5.9099,-5.9099,-5.9099,-5.9099,-5.9099,-5.9099,-5.9099,-5.865,0.0,-5.8112,-5.6765,-5.5299,-5.3773,-5.2187,0.0,-4.9105,0.0,0.0,0.0,-4.7668,-4.8147,-4.8626,-4.9284,-4.9553,-4.9583,-4.9763,-5.0122,-5.0495,-5.0495,-5.0764,-5.1169,-5.0644,-5.0345,-5.0106,-4.9703,-4.8805,-4.7848,-4.7668,-4.7459,-4.7219,-4.6741,-4.6429,-4.607,-4.5155,-4.4766,-4.4436,-4.3738,-4.3589,-4.3529,-4.3349,-4.329,-4.329,-4.329,-4.329,-4.329,-4.329,-4.329,-4.329,-4.329,0.0,0.0,0.0,0.0,0.0,0.0,-4.2611,-4.1931,-4.1482,0.0,0.0,0.0,0.0,0.0,0.0,0.0,0.0,0.0,0.0,0.0,0.0,-4.2921,-4.321,-4.321,-4.301,-4.29,-4.29,-4.2688,-4.2607,-4.2607,-4.2392,-4.231,-4.2298,-4.2349,-4.2615,-4.305,-4.3718,-4.4356,-4.4937,-4.543,-4.5721,-4.5895,-5.7992,-5.8112,-5.8321,-5.8979,-5.9099,-5.9099,-5.9099,-5.9099,-5.9099,-5.9099,-5.9099,-5.9099,-5.9099,-5.9099,-5.9099,-5.9099,-5.9099,-5.9099,-5.9099,-5.9099,-5.9099,0.0,0.0,-5.88,-5.8141,-5.8112,-5.7124,-5.5179,0.0,0.0,-5.1139,0.0,-4.9269,-4.9269,-4.9269,-4.9299,-4.9329,-4.9942,-5.0196,-5.0255,-5.0883,-5.1199,-5.1199,-5.1199,-5.1199,-5.1229,-5.1199,-5.0734,-5.0196,-5.0196,-4.9793,-4.9179,-4.8476,-4.7818,-4.7309,-4.7309,-4.683,-4.6279,-4.6249,-4.5813,-4.5125,-4.4466,-4.4317,-4.4137,-4.3439,-4.329,-4.329,-4.329,-4.329,-4.329,-4.329,-4.329,-4.329,-4.329,0.0,0.0,0.0,0.0,0.0,0.0,-4.2192,-4.1384,-4.1422,0.0,0.0,0.0,0.0,0.0,0.0,0.0,0.0,-4.1392,-4.2051,0.0,-4.241,-4.2803,-4.2981,-4.2981,-4.2809,-4.2688,-4.2688,-4.2514,-4.2392,-4.2392,-4.2216,-4.2092,-4.215,-4.2731,-4.2992,-4.305,-4.3718,-4.4356,-4.4879,-4.4908,-4.5314,-4.5895,-5.874,-5.88,-5.886,-5.9069,-5.9099,-5.9099,-5.9099,-5.9099,-5.9099,-5.9099,-5.9099,-5.9099,-5.9099,-5.9099,-5.9099,0.0,-5.9099,-5.9099,0.0,-5.9099,-5.9099,-5.9099,-5.9099,-5.9009,-5.88,-5.8351,-5.7573,-5.6496,0.0,0.0,0.0,-5.081,-5.084,-5.1259,-5.081,-5.084,-5.1259,-5.102,-5.0853,-5.0883,-5.1139,-5.1229,-5.1229,-5.1229,-5.1229,-5.1229,-5.1229,-5.1079,-5.0853,-5.0853,-5.0481,-4.9883,-4.9673,-4.8865,-4.7878,-4.7429,-4.716,-4.689,-4.6399,-4.613,-4.5843,-4.5155,-4.4975,-4.4796,-4.4137,-4.3618,-4.329,-4.329,-4.329,-4.329,-4.329,-4.329,-4.3439,-4.3888,-4.4167,0.0,0.0,0.0,0.0,0.0,-4.2851,-4.2081,0.0,-4.1482,0.0,0.0,0.0,0.0,0.0,0.0,0.0,0.0,-4.2315,0.0,-4.2147,-4.2564,-4.2809,-4.2809,-4.2566,-4.2433,-4.2298,-4.2216,-4.2216,-4.2204,-4.2569,-4.2702,-4.276,-4.3398,-4.3921,-4.4298,-4.4531,-4.4995,-4.5576,-4.5576,-4.5721,-4.5895,-5.9099,-5.9099,-5.9099,-5.9099,-5.9099,-5.9099,-5.9099,-5.9099,-5.9099,-5.9099,-5.9099,-5.9099,-5.9099,-5.9099,0.0,-5.9099,-5.9099,-5.9099,-5.9099,-5.9099,-5.9099,-5.9099,-5.9099,-5.9099,-5.9099,0.0,0.0,-5.7483,-5.5538,-5.3803,-5.2336,-5.2067,-5.2187,-5.2546,-5.2127,-5.2187,-5.2516,-5.1858,-5.1588,-5.1558,-5.1319,-5.1229,-5.1229,-5.1229,-5.1229,-5.1229,-5.1229,-5.1229,-5.1229,-5.1229,-5.0913,-5.0524,-5.0255,-4.9628,-4.8895,-4.8237,-4.7878,-4.7578,-4.716,-4.689,-4.6531,-4.5843,-4.5693,-4.5514,-4.4825,-4.4167,-4.3678,-4.3678,-4.3469,-4.329,-4.329,-4.3499,-4.3798,-4.4257,-4.4736,-4.5214,-4.5633,0.0,0.0,0.0,0.0,0.0,0.0,-4.2021,0.0,0.0,0.0,0.0,0.0,0.0,0.0,-4.1628,-4.2525,0.0,-4.2268,-4.2482,-4.2566,-4.2566,-4.2392,-4.2216,-4.2121,-4.2324,-4.244,-4.2469,-4.3079,-4.3369,-4.3427,-4.4066,-4.456,-4.4908,-4.5169,-4.5518,-4.5895,-4.5895,-4.5895,-4.5895,-5.9099,-5.9099,0.0,0.0,-5.9099,0.0,-5.9099,-5.9099,-5.9099,-5.9099,-5.9099,-5.9099,-5.9099,-5.9099,-5.9099,-5.9099,0.0,0.0,0.0,-5.9099,-5.9099,-5.9099,-5.9099,-5.9099,-5.9099,-5.9099,-5.877,-5.8112,-5.6256,-5.4999,-5.4341,-5.3653,-5.3324,-5.3324,-5.3264,-5.3264,-5.3204,-5.2546,-5.2276,-5.2217,-5.1588,-5.1349,-5.1349,-5.1319,-5.1289,-5.1289,-5.1229,-5.1229,-5.1229,-5.1229,-5.1229,-5.1109,-5.0465,-5.0255,-5.0136,-4.9464,-4.888,-4.8356,-4.8297,-4.7848,-4.7219,-4.6561,-4.6309,-4.6142,-4.5514,-4.4855,-4.4377,-4.4317,-4.3828,-4.3409,-4.3379,-4.3928,-4.4407,-4.4436,-4.5514,-4.6279,-4.6279,0.0,0.0,0.0,0.0,0.0,0.0,-4.247,-4.2671,0.0,0.0,0.0,0.0,0.0,-4.1628,-4.2021,-4.2644,-4.289,-4.2688,-4.2474,-4.2392,-4.2392,-4.2204,-4.215,-4.2179,-4.2789,-4.305,-4.3108,-4.3776,-4.4066,-4.4095,-4.4705,-4.4966,-4.5024,-4.5634,-4.5895,-4.5895,-4.5895,-4.5895,-4.5895,0.0,0.0,-5.9099,-5.9099,-5.9099,-5.9099,-5.9099,-5.9099,-5.9099,-5.9099,-5.9099,-5.9099,-5.9099,-5.9099,-5.9099,-5.9099,-5.9099,-5.9099,-5.9099,-5.9099,-5.9099,-5.9099,-5.9099,-5.9099,-5.9099,-5.9099,-5.877,-5.8112,-5.7124,-5.6316,-5.5688,-5.5029,-5.473,-5.47,-5.4192,-5.3952,-5.3922,-5.3234,-5.2935,-5.2935,-5.2785,-5.2725,-5.2665,-5.2157,-5.1977,-5.1917,-5.1409,-5.1229,-5.1229,-5.1229,-5.1229,-5.1199,-5.0973,-5.0943,-5.075,-4.9613,-4.9209,-4.897,-4.8416,-4.8177,-4.7908,-4.7249,-4.6681,-4.6249,-4.6112,-4.5544,-4.4915,-4.4407,-4.4586,-4.4676,-4.4167,-4.4616,-4.5244,-4.5753,-4.607,-4.6279,-4.6279,-4.5723,0.0,0.0,-4.3599,-4.312,-4.312,-4.312,-4.297,0.0,0.0,0.0,0.0,-4.201,-4.205,-4.2503,-4.2548,-4.2514,-4.2474,-4.2269,-4.2175,-4.2175,-4.2598,-4.2789,-4.2789,-4.3456,-4.3747,-4.3805,-4.4414,-4.4676,-4.4734,-4.5372,-4.5663,-4.5663,-4.5837,-4.5895,-4.5895,-4.5895,-4.5895,-4.5895,-5.9099,-5.9099,-5.9099,-5.9099,-5.9099,-5.9099,-5.9099,-5.9099,-5.9099,-5.9099,-5.9099,-5.9099,-5.9099,-5.9099,-5.9099,-5.9099,-5.9099,-5.9099,-5.9099,-5.9099,-5.9099,-5.9099,-5.9099,-5.9099,-5.9099,-5.9099,-5.877,-5.8112,-5.7752,-5.7244,-5.6585,-5.5957,-5.5658,-5.5598,-5.497,-5.467,-5.461,-5.3922,-5.3653,-5.3623,-5.3294,-5.3174,-5.3144,-5.2785,-5.2665,-5.2606,-5.2247,-5.2127,-5.2067,-5.1768,-5.1678,-5.1618,-5.1319,-5.1229,-5.1079,-5.0361,-4.9942,-4.9643,-4.9284,-4.8955,-4.8566,-4.7908,-4.7249,-4.677,-4.677,-4.6262,-4.5663,-4.5304,-4.5274,-4.5185,-4.4825,-4.5304,-4.5903,-4.6219,-4.6237,-4.6194,-4.6279,-4.5287,0.0,-4.4306,-4.3638,-4.317,-4.317,-4.317,-4.2981,-4.2545,0.0,0.0,-4.2197,-4.2158,-4.2294,-4.2566,-4.2474,-4.2351,-4.2228,-4.2133,-4.2092,-4.2121,-4.2702,-4.2992,-4.3021,-4.3979,-4.4414,-4.4443,-4.5082,-4.5343,-4.5372,-4.5721,-4.5895,-4.5895,-4.5895,-4.5895,-4.5895,-4.5895,-4.5895,-4.5895,-5.9099,-5.9099,-5.9099,-5.9099,-5.9099,-5.9099,-5.9099,-5.9099,-5.9099,-5.9099,-5.9099,-5.9099,-5.9099,-5.9099,-5.9099,-5.9099,-5.9099,-5.9099,-5.9099,-5.9099,-5.9099,-5.9099,-5.9099,-5.9099,-5.9099,-5.9099,-5.883,-5.8261,-5.8171,-5.7812,-5.7244,-5.6496,-5.6218,-5.6188,-5.5478,-5.5179,-5.5149,-5.4581,-5.4371,-5.4311,-5.3713,-5.3473,-5.3473,-5.3384,-5.3324,-5.3324,-5.3204,-5.3174,-5.3084,-5.2546,-5.2336,-5.2247,-5.1678,-5.1498,-5.1498,-5.1379,-5.0913,-5.0435,-5.0255,-4.9763,-4.9179,-4.8566,-4.7938,-4.7459,-4.7415,-4.6907,-4.6399,-4.6267,-4.5891,-4.5574,-4.5454,-4.6022,-4.6429,-4.6429,-4.6271,-4.6126,-4.6117,0.0,-4.3885,-4.4035,-4.3418,-4.2941,-4.2941,-4.2941,-4.286,-4.2729,-4.2688,-4.2607,0.0,-4.2392,-4.2392,-4.2351,-4.2351,-4.2269,-4.2092,-4.2092,-4.2092,-4.2121,-4.2818,-4.3137,-4.3195,-4.4472,-4.5024,-4.5053,-4.5634,-4.5895,-4.5895,-4.5895,-4.5895,-4.5895,-4.5895,-4.5776,-4.564,-4.564,-4.5549,-4.5458,-5.9099,-5.9099,-5.9099,-5.9099,-5.9099,-5.9099,-5.9099,-5.9099,-5.9099,-5.9099,-5.9099,-5.9099,-5.9099,-5.9099,-5.9099,-5.9099,-5.9099,-5.9099,-5.9099,-5.9099,-5.9099,-5.9099,-5.9099,-5.9099,-5.9099,-5.9099,-5.9069,-5.8949,-5.8411,-5.8082,-5.7932,-5.6735,-5.6218,-5.6188,-5.5478,-5.5179,-5.5179,-5.5089,-5.5029,-5.5029,-5.491,-5.488,-5.482,-5.4251,-5.4042,-5.3982,-5.3384,-5.3174,-5.3174,-5.3054,-5.3025,-5.3025,-5.2905,-5.2875,-5.2755,-5.2217,-5.1977,-5.1648,-5.0495,-4.9763,-4.9299,-4.9179,-4.8626,-4.8103,-4.7852,-4.7477,-4.6967,-4.6185,-4.6552,-4.683,-4.6262,-4.6711,-4.716,-4.716,-4.6913,-4.6397,-4.534,0.0,-4.4074,-4.3064,-4.2828,-4.2729,-4.2729,-4.2729,-4.2729,-4.2688,-4.2688,-4.2607,-4.2392,-4.2392,-4.231,-4.2133,-4.2133,-4.2133,-4.2092,-4.2092,-4.2092,-4.2121,-4.3282,-4.3834,-4.3892,-4.514,-4.5721,-4.575,-4.5837,-4.5895,-4.5895,-4.5895,-4.5895,-4.5895,-4.5895,-4.5338,-4.4545,-4.4545,-4.4031,-4.3273,-5.9099,-5.9099,-5.9099,-5.9099,-5.9099,-5.9099,-5.9099,-5.9099,-5.9099,-5.9099,-5.9099,-5.9099,-5.9099,-5.9099,-5.9099,-5.9099,-5.9099,-5.9099,-5.9099,-5.9099,-5.9099,-5.9099,-5.9099,-5.9099,-5.9099,-5.9099,-5.9099,-5.9099,-5.88,-5.865,-5.862,-5.7663,-5.7034,-5.6645,-5.6017,-5.5538,-5.5179,-5.5179,-5.5179,-5.5179,-5.5179,-5.5179,-5.5149,-5.485,-5.473,-5.47,-5.4371,-5.4281,-5.4221,-5.3862,-5.3743,-5.3683,-5.3294,-5.3174,-5.3114,-5.2815,-5.2217,-5.1528,-5.0883,-5.0209,-4.9656,-4.9747,-4.9224,-4.8581,-4.8446,-4.803,-4.7509,-4.7124,-4.6991,-4.6842,-4.6675,-4.6797,-4.6917,-4.6917,-4.6416,0.0,0.0,-4.4507,-4.4014,-4.3296,-4.3419,-4.3436,-4.3043,-4.3013,-4.2825,-4.2421,-4.2392,-4.2351,-4.2257,-4.2257,-4.2216,-4.2092,-4.2092,-4.2092,-4.2092,-4.2411,-4.2586,-4.2586,-4.3863,-4.4472,-4.4501,-4.5459,-4.5895,-4.5895,-4.5895,-4.5895,-4.5895,-4.5895,-4.5549,-4.5035,-4.5035,-4.4406,-4.3511,-4.3511,-4.3225,-4.2792,-5.9099,-5.9099,-5.9099,-5.9099,-5.9099,-5.9099,-5.9099,-5.9099,-5.9099,-5.9099,-5.9099,-5.9099,-5.9099,-5.9099,-5.9099,-5.9099,-5.9099,-5.9099,-5.9099,-5.9099,-5.9099,-5.9099,-5.9099,-5.9099,-5.9099,-5.9099,-5.9099,-5.9099,-5.9099,-5.9099,-5.9099,-5.8441,-5.7752,-5.7064,-5.6436,-5.5807,-5.5179,-5.5179,-5.5179,-5.5179,-5.5179,-5.5179,-5.5179,-5.5179,-5.5179,-5.5179,-5.5179,-5.5179,-5.5119,-5.461,-5.4431,-5.4341,-5.3803,-5.3653,-5.3623,-5.3394,-5.2461,-5.1429,-5.113,-5.059,-5.0156,-5.0249,-4.9651,-4.8992,-4.8946,-4.8488,-4.803,-4.794,-4.7465,-4.7037,-4.7037,-4.6904,-4.6757,-4.6609,0.0,0.0,0.0,-4.4442,-4.4079,-4.3805,-4.4073,-4.4033,-4.3494,-4.3436,-4.3131,-4.2353,-4.2295,-4.2295,-4.2295,-4.2295,-4.2382,-4.2528,-4.2382,-4.2382,-4.2528,-4.2992,-4.3224,-4.3224,-4.4356,-4.4879,-4.4908,-4.5576,-4.5895,-4.5895,-4.564,-4.5549,-4.5504,-4.5293,-4.4712,-4.3937,-4.3937,-4.3321,-4.2452,-4.2452,-4.2257,-4.2061,-5.9099,-5.9099,-5.9099,-5.9099,-5.9099,-5.9099,-5.9099,-5.9099,-5.9099,-5.9099,-5.9099,-5.9099,-5.9099,-5.9099,-5.9099,-5.9099,-5.9099,-5.9099,-5.9099,-5.9099,-5.9099,-5.9099,-5.9099,-5.9099,-5.9099,-5.9099,-5.9099,-5.9099,-5.9099,-5.9099,-5.9099,-5.8441,-5.7752,-5.7064,-5.6436,-5.5807,-5.5179,-5.5179,-5.5179,-5.5179,-5.5179,-5.5179,-5.5179,-5.5179,-5.5179,-5.5179,-5.5179,-5.5179,-5.5179,-5.5119,-5.5119,-5.5119,-5.5059,-5.5029,-5.4859,-5.3982,-5.3079,-5.2053,-5.0873,-5.0632,-5.0686,-5.0508,-4.9958,-4.941,-4.9145,-4.8769,-4.8391,-4.816,-4.8223,-4.8155,-4.7537,-4.7448,-4.7242,-4.6698,0.0,0.0,-4.5332,-4.4996,-4.4632,-4.4051,-4.3993,-4.4022,-4.3964,-4.3964,-4.3673,-4.2963,-4.2934,-4.2934,-4.2934,-4.2934,-4.3224,-4.3834,-4.3253,-4.3224,-4.3834,-4.3892,-4.3921,-4.3921,-4.4589,-4.4879,-4.4908,-4.5576,-4.5895,-4.5821,-4.4851,-4.4406,-4.4359,-4.3416,-4.2985,-4.2937,-4.2937,-4.2257,-4.1319,-4.1319,-4.0743,-3.9929,-5.9099,-5.9099,-5.9099,-5.9099,-5.9099,-5.9099,-5.9099,-5.9099,-5.9099,-5.9099,-5.9099,-5.9099,-5.9099,-5.9099,-5.9099,-5.9099,-5.9099,-5.9099,-5.9099,-5.9099,-5.9099,-5.9099,-5.9099,-5.9099,-5.9099,-5.9099,-5.9099,-5.9099,-5.9099,-5.9099,-5.9099,-5.886,-5.8381,-5.7723,-5.7483,-5.7004,-5.6376,-5.6376,-5.6376,-5.6376,-5.6376,-5.6137,-5.5807,-5.5807,-5.5538,-5.5179,-5.5006,-5.5057,-5.5179,-5.5006,-5.4955,-5.4955,-5.4955,-5.4824,-5.4471,-5.3567,-5.3162,-5.2729,-5.1549,-5.1092,-5.0875,-5.0589,-5.0199,-4.985,-4.9754,-4.9303,-4.8834,-4.8741,-4.8372,-4.8021,-4.7896,-4.7407,-4.6966,-4.6778,0.0,-4.5768,-4.5171,-4.5345,-4.5256,-4.4618,-4.4908,-4.4995,-4.4589,-4.456,-4.4298,-4.366,-4.3602,-4.3602,-4.3602,-4.3602,-4.3892,-4.4531,-4.4298,-4.4095,-4.3979,-4.4356,-4.456,-4.456,-4.5198,-4.5518,-4.5518,-4.5087,-4.4897,-4.4851,-4.3843,-4.3368,-4.3368,-4.2985,-4.2404,-4.1815,-4.1815,-4.1169,-4.0262,-4.0262,-4.0032,-3.9697,-5.9099,-5.9099,-5.9099,-5.9099,-5.9099,-5.9099,-5.9099,-5.9099,-5.9099,-5.9099,-5.9099,-5.9099,-5.9099,-5.9099,-5.9099,-5.9099,-5.9099,-5.9099,-5.9099,-5.9099,-5.9099,-5.9099,-5.8743,-5.8689,-5.9099,-5.8689,-5.8689,-5.9099,-5.9099,-5.9099,-5.9099,-5.9099,-5.874,-5.8058,-5.7737,-5.7351,-5.7094,-5.6727,-5.675,-5.7094,-5.7094,-5.6825,-5.6466,-5.6466,-5.6196,-5.5726,-5.55,-5.5351,-5.5326,-5.5048,-5.4797,-5.4619,-5.4619,-5.4436,-5.4061,-5.3444,-5.3327,-5.318,-5.218,-5.1686,-5.1362,-5.071,-5.0262,-4.999,-4.999,-4.9639,-4.9289,-4.927,-4.8825,-4.8352,-4.829,-4.7817,-4.73,-4.7143,-4.6592,-4.6011,-4.5547,-4.5721,-4.5721,-4.5256,-4.5605,-4.5721,-4.5256,-4.5198,-4.4937,-4.4327,-4.4269,-4.4269,-4.4269,-4.4472,-4.4763,-4.5198,-4.5198,-4.4995,-4.4589,-4.4995,-4.5198,-4.5198,-4.5663,-4.573,-4.5384,-4.4666,-4.4125,-4.3796,-4.2716,-4.2306,-4.2257,-4.1963,-4.1369,-4.0743,-4.0743,-4.0313,-3.9697,-3.9697,-3.9697,-3.9697,-5.9099,-5.9099,-5.9099,-5.9099,-5.9099,-5.9099,-5.9099,-5.9099,-5.9099,-5.9099,-5.9099,-5.9099,-5.9099,-5.9099,-5.9099,-5.9099,-5.9099,-5.9099,-5.9099,-5.9099,-5.9045,-5.9045,-5.786,-5.7804,-5.9045,-5.786,-5.7804,-5.9045,-5.9045,-5.9045,-5.9045,-5.9099,-5.8716,-5.8035,-5.6841,-5.6623,-5.6989,-5.5791,-5.6006,-5.7124,-5.7124,-5.7094,-5.7094,-5.7094,-5.7094,-5.7042,-5.6786,-5.6235,-5.5671,-5.5358,-5.4864,-5.4304,-5.4304,-5.4097,-5.3919,-5.3919,-5.371,-5.3384,-5.2746,-5.2623,-5.2304,-5.1054,-5.0211,-4.9746,-4.9717,-4.9717,-4.9717,-4.9717,-4.9717,-4.9494,-4.8856,-4.8663,-4.8508,-4.7898,-4.7259,-4.6778,-4.6778,-4.6272,-4.5895,-4.5895,-4.5895,-4.5895,-4.5895,-4.5895,-4.5605,-4.4937,-4.4908,-4.4908,-4.4908,-4.5518,-4.5895,-4.5895,-4.5895,-4.5895,-4.5895,-4.5895,-4.5895,-4.5895,-4.5895,-4.5338,-4.4312,-4.4266,-4.3748,-4.2744,-4.1667,-4.1169,-4.1119,-4.0134,-3.9697,-3.9697,-3.9697,-3.9697,-3.9697,-3.9697,-3.9697,-3.9697,-5.9099,-5.9099,-5.9099,-5.9099,-5.9099,-5.9099,-5.9099,-5.9099,-5.9099,-5.9099,-5.9099,-5.9099,-5.9099,-5.9099,-5.9099,-5.9099,-5.9099,-5.8743,-5.786,-5.6934,-5.6509,-5.6509,-5.6934,-5.6991,-5.648,-5.6136,-5.6136,-5.6509,-5.6509,-5.6509,-5.6509,-5.7384,-5.7185,-5.6222,-5.6702,-5.7006,-5.7134,-5.6609,-5.7192,-5.8501,-5.8286,-5.791,-5.7494,-5.7494,-5.7119,-5.6521,-5.6172,-5.6108,-5.6067,-5.5771,-5.5518,-5.5283,-5.4661,-5.4357,-5.4216,-5.3751,-5.3553,-5.3471,-5.3297,-5.2891,-5.2304,-5.1054,-5.056,-5.0299,-4.9785,-4.9717,-4.9717,-4.9717,-4.9717,-4.9611,-4.9436,-4.903,-4.8653,-4.8478,-4.7898,-4.7346,-4.6836,-4.6633,-4.6388,-4.5924,-4.5895,-4.5895,-4.5895,-4.5895,-4.5808,-4.5605,-4.5576,-4.5576,-4.5576,-4.5779,-4.5895,-4.5895,-4.5895,-4.5895,-4.5895,-4.5895,-4.552,-4.4805,-4.4805,-4.4219,-4.3225,-4.2474,-4.1936,-4.1617,-4.0618,-4.0185,-4.0134,-3.9826,-3.9697,-3.9697,-3.9697,-3.9697,-3.9697,-3.9697,-3.9697,-3.9697,-5.9428,-5.9279,-5.9189,-5.9458,-5.9279,-5.9099,-5.9099,-5.9099,-5.9099,-5.9099,-5.9099,-5.8936,-5.8386,-5.8798,-5.8936,-5.8386,-5.8331,-5.7804,-5.6594,-5.579,-5.515,-5.4679,-5.5355,-5.5646,-5.5383,-5.4915,-5.4915,-5.5412,-5.5412,-5.5412,-5.5412,-5.6136,-5.6079,-5.5412,-5.5646,-5.5935,-5.628,-5.5588,-5.605,-5.7216,-5.7047,-5.6788,-5.6441,-5.6971,-5.6793,-5.6307,-5.6526,-5.6573,-5.6422,-5.6121,-5.5892,-5.5546,-5.5035,-5.4865,-5.4749,-5.411,-5.3907,-5.3849,-5.3588,-5.3239,-5.2688,-5.1672,-5.1083,-5.0618,-5.0211,-4.9921,-4.9717,-4.9717,-4.9717,-4.9717,-4.9717,-4.9349,-4.9117,-4.9117,-4.8566,-4.8014,-4.759,-4.7097,-4.6633,-4.6301,-4.604,-4.5895,-4.5895,-4.5895,-4.5895,-4.5895,-4.5895,-4.5895,-4.5895,-4.5895,-4.5895,-4.5895,-4.5895,-4.5685,-4.5293,-4.5293,-4.4943,-4.4312,-4.389,-4.3177,-4.2159,-4.1518,-4.0995,-4.0541,-3.9981,-3.9697,-3.9697,-3.9697,-3.9697,-3.9697,-3.9697,-3.9697,-3.9697,-3.9697,-3.9697,-3.9697,-5.9877,-5.9518,-5.9279,-5.9877,-5.9379,-5.8936,-5.8936,-5.8828,-5.8828,-5.8936,-5.8828,-5.8386,-5.7328,-5.8166,-5.8276,-5.716,-5.6905,-5.6394,-5.5267,-5.5091,-5.456,-5.3389,-5.3329,-5.3844,-5.4973,-5.3904,-5.3904,-5.5032,-5.5032,-5.5032,-5.5032,-5.5091,-5.5091,-5.4915,-5.3904,-5.3904,-5.4651,-5.3423,-5.3544,-5.4386,-5.4327,-5.4327,-5.4446,-5.5646,-5.605,-5.6194,-5.7105,-5.7038,-5.6517,-5.635,-5.5919,-5.5398,-5.5449,-5.5503,-5.5387,-5.4778,-5.4546,-5.4371,-5.3762,-5.3559,-5.3384,-5.2804,-5.1781,-5.083,-5.0763,-5.024,-4.9756,-4.9746,-4.9717,-4.9717,-4.9717,-4.9717,-4.9717,-4.9717,-4.9175,-4.8798,-4.8692,-4.7677,-4.6923,-4.6807,-4.633,-4.5953,-4.5895,-4.5895,-4.5895,-4.5895,-4.5895,-4.5895,-4.5895,-4.5805,-4.5776,-4.5895,-4.5805,-4.5293,-4.4312,-4.4219,-4.4125,-4.4031,-4.3081,-4.211,-4.1069,-4.1069,-4.0541,-3.9697,-3.9697,-3.9697,-3.9697,-3.9697,-3.9697,-3.9697,-3.9697,-3.9697,-3.9697,-3.9697,-3.9697,-3.9697,-5.9279,-5.9189,-5.9159,-5.9279,-5.8364,-5.7608,-5.7608,-5.6821,-5.6537,-5.7496,-5.6764,-5.648,-5.7131,-5.6594,-5.6079,-5.579,-5.4915,-5.4204,-5.3904,-5.2964,-5.2315,-5.2006,-5.2006,-5.2006,-5.2006,-5.2006,-5.213,-5.2439,-5.2439,-5.2315,-5.2068,-5.3025,-5.2842,-5.1669,-5.2658,-5.3059,-5.2971,-5.2807,-5.3329,-5.4386,-5.4116,-5.3997,-5.4057,-5.4327,-5.4295,-5.4144,-5.4323,-5.4359,-5.4366,-5.5273,-5.5535,-5.5509,-5.6039,-5.62,-5.6055,-5.5416,-5.4894,-5.4487,-5.4342,-5.3907,-5.3471,-5.3355,-5.2717,-5.1955,-5.0938,-5.0618,-5.0307,-4.9785,-4.9717,-4.9717,-4.9717,-4.9717,-4.9717,-4.9717,-4.9553,-4.9291,-4.8798,-4.8431,-4.7909,-4.6894,-4.6662,-4.6417,-4.5924,-4.5895,-4.5895,-4.5895,-4.5895,-4.5895,-4.5895,-4.511,-4.5035,-4.5866,-4.5081,-4.4545,-4.4312,-4.3511,-4.2668,-4.1838,-4.1667,-4.0995,-4.0032,-4.0032,-3.9929,-3.9697,-3.9697,-3.9697,-3.9697,-3.9697,-3.9697,-3.9697,-3.9697,-3.9697,-3.9697,-3.9697,-3.9697,-3.9697,-5.9518,-5.9308,-5.9189,-5.9518,-5.8232,-5.7187,-5.7187,-5.6194,-5.5616,-5.6251,-5.579,-5.5383,-5.5414,-5.5442,-5.515,-5.456,-5.3844,-5.3146,-5.2439,-5.1721,-5.1283,-5.1157,-5.1094,-5.1031,-5.0867,-5.1031,-5.1094,-5.1094,-5.1094,-5.1031,-5.0867,-5.1507,-5.1382,-5.0652,-5.1507,-5.1695,-5.1382,-5.1408,-5.1695,-5.2051,-5.1953,-5.1829,-5.1891,-5.2543,-5.2666,-5.2631,-5.3241,-5.351,-5.3631,-5.4263,-5.4501,-5.4564,-5.493,-5.502,-5.4879,-5.4232,-5.4233,-5.4337,-5.3737,-5.3798,-5.3907,-5.3588,-5.3268,-5.2775,-5.1788,-5.1352,-5.0946,-5.0278,-5.0211,-5.0095,-4.9776,-4.9717,-4.9717,-4.9717,-4.9717,-4.9553,-4.9233,-4.8914,-4.8431,-4.7764,-4.7155,-4.6592,-4.5953,-4.5895,-4.5895,-4.5895,-4.5429,-4.5338,-4.5895,-4.4897,-4.4545,-4.511,-4.4591,-4.3815,-4.2813,-4.2279,-4.1518,-4.0465,-4.0465,-4.0211,-3.9697,-3.9697,-3.9697,-3.9697,-3.9697,-3.9697,-3.9697,-3.9697,-3.9697,-3.9697,-3.9697,-3.9697,-3.9697,-3.9697,-3.9697,-3.9697,-5.9817,-5.9488,-5.9224,-5.9513,-5.81,-5.6792,-5.6622,-5.5472,-5.4738,-5.4973,-5.4797,-5.4323,-5.351,-5.4144,-5.4204,-5.3207,-5.3025,-5.2412,-5.112,-5.0994,-5.0867,-5.0588,-5.0588,-5.0588,-5.0525,-5.055,-5.0525,-5.0588,-5.0588,-5.0588,-5.055,-5.055,-5.0461,-5.0397,-5.0487,-5.0359,-5.0001,-5.0065,-4.9912,-4.959,-4.959,-4.959,-4.9719,-5.079,-5.1205,-5.133,-5.2447,-5.2815,-5.2903,-5.3059,-5.318,-5.318,-5.345,-5.351,-5.3402,-5.2826,-5.3378,-5.3915,-5.2798,-5.3131,-5.3751,-5.3124,-5.2976,-5.2799,-5.252,-5.2069,-5.1614,-5.0975,-5.083,-5.0627,-4.9959,-4.9892,-4.9814,-4.9698,-4.9717,-4.9717,-4.9717,-4.9233,-4.8856,-4.8692,-4.7561,-4.6592,-4.5953,-4.5895,-4.5821,-4.564,-4.4805,-4.4591,-4.5338,-4.4359,-4.3862,-4.4031,-4.389,-4.2958,-4.1219,-4.1219,-4.0693,-3.9697,-3.9697,-3.9697,-3.9697,-3.9697,-3.9697,-3.9697,-3.9697,-3.9697,-3.9697,-3.9697,-3.9697,-3.9697,-3.9697,-3.9697,-3.9697,-3.9697,-3.9697,-3.9697,-5.9219,-5.9159,-5.8773,-5.7781,-5.6537,-5.5267,-5.4204,-5.2658,-5.2068,-5.3207,-5.2377,-5.2006,-5.2964,-5.2253,-5.1596,-5.1408,-5.1157,-5.0905,-5.0652,-5.0677,-5.0652,-5.0588,-5.0588,-5.0487,-5.0168,-5.0168,-5.0295,-5.0588,-5.0588,-5.0487,-5.0168,-5.0168,-4.9976,-4.9719,-5.004,-4.9976,-4.9654,-5.0001,-4.9912,-4.959,-4.959,-4.959,-4.959,-4.9783,-4.9822,-4.9886,-5.0078,-5.0142,-5.0334,-5.1393,-5.1741,-5.1989,-5.312,-5.351,-5.3483,-5.3402,-5.3055,-5.2711,-5.2548,-5.1874,-5.117,-5.1088,-5.0761,-5.0629,-5.159,-5.2153,-5.2252,-5.1614,-5.1497,-5.1294,-5.0656,-5.054,-5.0336,-4.9805,-4.9717,-4.9717,-4.9717,-4.9611,-4.9349,-4.8798,-4.7561,-4.6592,-4.5953,-4.5895,-4.5549,-4.4591,-4.4359,-4.3984,-4.3273,-4.2208,-4.2061,-4.2985,-4.2084,-4.1468,-4.1219,-4.1219,-4.0693,-3.9697,-3.9697,-3.9697,-3.9697,-3.9697,-3.9697,-3.9697,-3.9697,-3.9697,-3.9697,-3.9697,-3.9697,-3.9697,-3.9697,-3.9697,-3.9697,-3.9697,-3.9697,-3.9697,-5.8026,-5.7526,-5.7076,-5.7216,-5.5472,-5.3844,-5.3329,-5.1882,-5.1031,-5.157,-5.1157,-5.1031,-5.157,-5.1157,-5.0804,-5.0804,-5.0652,-5.0525,-5.0359,-5.0295,-5.0232,-5.004,-5.004,-4.9976,-4.9783,-4.9783,-4.9912,-5.004,-5.004,-4.9976,-4.9783,-4.9783,-4.9719,-4.959,-4.9719,-4.9719,-4.959,-4.9783,-4.9719,-4.959,-4.959,-4.959,-4.959,-4.959,-4.959,-4.959,-4.959,-4.959,-4.9719,-5.0245,-5.0436,-5.0563,-5.1105,-5.1294,-5.1294,-5.1294,-5.1583,-5.1846,-5.1527,-5.1555,-5.1602,-5.1278,-5.0736,-5.0474,-5.1012,-5.1127,-5.1087,-5.1132,-5.1176,-5.0976,-5.0349,-5.0486,-5.0618,-5.0278,-4.993,-4.9717,-4.9717,-4.9717,-4.9436,-4.8798,-4.7396,-4.6215,-4.5616,-4.4724,-4.3984,-4.3511,-4.2909,-4.262,-4.2792,-4.1766,-4.1419,-4.1914,-4.1468,-4.0945,-4.0364,-4.0364,-4.0134,-3.9697,-3.9697,-3.9697,-3.9697,-3.9697,-3.9697,-3.9697,-3.9697,-3.9697,-3.9697,-3.9697,-3.9697,-3.9697,-3.9697,-3.9697,-3.9697,-3.9697,-3.9697,-3.9697]},{"header":{"parameterUnit":"m.s-1","parameterCategory":1,"la1":30.6,"la2":28.766,"lo1":-90.7593,"lo2":-88.6598,"dy":0.0162,"dx":0.0183,"nx":116,"ny":114,"refTime":"2024-06-13T18:00:00:Z","depth":0,"parameterNumber":3,"parameterNumberName":"V-component_of_WINDS"},"data":[0.0,0.0,0.0,0.0,0.0,0.0,0.0,0.0,0.0,0.0,0.0,0.0,0.0,0.0,0.0,0.0,0.0,0.0,0.0,0.0,0.0,0.0,0.0,0.0,0.0,0.0,0.0,0.0,0.0,0.0,0.0,0.0,0.0,0.0,0.0,0.0,0.0,0.0,0.0,0.0,0.0,0.0,0.0,0.0,0.0,0.0,0.0,0.0,0.0,0.0,0.0,0.0,0.0,0.0,0.0,0.0,0.0,0.0,0.0,0.0,0.0,0.0,0.0,0.0,0.0,0.0,0.0,0.0,0.0,0.0,0.0,0.0,0.0,0.0,0.0,0.0,0.0,0.0,0.0,0.0,0.0,0.0,0.0,0.0,0.0,0.0,0.0,0.0,0.0,0.0,0.0,0.0,0.0,0.0,0.0,0.0,0.0,0.0,0.0,0.0,0.0,0.0,0.0,0.0,0.0,0.0,0.0,0.0,0.0,0.0,0.0,0.0,0.0,0.0,0.0,0.0,0.0,0.0,0.0,0.0,0.0,0.0,0.0,0.0,0.0,0.0,0.0,0.0,0.0,0.0,0.0,0.0,0.0,0.0,0.0,0.0,0.0,0.0,0.0,0.0,0.0,0.0,0.0,0.0,0.0,0.0,0.0,0.0,0.0,0.0,0.0,0.0,0.0,0.0,0.0,0.0,0.0,0.0,0.0,0.0,0.0,0.0,0.0,0.0,0.0,0.0,0.0,0.0,0.0,0.0,0.0,0.0,0.0,0.0,0.0,0.0,0.0,0.0,0.0,0.0,0.0,0.0,0.0,0.0,0.0,0.0,0.0,0.0,0.0,0.0,0.0,0.0,0.0,0.0,0.0,0.0,0.0,0.0,0.0,0.0,0.0,0.0,0.0,0.0,0.0,0.0,0.0,0.0,0.0,0.0,0.0,0.0,0.0,0.0,0.0,0.0,0.0,0.0,0.0,0.0,0.0,0.0,0.0,0.0,0.0,0.0,0.0,0.0,0.0,0.0,0.0,0.0,0.0,0.0,0.0,0.0,0.0,0.0,0.0,0.0,0.0,0.0,0.0,0.0,0.0,0.0,0.0,0.0,0.0,0.0,0.0,0.0,0.0,0.0,0.0,0.0,0.0,0.0,0.0,0.0,0.0,0.0,0.0,0.0,0.0,0.0,0.0,0.0,0.0,0.0,0.0,0.0,0.0,0.0,0.0,0.0,0.0,0.0,0.0,0.0,0.0,0.0,0.0,0.0,0.0,0.0,0.0,0.0,0.0,0.0,0.0,0.0,0.0,0.0,0.0,0.0,0.0,0.0,0.0,0.0,0.0,0.0,0.0,0.0,0.0,0.0,0.0,0.0,0.0,0.0,0.0,0.0,0.0,0.0,0.0,0.0,0.0,0.0,0.0,0.0,0.0,0.0,0.0,0.0,0.0,0.0,0.0,0.0,0.0,0.0,0.0,0.0,0.0,0.0,0.0,0.0,0.0,0.0,0.0,0.0,0.0,0.0,0.0,0.0,0.0,0.0,0.0,0.0,0.0,0.0,0.0,0.0,0.0,0.0,0.0,0.0,0.0,0.0,0.0,0.0,0.0,0.0,0.0,0.0,0.0,0.0,0.0,0.0,0.0,0.0,0.0,0.0,0.0,0.0,0.0,0.0,0.0,0.0,0.0,0.0,0.0,0.0,0.0,0.0,0.0,0.0,0.0,0.0,0.0,0.0,0.0,0.0,0.0,0.0,0.0,0.0,0.0,0.0,0.0,0.0,0.0,0.0,0.0,0.0,0.0,0.0,0.0,0.0,0.0,0.0,0.0,0.0,0.0,0.0,0.0,0.0,0.0,0.0,0.0,0.0,0.0,0.0,0.0,0.0,0.0,0.0,0.0,0.0,0.0,0.0,0.0,0.0,0.0,0.0,0.0,0.0,0.0,0.0,0.0,0.0,0.0,0.0,0.0,0.0,0.0,0.0,0.0,0.0,0.0,0.0,0.0,0.0,0.0,0.0,0.0,0.0,0.0,0.0,0.0,0.0,0.0,0.0,0.0,0.0,0.0,0.0,0.0,0.0,0.0,0.0,0.0,0.0,0.0,0.0,0.0,0.0,0.0,0.0,0.0,0.0,0.0,0.0,0.0,0.0,0.0,0.0,0.0,0.0,0.0,0.0,0.0,0.0,0.0,0.0,0.0,0.0,0.0,0.0,0.0,0.0,0.0,0.0,0.0,0.0,0.0,0.0,0.0,0.0,0.0,0.0,0.0,0.0,0.0,0.0,0.0,0.0,0.0,0.0,0.0,0.0,0.0,0.0,0.0,0.0,0.0,0.0,0.0,0.0,0.0,0.0,0.0,0.0,0.0,0.0,0.0,0.0,0.0,0.0,0.0,0.0,0.0,0.0,0.0,0.0,0.0,0.0,0.0,0.0,0.0,0.0,0.0,0.0,0.0,0.0,0.0,0.0,0.0,0.0,0.0,0.0,0.0,0.0,0.0,0.0,0.0,0.0,0.0,0.0,0.0,0.0,0.0,0.0,0.0,0.0,0.0,0.0,0.0,0.0,0.0,0.0,0.0,0.0,0.0,0.0,0.0,0.0,0.0,0.0,0.0,0.0,0.0,0.0,0.0,0.0,0.0,0.0,0.0,0.0,0.0,0.0,0.0,0.0,0.0,0.0,0.0,0.0,0.0,0.0,0.0,0.0,0.0,0.0,0.0,0.0,0.0,0.0,0.0,0.0,0.0,0.0,0.0,0.0,0.0,0.0,0.0,0.0,0.0,0.0,0.0,0.0,0.0,0.0,0.0,0.0,0.0,0.0,0.0,0.0,0.0,0.0,0.0,0.0,0.0,0.0,0.0,0.0,0.0,0.0,0.0,0.0,0.0,0.0,0.0,0.0,0.0,0.0,0.0,0.0,0.0,0.0,0.0,0.0,0.0,0.0,0.0,0.0,0.0,0.0,0.0,0.0,0.0,0.0,0.0,0.0,0.0,0.0,0.0,0.0,0.0,0.0,0.0,0.0,0.0,0.0,0.0,0.0,0.0,0.0,0.0,0.0,0.0,0.0,0.0,0.0,0.0,0.0,0.0,0.0,0.0,0.0,0.0,0.0,0.0,0.0,0.0,0.0,0.0,0.0,0.0,0.0,0.0,0.0,0.0,0.0,0.0,0.0,0.0,0.0,0.0,0.0,0.0,0.0,0.0,0.0,0.0,0.0,0.0,0.0,0.0,0.0,0.0,0.0,0.0,0.0,0.0,0.0,0.0,0.0,0.0,0.0,0.0,0.0,0.0,0.0,0.0,0.0,0.0,0.0,0.0,0.0,0.0,0.0,0.0,0.0,0.0,0.0,0.0,0.0,0.0,0.0,0.0,0.0,0.0,0.0,0.0,0.0,0.0,0.0,0.0,0.0,0.0,0.0,0.0,0.0,0.0,0.0,0.0,0.0,0.0,0.0,0.0,0.0,0.0,0.0,0.0,0.0,0.0,0.0,0.0,0.0,0.0,0.0,0.0,0.0,0.0,0.0,0.0,0.0,0.0,0.0,0.0,0.0,0.0,0.0,0.0,0.0,0.0,0.0,0.0,0.0,0.0,0.0,0.0,0.0,0.0,0.0,0.0,0.0,0.0,0.0,0.0,0.0,0.0,0.0,0.0,0.0,0.0,0.0,0.0,0.0,0.0,0.0,0.0,0.0,0.0,0.0,0.0,0.0,0.0,0.0,0.0,0.0,0.0,0.0,0.0,0.0,0.0,0.0,0.0,0.0,0.0,0.0,0.0,0.0,0.0,0.0,0.0,0.0,0.0,0.0,0.0,0.0,0.0,0.0,0.0,0.0,0.0,0.0,0.0,0.0,0.0,0.0,0.0,0.0,0.0,0.0,0.0,0.0,0.0,0.0,0.0,0.0,0.0,0.0,0.0,0.0,0.0,0.0,0.0,0.0,0.0,0.0,0.0,0.0,0.0,0.0,0.0,0.0,0.0,0.0,0.0,0.0,0.0,0.0,0.0,0.0,0.0,0.0,0.0,0.0,0.0,0.0,0.0,0.0,0.0,0.0,0.0,0.0,0.0,0.0,0.0,0.0,0.0,0.0,0.0,0.0,0.0,0.0,0.0,0.0,0.0,0.0,0.0,0.0,0.0,0.0,0.0,0.0,0.0,0.0,0.0,0.0,0.0,0.0,0.0,0.0,0.0,0.0,0.0,0.0,0.0,0.0,0.0,0.0,0.0,0.0,0.0,0.0,0.0,0.0,0.0,0.0,0.0,0.0,0.0,0.0,0.0,0.0,0.0,0.0,0.0,0.0,0.0,0.0,0.0,0.0,0.0,0.0,0.0,0.0,0.0,0.0,0.0,0.0,0.0,0.0,0.0,0.0,0.0,0.0,0.0,0.0,0.0,0.0,0.0,0.0,0.0,0.0,0.0,0.0,0.0,0.0,0.0,0.0,0.0,0.0,0.0,0.0,0.0,0.0,0.0,0.0,0.0,0.0,0.0,0.0,0.0,0.0,0.0,0.0,0.0,0.0,0.0,0.0,0.0,0.0,0.0,0.0,0.0,0.0,0.0,0.0,0.0,0.0,0.0,0.0,0.0,0.0,0.0,0.0,0.0,0.0,0.0,0.0,0.0,0.0,0.0,0.0,0.0,0.0,0.0,0.0,0.0,0.0,0.0,0.0,0.0,0.0,0.0,0.0,0.0,0.0,0.0,0.0,0.0,0.0,0.0,0.0,0.0,0.0,0.0,0.0,0.0,0.0,0.0,0.0,0.0,0.0,0.0,0.0,0.0,0.0,0.0,0.0,0.0,0.0,0.0,0.0,0.0,0.0,0.0,0.0,0.0,0.0,0.0,0.0,0.0,0.0,0.0,0.0,0.0,0.0,0.0,0.0,0.0,0.0,0.0,0.0,0.0,0.0,0.0,0.0,0.0,0.0,0.0,0.0,0.0,0.0,0.0,0.0,0.0,0.0,0.0,0.0,0.0,0.0,0.0,0.0,0.0,0.0,0.0,0.0,0.0,0.0,0.0,0.0,0.0,0.0,0.0,0.0,0.0,0.0,0.0,0.0,0.0,0.0,0.0,0.0,0.0,0.0,0.0,0.0,0.0,0.0,0.0,0.0,0.0,0.0,0.0,0.0,0.0,0.0,0.0,0.0,0.0,0.0,0.0,0.0,0.0,0.0,0.0,0.0,0.0,0.0,0.0,0.0,0.0,0.0,0.0,0.0,0.0,0.0,0.0,0.0,0.0,0.0,0.0,0.0,0.0,0.0,0.0,0.0,0.0,0.0,0.0,0.0,0.0,0.0,0.0,0.0,0.0,0.0,0.0,0.0,0.0,0.0,0.0,0.0,0.0,0.0,0.0,0.0,0.0,0.0,0.0,0.0,0.0,0.0,0.0,0.0,0.0,0.0,0.0,0.0,0.0,0.0,0.0,0.0,0.0,0.0,0.0,0.0,0.0,0.0,0.0,0.0,0.0,0.0,0.0,0.0,0.0,0.0,0.0,0.0,0.0,0.0,0.0,0.0,0.0,0.0,0.0,0.0,0.0,0.0,0.0,0.0,0.0,0.0,0.0,0.0,0.0,0.0,0.0,0.0,0.0,0.0,0.0,0.0,0.0,0.0,0.0,0.0,0.0,0.0,0.0,0.0,0.0,0.0,0.0,0.0,0.0,0.0,0.0,0.0,0.0,0.0,0.0,0.0,0.0,0.0,0.0,0.0,0.0,0.0,0.0,0.0,0.0,0.0,0.0,0.0,0.0,0.0,0.0,0.0,0.0,0.0,0.0,0.0,0.0,0.0,0.0,0.0,0.0,0.0,0.0,0.0,0.0,0.0,0.0,0.0,0.0,0.0,0.0,0.0,0.0,0.0,0.0,0.0,0.0,0.0,0.0,0.0,0.0,0.0,0.0,0.0,0.0,0.0,0.0,0.0,0.0,0.0,0.0,0.0,0.0,0.0,0.0,0.0,0.0,0.0,0.0,0.0,0.0,0.0,0.0,0.0,0.0,0.0,0.0,0.0,0.0,0.0,0.0,0.0,0.0,0.0,0.0,0.0,0.0,0.0,0.0,0.0,0.0,0.0,0.0,0.0,0.0,0.0,0.0,0.0,2.5371,0.0,0.0,0.0,0.0,0.0,0.0,0.0,0.0,0.0,0.0,0.0,0.0,0.0,0.0,0.0,0.0,0.0,0.0,0.0,0.0,0.0,0.0,0.0,0.0,3.5237,3.5816,3.4786,3.5047,3.5128,3.4703,0.0,0.0,0.0,0.0,0.0,3.3834,3.3546,3.339,3.339,3.3703,3.4106,3.4593,3.4187,3.3049,3.1386,0.0,0.0,0.0,0.0,0.0,0.0,0.0,0.0,0.0,0.0,0.0,0.0,0.0,0.0,0.0,0.0,0.0,0.0,0.0,0.0,0.0,0.0,0.0,0.0,0.0,0.0,0.0,0.0,0.0,0.0,0.0,0.0,0.0,0.0,0.0,0.0,0.0,0.0,0.0,0.0,0.0,0.0,0.0,0.0,0.0,0.0,0.0,0.0,0.0,0.0,0.0,0.0,0.0,0.0,0.0,0.0,0.0,0.0,0.0,0.0,0.0,0.0,0.0,0.0,0.0,0.0,0.0,0.0,0.0,0.0,0.0,2.6016,0.0,0.0,0.0,0.0,0.0,0.0,0.0,0.0,0.0,0.0,0.0,0.0,0.0,0.0,0.0,0.0,0.0,0.0,0.0,0.0,0.0,3.2849,3.3868,3.5631,3.6302,3.5237,3.5318,3.5399,3.5237,3.5277,0.0,0.0,0.0,3.5628,3.5628,3.5628,3.5628,3.5628,3.5871,3.5993,3.5939,3.625,3.5263,3.3122,3.2816,0.0,0.0,0.0,0.0,0.0,0.0,0.0,0.0,0.0,0.0,0.0,0.0,0.0,0.0,0.0,0.0,0.0,0.0,0.0,0.0,0.0,0.0,0.0,0.0,0.0,0.0,0.0,0.0,0.0,0.0,0.0,0.0,0.0,0.0,0.0,0.0,0.0,0.0,0.0,0.0,0.0,0.0,0.0,0.0,0.0,0.0,0.0,0.0,0.0,0.0,0.0,0.0,0.0,0.0,0.0,0.0,0.0,0.0,0.0,0.0,0.0,0.0,0.0,2.7422,2.7461,2.7461,2.7383,2.7344,2.7344,2.7266,2.6953,2.6484,0.0,0.0,0.0,0.0,0.0,0.0,0.0,0.0,0.0,0.0,0.0,0.0,0.0,0.0,0.0,0.0,0.0,0.0,0.0,0.0,3.3186,3.4052,3.5358,3.6042,3.5615,3.6626,3.694,3.6175,3.6452,0.0,0.0,3.5989,3.5628,3.5628,3.5628,3.5628,3.5628,3.6912,3.7189,3.6525,3.7853,3.7924,3.6845,3.5305,3.4224,3.3511,0.0,0.0,0.0,0.0,0.0,0.0,0.0,0.0,0.0,0.0,0.0,0.0,0.0,0.0,0.0,0.0,0.0,0.0,0.0,0.0,0.0,0.0,0.0,0.0,0.0,0.0,0.0,0.0,0.0,0.0,0.0,0.0,0.0,0.0,0.0,0.0,0.0,0.0,0.0,0.0,0.0,3.2393,3.1403,0.0,0.0,0.0,0.0,0.0,0.0,0.0,0.0,0.0,0.0,0.0,0.0,0.0,2.8516,2.8203,2.8516,2.8672,2.8672,2.9043,2.9238,2.9219,2.8848,2.8672,2.8652,2.8281,0.0,2.6914,2.6543,0.0,0.0,0.0,0.0,0.0,0.0,0.0,0.0,0.0,0.0,0.0,0.0,0.0,0.0,0.0,0.0,0.0,0.0,0.0,0.0,0.0,3.5826,3.6604,3.6577,3.738,3.7597,3.6915,3.7035,3.7186,3.7289,3.695,3.6844,3.7078,3.7416,3.7783,3.8133,3.9173,3.9487,3.9122,4.0212,4.0298,3.953,3.875,3.7174,3.4971,3.3903,0.0,0.0,0.0,0.0,0.0,0.0,0.0,0.0,0.0,0.0,0.0,0.0,0.0,0.0,0.0,0.0,0.0,0.0,0.0,0.0,0.0,0.0,0.0,0.0,0.0,0.0,0.0,0.0,0.0,0.0,0.0,0.0,0.0,0.0,0.0,0.0,0.0,0.0,0.0,3.2899,3.3315,3.2266,3.2678,3.2162,0.0,0.0,0.0,0.0,0.0,0.0,0.0,0.0,0.0,2.9998,2.9565,2.9316,2.9355,2.9316,2.9277,2.9297,2.9473,2.9626,2.957,2.9375,2.9141,2.8906,2.873,2.8301,2.7695,2.7285,2.6953,2.668,0.0,0.0,0.0,0.0,2.4871,2.4551,0.0,0.0,0.0,0.0,0.0,0.0,0.0,0.0,0.0,0.0,0.0,0.0,3.4854,3.6025,3.6841,3.7291,3.7703,3.7717,3.7316,3.7272,3.7286,3.7433,3.7548,3.7739,3.8052,3.8832,3.9421,3.9857,4.0699,4.1105,4.1105,4.1773,4.1831,4.1337,4.1163,3.9453,3.6607,3.5488,3.4325,3.3143,0.0,0.0,0.0,0.0,0.0,0.0,0.0,0.0,0.0,0.0,0.0,0.0,0.0,0.0,0.0,0.0,0.0,0.0,0.0,0.0,0.0,0.0,0.0,0.0,0.0,0.0,0.0,0.0,0.0,0.0,0.0,0.0,0.0,0.0,0.0,0.0,0.0,3.3742,3.4101,3.3299,3.3907,3.365,0.0,0.0,0.0,0.0,0.0,0.0,3.2774,3.2244,3.2108,3.2572,3.1702,3.1147,3.1025,3.0707,3.0339,2.9902,2.9902,2.9902,2.9902,2.9785,2.9551,2.9238,2.9004,2.875,2.8418,2.7943,2.748,2.7109,2.6317,2.6005,2.6016,2.5684,2.5488,2.5497,0.0,0.0,0.0,0.0,0.0,0.0,0.0,0.0,0.0,0.0,0.0,3.3212,3.4675,3.537,3.6239,3.7392,3.7401,3.7316,0.0,3.7135,3.7007,3.7017,3.7394,3.7625,3.7625,3.8678,3.9218,3.9247,4.0495,4.1105,4.1105,4.1773,4.2063,4.2005,4.1366,4.034,3.8987,3.8292,3.725,3.6034,3.5404,0.0,0.0,0.0,0.0,0.0,0.0,0.0,0.0,0.0,0.0,0.0,0.0,0.0,0.0,0.0,0.0,0.0,0.0,0.0,0.0,0.0,0.0,0.0,0.0,0.0,0.0,0.0,0.0,0.0,0.0,0.0,0.0,0.0,0.0,0.0,0.0,0.0,0.0,3.5445,3.6357,0.0,0.0,0.0,0.0,3.3329,3.4057,3.4797,3.521,3.5185,3.5347,3.5772,3.5736,3.4883,3.3265,3.3244,3.24,3.082,3.082,3.082,3.082,3.0371,3.0156,3.0078,2.9277,2.8906,2.8828,2.8008,2.7708,2.765,2.7129,2.6953,2.6953,2.6914,2.666,2.6328,0.0,0.0,0.0,0.0,0.0,2.8541,3.008,3.0302,3.0559,3.1378,3.2352,3.3418,3.4679,3.571,3.6768,3.7946,3.8036,3.7821,3.7439,3.7003,3.6889,3.7158,3.6956,3.7451,3.8796,3.9212,3.9928,4.1076,4.1512,4.1744,4.1744,4.1976,4.2092,4.2092,4.186,4.125,4.0321,3.8841,3.7941,3.7389,3.5973,3.5131,0.0,0.0,0.0,0.0,0.0,0.0,0.0,0.0,0.0,0.0,0.0,0.0,0.0,0.0,0.0,0.0,0.0,0.0,0.0,0.0,0.0,0.0,0.0,0.0,0.0,0.0,0.0,0.0,0.0,0.0,0.0,0.0,0.0,0.0,0.0,0.0,0.0,3.706,3.8094,0.0,3.6996,3.7355,3.7416,3.6888,3.718,3.7581,3.8064,3.7599,3.7392,3.755,3.6816,3.6143,3.55,3.4898,3.388,3.254,3.2197,3.1672,3.0879,3.0723,3.0488,3.0156,2.959,2.918,2.8867,2.8301,2.8066,2.8027,2.7598,2.7441,2.7402,2.7129,2.6914,2.6797,0.0,0.0,0.0,0.0,2.7854,2.8166,3.0337,3.0425,3.0675,3.1775,3.2763,3.3892,3.5276,3.6307,3.7392,3.8613,3.8342,3.7919,3.7512,3.6768,3.643,3.6742,3.6711,3.743,3.8939,3.9487,4.0388,4.1538,4.1893,4.2092,4.2092,4.2092,4.2092,4.2092,4.2092,4.186,4.1337,3.9828,3.9044,3.8725,3.7244,3.6554,3.6235,0.0,0.0,0.0,0.0,0.0,0.0,0.0,0.0,0.0,0.0,0.0,0.0,0.0,0.0,0.0,0.0,0.0,0.0,0.0,0.0,0.0,0.0,0.0,0.0,0.0,0.0,0.0,0.0,0.0,0.0,0.0,0.0,0.0,0.0,0.0,3.7276,3.8166,3.9056,3.9393,3.8864,3.8984,3.9152,3.9345,3.9345,3.9585,4.0114,3.9632,3.9337,3.9337,3.8618,3.7965,3.7376,3.6493,3.5378,3.4022,3.35,3.2835,3.2055,3.2055,3.1721,3.102,3.0561,2.9921,2.9101,2.8691,2.8418,2.8262,2.7988,2.7871,2.7832,2.7559,2.7363,2.7207,0.0,0.0,0.0,2.7426,2.6694,2.6861,2.9587,2.9463,2.9767,3.1956,3.3176,3.4585,3.6388,3.7121,3.7946,3.9156,3.8136,3.7458,3.7458,3.6347,3.5737,3.5737,3.6742,3.7479,3.7922,3.9552,4.0383,4.0412,4.1526,4.2092,4.2092,4.2092,4.2092,4.2092,4.2092,4.2092,4.2063,4.1395,4.0757,4.0118,3.9479,3.8841,3.8173,0.0,0.0,0.0,0.0,0.0,0.0,0.0,0.0,0.0,0.0,0.0,0.0,0.0,0.0,0.0,0.0,0.0,0.0,0.0,0.0,0.0,0.0,0.0,0.0,0.0,0.0,0.0,0.0,0.0,0.0,0.0,0.0,0.0,3.6386,3.7372,3.8238,3.8815,3.9369,3.9489,3.896,3.9369,3.9874,4.0379,4.0427,4.0643,4.1148,4.1172,4.1172,4.1172,4.1172,4.0392,3.8701,3.8136,3.6986,3.5282,3.4743,3.4469,3.4391,3.4391,3.3797,3.2721,3.228,3.1157,2.9643,2.9156,2.8726,2.8354,2.8281,2.8301,2.8301,2.8301,2.8027,2.7669,0.0,0.0,2.5678,2.7397,2.6859,2.7183,3.019,2.9904,3.0195,3.2544,3.3485,3.4423,3.5818,3.6497,3.7175,3.7962,3.7311,3.6849,3.6849,3.6144,3.59,3.6334,3.7041,3.7853,3.8755,3.9214,3.9859,4.0605,4.1268,4.1564,4.1606,4.1926,4.2092,4.2092,4.2092,4.2092,4.2092,4.1889,4.1715,4.1453,4.0321,3.9479,3.8841,0.0,0.0,0.0,0.0,0.0,0.0,0.0,0.0,0.0,0.0,0.0,0.0,0.0,0.0,0.0,0.0,0.0,0.0,0.0,0.0,0.0,0.0,0.0,0.0,0.0,0.0,0.0,0.0,0.0,0.0,0.0,0.0,3.7372,3.7517,3.8479,3.9513,4.0427,4.1004,4.1268,4.1124,4.1244,4.122,4.098,4.098,4.1028,4.1172,4.1172,4.1172,4.1172,4.1172,4.0985,4.0473,3.9974,3.8784,3.7065,3.6566,3.5636,3.4391,3.4391,3.4224,3.3923,3.3483,3.2824,3.1996,3.0727,2.9921,2.9355,2.8601,2.8301,2.8301,2.8301,2.8223,2.8066,0.0,2.483,2.4964,2.6631,2.6485,2.6998,2.9553,2.9717,3.0371,3.2789,3.3566,3.445,3.5927,3.6388,3.6849,3.7431,3.6958,3.6605,3.6605,3.628,3.6225,3.6578,3.7446,3.8199,3.8785,3.9274,3.9766,4.0386,4.0887,4.11,4.11,4.1396,4.1606,4.1801,4.1801,4.1926,4.2092,4.2092,4.2092,4.2034,4.125,4.0554,3.9915,3.9247,3.8609,3.8086,3.7941,3.7738,3.7506,3.7389,0.0,0.0,0.0,0.0,0.0,0.0,0.0,0.0,0.0,0.0,0.0,0.0,0.0,0.0,0.0,0.0,0.0,0.0,0.0,0.0,0.0,0.0,0.0,0.0,3.7757,3.8743,3.896,3.9537,4.0234,4.1076,4.1461,4.1629,4.1629,4.1629,4.1605,4.1533,4.1509,4.1605,4.1822,4.1629,4.1509,4.1509,4.1293,4.1172,4.1172,4.0667,3.9777,3.8559,3.8043,3.7122,3.5936,3.5936,3.5608,0.0,3.491,3.4105,3.2908,3.2041,3.1233,0.0,0.0,0.0,0.0,0.0,2.8301,2.8262,0.0,2.4259,2.4229,2.5673,2.5887,2.6511,2.8302,2.9122,3.0344,3.268,3.3539,3.4504,3.6117,3.6415,3.6687,3.7133,3.6795,3.6524,0.0,0.0,3.6659,3.6795,3.7853,3.845,3.8505,3.9415,3.9908,3.9908,4.0386,4.0602,4.0602,4.0688,4.093,4.1311,4.1311,4.1564,4.2009,4.2009,4.2051,4.2092,4.2092,4.1686,4.1047,4.0437,3.9828,3.9363,3.9915,3.9741,3.9392,3.9915,0.0,0.0,0.0,0.0,0.0,0.0,0.0,0.0,0.0,0.0,0.0,0.0,0.0,0.0,0.0,0.0,0.0,0.0,0.0,0.0,0.0,0.0,0.0,0.0,3.9032,3.9874,4.0403,4.0475,4.0667,4.1124,4.1172,4.1172,4.1172,4.1172,4.1413,4.1942,4.1966,4.2265,4.2795,0.0,0.0,0.0,0.0,4.1172,4.1172,4.0715,4.0186,3.9609,3.9128,3.8575,3.7974,3.7974,3.7441,3.6394,3.6394,3.5304,3.3444,3.3272,3.2595,3.1381,2.9323,2.8495,2.8441,2.8335,2.8301,2.8301,0.0,2.4531,2.4966,2.578,2.5887,2.6511,2.8302,2.9122,3.0208,3.2137,3.323,3.4043,3.4368,3.5263,3.5737,3.5344,3.5642,3.609,0.0,0.0,3.7039,3.8016,3.8288,3.864,3.9129,3.9326,3.9424,3.9424,3.9908,4.0126,4.0126,4.0516,4.073,4.0816,4.0816,4.11,4.1522,4.1522,4.176,4.2092,4.2092,4.1686,4.1076,4.096,4.0495,3.9944,4.006,4.0031,3.9944,4.006,3.9944,3.9625,3.9015,0.0,0.0,0.0,0.0,0.0,0.0,0.0,0.0,0.0,0.0,0.0,0.0,0.0,0.0,0.0,0.0,0.0,0.0,0.0,0.0,3.9159,3.9826,4.0427,4.0956,4.1028,4.1076,4.1172,4.1172,4.1172,4.1172,4.1172,4.1413,4.1942,4.1966,4.2265,4.2795,4.2313,4.1966,4.1966,4.1461,4.1172,4.1172,4.1076,4.0547,3.9609,0.0,0.0,3.7974,3.7974,3.7868,3.7655,3.7655,3.7191,3.6313,3.4981,3.3324,3.1483,3.0141,2.9565,2.9513,2.8601,2.8301,2.8301,2.415,2.434,2.4747,2.5344,2.6212,2.6999,2.7623,2.898,3.0364,3.1585,3.2508,3.3257,3.3853,3.445,3.4666,3.4368,3.4883,0.0,0.0,3.6877,3.7473,3.8369,3.8695,3.8993,3.9292,3.9292,3.9292,3.9292,3.9513,3.9645,3.9645,3.9865,4.0126,4.0343,4.0343,4.073,4.1396,4.1396,4.1647,4.2092,4.2092,4.1889,4.1599,4.1599,4.1192,4.0583,4.0583,4.0583,4.0583,4.0583,4.0379,4.0031,3.9741,3.945,3.9131,0.0,0.0,0.0,0.0,0.0,0.0,0.0,0.0,0.0,0.0,0.0,0.0,0.0,0.0,3.7636,0.0,0.0,3.9823,4.1037,4.1413,4.1581,4.1581,4.1581,4.1485,4.122,4.1172,4.1293,4.1557,4.1581,4.1894,4.2687,4.2735,4.2976,4.3529,4.3024,4.2615,4.2434,4.1846,4.1461,4.1172,4.1172,4.0787,3.9994,3.9729,3.9176,3.8383,3.8118,3.7974,3.7974,3.7974,3.7685,3.708,3.5754,3.4396,3.3101,3.1971,3.1206,3.0691,3.0141,2.9565,2.9112,2.4611,2.434,2.4448,2.5073,2.6484,2.7406,2.7023,2.8845,3.0446,3.1042,3.1748,3.2535,3.3474,3.3772,3.3962,0.0,0.0,0.0,0.0,3.7214,3.7811,3.8559,3.9047,3.9292,3.9292,3.9292,3.9292,3.9292,3.9292,3.9292,3.9292,3.9292,3.9513,3.9865,3.9865,4.0343,4.1142,4.1227,4.1522,4.1968,4.2051,4.2092,4.2092,4.1947,4.157,4.1076,4.096,4.0902,4.0902,4.0902,4.0554,4.0089,3.9973,3.9683,3.9363,3.9247,3.9625,0.0,0.0,0.0,0.0,0.0,0.0,0.0,0.0,0.0,3.9965,3.8392,3.8374,3.9193,4.0772,4.1031,4.1461,4.2832,4.3072,4.2856,4.2206,4.2193,4.1894,4.1268,4.1172,4.1389,4.1976,4.1966,4.2399,4.3433,4.3505,4.3746,4.4261,4.3818,4.3337,4.2988,4.2303,4.1774,4.1341,4.1244,4.0908,4.0379,3.985,3.932,3.8791,3.8238,3.7974,3.7974,3.7974,3.7637,3.6964,3.6122,3.54,3.4726,3.3869,3.3001,3.2196,3.1717,3.1,3.0224,0.0,2.5263,2.51,2.5697,2.643,2.705,2.7542,2.8736,2.9794,3.0418,3.1477,3.2273,3.2372,3.3284,3.4124,3.4639,0.0,0.0,3.7268,3.7458,3.8,3.9156,3.9264,3.9292,3.9292,3.9292,3.9292,3.9292,3.9292,3.9292,3.9292,3.9292,3.9336,3.938,3.938,3.9645,4.017,4.0602,4.1057,4.1522,4.1926,4.2092,4.2034,4.1424,4.1163,4.1018,4.0437,4.0205,4.0205,4.0205,4.0147,4.0002,3.9479,3.9625,3.9886,3.9363,0.0,4.0089,4.0089,4.0147,4.0612,4.2353,4.2509,4.2285,0.0,0.0,4.1593,4.0055,4.0543,4.1355,4.1794,4.2543,4.3385,4.3997,4.4117,4.3818,4.2867,4.2723,4.2303,4.1293,4.1172,4.1389,4.1976,4.1966,4.2399,4.3433,4.3505,4.3746,4.4261,4.3818,4.3481,4.3433,4.2471,4.1942,4.1894,4.1413,4.0908,4.0379,3.985,3.932,3.8791,3.8238,3.7974,3.7974,3.7974,3.7421,3.6483,3.6362,3.5737,3.4775,3.4677,3.458,3.4213,3.2297,3.1534,3.141,0.0,2.5181,2.5317,2.6267,2.7216,2.7922,2.8193,2.9252,2.9984,2.9876,3.0608,3.1287,3.1639,3.2725,3.381,3.4721,3.4802,3.5561,3.7377,3.7811,3.8586,3.9753,3.9807,3.9627,3.9173,3.8826,3.8459,3.805,3.805,3.805,3.805,3.805,3.805,3.805,3.8485,3.8935,3.9397,4.0343,4.0972,4.1466,4.2302,4.2179,4.1482,4.1221,4.0641,3.9973,3.9683,3.9799,0.0,0.0,3.9567,3.9538,3.9276,3.9363,3.9596,3.9683,4.0176,0.0,4.157,4.2063,4.2644,4.3805,4.45,4.4812,4.449,4.4253,4.3647,4.2005,4.2047,4.2379,4.2445,4.3289,4.4117,0.0,4.5005,4.49,4.3842,4.3409,4.2808,4.1774,4.1653,4.1846,4.2434,4.2687,4.3192,4.3877,4.401,4.4045,4.4261,4.4069,4.3721,4.3096,4.2663,4.2193,4.1533,4.1293,4.1076,4.0836,4.0018,3.9489,3.9248,3.8383,3.7974,3.7974,3.7974,3.7372,3.6411,3.6411,3.5785,3.4775,3.4775,3.4775,3.4677,3.3819,3.3051,3.2549,0.0,2.5018,2.5426,2.6806,2.7786,2.8465,2.879,2.9577,3.012,3.0018,3.0228,3.0771,3.1667,3.2599,3.3577,3.4694,3.4802,3.548,3.7133,3.7811,3.8563,3.9572,3.976,3.952,3.8778,3.8338,3.7794,3.7103,3.7103,3.7103,3.7103,3.7103,3.7103,3.7103,3.7684,3.8096,3.8477,3.9706,4.0557,4.1269,4.2366,4.2241,4.1366,4.1163,4.0321,3.9189,3.8986,3.9218,0.0,0.0,3.8928,3.8928,3.8928,3.9044,3.9334,3.9915,4.0699,4.1599,4.2702,4.334,4.3892,4.4676,4.573,4.6343,4.5397,4.518,4.4731,4.3102,4.2718,4.271,4.2975,4.3721,4.4501,4.5173,4.5669,4.5549,4.4429,4.3866,4.3192,4.2303,4.2182,4.2399,4.2904,4.3168,4.3601,4.4237,4.4141,4.4117,4.4285,4.4285,4.3914,4.3,4.2891,4.2386,4.1413,4.1244,4.1172,4.1172,4.0114,3.9609,3.9561,3.8479,3.7974,3.7974,3.7974,3.7372,3.6411,3.6411,3.5785,3.4775,3.4775,3.4775,3.4775,3.4775,3.4311,3.3671,0.0,0.0,2.5588,2.7379,2.7705,2.8112,2.9312,2.9502,2.993,3.107,3.0744,3.107,3.2843,3.3088,3.3577,3.4694,3.4802,3.529,3.6551,3.716,3.7752,3.8141,3.8721,3.8684,3.7954,3.7928,3.7646,3.7103,3.7103,3.7103,3.7103,3.7103,3.7103,3.7103,3.7103,3.715,3.7243,3.8432,3.9563,4.0635,4.1864,4.2207,4.2005,4.1337,4.0321,3.9102,3.8463,0.0,0.0,0.0,3.8231,3.8231,3.8231,3.8667,0.0,3.9915,4.1047,4.2208,4.2818,4.2992,4.3311,4.4589,4.5475,4.5817,4.4991,4.4727,4.4238,4.2824,4.2274,4.2338,4.3397,4.3986,4.4621,4.5678,4.591,4.5549,4.4429,4.3866,4.3313,4.2867,4.2795,4.2928,0.0,4.3072,4.3216,4.4213,4.3842,4.377,4.4261,4.4285,4.4021,4.3505,4.3024,4.2554,4.1966,4.1437,4.1172,4.1172,4.0114,3.9609,3.9561,3.8479,3.7974,3.7974,3.7974,3.7372,3.6411,3.6411,3.5785,3.4775,3.4775,3.4775,3.4775,3.4775,3.4775,3.4726,0.0,0.0,0.0,2.7994,2.8953,2.9767,3.0554,3.0018,2.9801,3.0608,3.1558,0.0,0.0,0.0,0.0,0.0,3.5371,3.5534,3.59,3.6513,3.7017,3.7474,3.7707,3.7771,3.7688,3.7288,3.6945,3.6653,3.6653,3.6653,3.6653,3.6653,3.6653,3.6628,3.7168,3.7338,3.7436,3.8636,3.9401,3.9841,4.1132,4.1016,4.0153,4.0481,3.9765,3.8522,0.0,0.0,0.0,3.8202,3.8202,3.8202,3.8202,0.0,0.0,4.0321,4.1686,4.2934,4.3979,4.4589,4.5227,4.6505,4.7004,4.7137,4.6967,4.5989,4.4873,4.3861,4.2776,4.2206,4.2725,4.3311,4.4154,4.5149,4.5694,4.579,4.539,4.4573,4.3866,4.3337,4.3265,0.0,0.0,0.0,0.0,4.4237,4.3818,4.3746,4.4261,4.4285,4.3938,4.3048,4.2916,4.2386,4.1461,4.1268,4.1172,4.1172,4.0114,3.9224,3.8527,3.8142,3.7974,3.7974,3.7974,3.7372,3.6411,3.6411,3.5785,3.4775,3.4775,3.4775,3.4775,3.4775,3.4775,3.4775,0.0,0.0,0.0,0.0,0.0,0.0,0.0,0.0,0.0,0.0,0.0,0.0,0.0,0.0,0.0,0.0,0.0,3.4944,3.4894,3.5512,3.5893,3.6146,3.6553,3.6732,3.6604,3.6407,3.6161,3.5833,3.5833,3.5833,3.5833,3.5833,3.5833,3.5833,3.6307,3.6554,3.6604,3.7701,3.8332,3.8774,3.9714,3.9509,3.8663,3.9451,3.8865,0.0,0.0,0.0,3.8202,3.8202,3.8202,3.8231,3.8492,3.887,3.9538,4.1018,4.2353,4.3631,4.4908,4.5721,4.6475,4.7521,4.7782,4.7757,4.7683,4.6553,4.5283,4.4583,4.3441,4.263,4.2649,4.3045,4.3587,4.4409,4.4852,4.514,4.5269,4.4549,4.3925,4.3818,4.3625,4.3601,0.0,0.0,0.0,4.4237,4.3818,4.3746,4.4261,4.4093,4.3649,4.2843,4.2627,4.2121,4.1196,4.1172,4.1004,4.0619,3.9922,3.9032,3.7974,3.7974,3.7974,3.7974,3.7974,3.7493,3.6675,3.6483,3.5881,3.5088,3.4847,3.4775,3.4775,3.4775,3.4775,3.4775,0.0,0.0,0.0,0.0,0.0,0.0,0.0,0.0,0.0,0.0,0.0,0.0,0.0,0.0,0.0,0.0,0.0,0.0,3.3641,3.4169,0.0,3.4243,3.5236,3.5498,3.4775,3.528,3.5304,3.4775,3.4775,3.4799,3.4823,3.4823,3.4847,3.4847,3.4847,3.4847,3.4895,3.5718,3.6589,3.754,3.7701,3.7693,3.7615,3.8185,0.0,0.0,0.0,0.0,3.8289,3.826,3.826,3.8434,3.9131,4.0176,4.1279,4.1976,4.3079,4.4356,4.5634,4.6446,4.7039,4.7724,4.784,4.7641,4.7091,4.6256,4.5462,4.4869,4.4041,4.3335,0.0,0.0,4.3187,4.3433,4.3529,4.3746,4.4261,4.3914,4.3746,0.0,0.0,0.0,0.0,0.0,0.0,4.4237,0.0,4.3746,4.4261,4.3818,4.3289,4.2843,4.2313,4.1725,4.1196,4.1148,4.0619,3.9609,3.9585,3.9008,3.7974,3.7974,3.7974,3.7974,3.7974,3.7685,3.7156,3.6627,3.6098,3.5569,3.504,3.4775,3.4775,3.4775,3.4775,3.4775,0.0,0.0,0.0,0.0,0.0,0.0,0.0,0.0,0.0,0.0,0.0,0.0,0.0,0.0,0.0,0.0,0.0,0.0,3.3,0.0,0.0,0.0,3.3223,3.3639,3.4174,3.4318,3.451,3.4775,3.4775,3.4991,3.5425,3.5425,3.5617,3.6002,3.6002,3.6002,3.6002,3.6202,3.6232,3.6137,0.0,3.6238,3.5945,0.0,0.0,0.0,0.0,0.0,3.9538,3.9102,3.9247,3.9828,4.0989,4.157,4.2063,4.3195,4.4414,4.5692,4.694,4.7753,4.8391,4.903,4.8478,4.7572,4.6565,4.5427,4.4422,4.3836,4.3101,4.2489,0.0,0.0,0.0,4.2974,4.3625,0.0,4.4789,4.4405,0.0,4.4261,0.0,4.4117,4.4261,4.4165,0.0,0.0,4.3818,4.3746,4.4261,4.3818,4.3289,4.2843,4.2313,4.1725,4.1196,4.0787,4.0258,3.9609,3.92,3.8647,3.7974,3.7974,3.7974,3.7974,3.7974,3.7685,3.7156,3.6627,3.6098,3.5569,3.504,3.4775,3.4775,3.4775,3.4775,3.4775,0.0,0.0,0.0,0.0,0.0,0.0,0.0,0.0,0.0,0.0,0.0,0.0,0.0,0.0,0.0,0.0,0.0,0.0,0.0,3.2288,0.0,3.2175,3.237,3.2779,3.331,3.3766,3.4126,3.4438,0.0,0.0,3.4871,3.4703,3.4751,3.504,3.504,3.504,3.504,3.504,0.0,0.0,0.0,0.0,0.0,0.0,0.0,0.0,0.0,3.9503,4.0543,4.0545,4.0943,4.1482,4.2266,4.2876,4.3515,4.4531,0.0,4.694,4.7927,4.8653,4.9233,4.963,4.8508,4.7166,4.6558,4.5199,4.4018,4.3722,4.3517,4.312,4.2204,4.2735,4.3089,0.0,0.0,0.0,4.4621,4.4477,4.4285,0.0,4.4285,0.0,4.4285,4.4285,4.4285,0.0,4.3997,4.3914,4.3986,4.3481,4.2952,4.2482,4.1894,4.1365,4.0836,4.0547,4.0018,3.9272,3.896,3.8527,3.7974,3.7974,3.7974,3.7974,0.0,3.7805,3.7469,3.6723,3.6218,3.5881,3.5087,3.4775,3.4775,3.4775,3.4775,3.4775,0.0,0.0,0.0,0.0,0.0,0.0,0.0,0.0,0.0,0.0,0.0,0.0,0.0,0.0,0.0,0.0,0.0,0.0,0.0,0.0,0.0,3.1717,3.213,3.2394,3.2394,3.3332,3.3766,3.367,0.0,0.0,0.0,0.0,0.0,0.0,0.0,0.0,0.0,0.0,0.0,0.0,0.0,0.0,0.0,0.0,0.0,0.0,3.7661,3.9625,4.1035,4.1924,4.2567,4.3021,4.3197,4.4023,4.5024,4.5779,4.6853,4.7927,4.8566,4.9175,4.9688,4.9582,4.8188,4.6749,4.6575,4.5169,4.3863,4.3863,4.4269,4.4088,4.2249,4.2731,4.3075,4.2246,0.0,4.312,4.4141,4.4285,4.4285,4.4285,4.4285,4.4285,4.4285,4.4285,4.4285,4.4285,4.4285,4.4045,4.3553,4.3024,4.2554,4.1894,4.1413,4.0932,4.0403,4.0331,3.9801,3.8815,3.8743,3.8455,3.7974,3.7974,3.7974,3.7974,0.0,0.0,3.7902,3.6843,3.6411,3.629,3.5232,3.4775,3.4775,3.4775,3.4775,3.4775,0.0,0.0,0.0,0.0,0.0,0.0,0.0,0.0,0.0,0.0,3.0216,0.0,0.0,0.0,0.0,0.0,0.0,0.0,0.0,0.0,0.0,0.0,3.1789,3.1862,3.1862,3.2442,3.2539,0.0,0.0,0.0,0.0,0.0,0.0,0.0,0.0,0.0,0.0,0.0,0.0,0.0,0.0,0.0,0.0,0.0,0.0,0.0,3.7601,3.9158,4.0222,4.1338,4.2281,4.3168,4.4362,4.4828,4.5111,4.6301,4.7201,4.7927,4.8566,4.9175,4.9553,4.903,4.784,4.6488,4.5459,4.4153,0.0,0.0,4.3253,4.2825,4.1194,4.1897,4.2398,4.1225,4.2006,4.312,4.4141,4.4285,4.4285,0.0,4.4285,4.4285,4.4285,4.4285,0.0,0.0,0.0,4.4045,4.3553,4.3024,4.2386,4.1341,4.122,4.0932,4.0403,3.997,3.9441,3.8815,3.8359,3.807,3.7974,3.7974,3.7974,3.7974,3.7974,0.0,3.7902,3.6843,3.6411,3.629,3.5232,3.4775,3.4775,3.4775,3.4775,3.4775,0.0,0.0,0.0,0.0,0.0,0.0,0.0,0.0,0.0,3.0398,3.0778,3.1043,0.0,0.0,0.0,0.0,0.0,0.0,0.0,0.0,0.0,0.0,0.0,3.1717,3.1717,3.2226,0.0,0.0,0.0,0.0,0.0,0.0,0.0,0.0,0.0,0.0,0.0,0.0,0.0,0.0,0.0,0.0,0.0,0.0,0.0,0.0,0.0,3.8353,3.9424,4.0249,4.0972,4.1972,4.4273,4.5425,4.6098,4.7056,4.7782,4.842,4.9059,4.9436,4.9524,4.8885,4.7521,4.6098,4.5111,0.0,0.0,0.0,4.2789,4.2581,4.1267,4.1761,4.2176,4.1398,4.1766,4.2576,4.3721,4.3853,4.3949,4.4261,4.4285,4.4285,0.0,4.4285,0.0,0.0,0.0,4.3673,4.3144,4.2375,4.1701,4.1196,4.1172,4.0787,3.9994,3.9729,3.92,3.8383,3.8118,3.7974,3.7974,3.7974,3.7974,3.7974,3.7974,0.0,3.7902,3.6843,3.6411,3.629,3.5232,3.4775,3.4775,3.4775,3.4775,3.4775,0.0,0.0,0.0,0.0,0.0,0.0,0.0,2.9388,2.9845,3.0946,3.1452,3.1717,3.1717,3.1717,3.1717,0.0,0.0,0.0,0.0,0.0,0.0,0.0,0.0,0.0,0.0,0.0,0.0,0.0,0.0,0.0,0.0,0.0,0.0,0.0,0.0,0.0,0.0,0.0,0.0,0.0,0.0,0.0,0.0,0.0,0.0,0.0,0.0,3.7131,3.8051,3.8809,3.9383,4.0302,4.325,4.5075,4.6258,4.7126,4.7927,4.8653,4.9291,4.9582,4.9494,4.8711,4.7201,4.5663,4.4879,4.334,0.0,4.2266,4.2557,4.2462,4.1355,4.1407,4.1572,0.0,4.133,4.1865,4.3385,4.359,4.3783,0.0,4.4285,0.0,4.4285,0.0,0.0,0.0,0.0,0.0,4.2675,4.1701,4.1172,4.1172,4.1172,4.0667,3.9609,3.9609,3.9056,3.7974,3.7974,3.7974,3.7974,3.7974,3.7974,3.7974,3.7974,0.0,0.0,3.6843,3.6411,3.629,3.5232,3.4775,3.4775,3.4775,3.4775,3.4775,0.0,0.0,0.0,0.0,0.0,0.0,0.0,2.9701,3.0398,3.15,3.1669,3.1717,3.1717,3.1717,3.1717,0.0,0.0,0.0,0.0,0.0,0.0,0.0,0.0,0.0,0.0,0.0,0.0,0.0,0.0,0.0,0.0,0.0,0.0,0.0,0.0,0.0,0.0,0.0,0.0,0.0,0.0,0.0,0.0,0.0,0.0,0.0,0.0,0.0,3.5418,3.702,3.8042,3.8956,4.1203,4.2749,4.4106,4.564,0.0,0.0,4.8653,4.9233,4.9427,4.8159,4.6853,4.5576,4.4356,0.0,4.2266,4.2789,4.2528,4.1793,4.0553,4.0051,3.9928,4.0149,4.0355,4.1296,4.3613,4.3978,4.405,4.4275,0.0,0.0,0.0,0.0,0.0,0.0,0.0,0.0,4.2062,4.1509,4.1172,4.1172,4.1172,4.0667,3.9609,3.9609,3.9056,3.7974,3.7974,3.7974,3.7974,3.7974,3.7974,3.7974,3.7974,0.0,0.0,3.6843,3.6411,3.629,3.5232,3.4775,3.4775,3.4775,3.4775,3.4775,0.0,0.0,0.0,0.0,0.0,0.0,0.0,2.9749,3.0513,3.1573,3.1717,3.1717,3.1717,3.1717,3.1717,0.0,0.0,0.0,0.0,0.0,0.0,0.0,0.0,0.0,0.0,0.0,0.0,0.0,0.0,0.0,0.0,0.0,0.0,0.0,0.0,0.0,0.0,0.0,0.0,0.0,0.0,0.0,0.0,0.0,0.0,0.0,0.0,0.0,0.0,0.0,0.0,0.0,3.9581,4.0677,0.0,0.0,4.6243,4.6853,4.7869,4.8333,4.8333,4.7433,4.6534,4.5547,4.4269,4.3602,4.3079,4.2557,4.2107,4.1711,4.1426,4.0531,4.0021,4.065,4.0901,4.1351,4.2193,4.271,4.32,4.3578,4.371,0.0,0.0,0.0,0.0,0.0,0.0,0.0,4.1533,4.1293,4.1172,4.1172,4.1172,4.0667,3.9609,3.9609,3.9056,3.7974,3.7974,3.7974,3.7974,3.7974,3.7974,3.7974,3.7974,0.0,0.0,3.6723,3.6218,3.5857,3.5063,3.4775,3.4775,3.4775,3.4775,3.4775,0.0,0.0,0.0,0.0,0.0,0.0,2.8979,2.9653,3.0513,3.1573,3.1717,3.1717,3.1717,3.1717,3.1765,3.1889,0.0,0.0,0.0,0.0,0.0,0.0,0.0,0.0,0.0,0.0,0.0,3.3741,0.0,0.0,0.0,0.0,0.0,0.0,0.0,0.0,0.0,0.0,0.0,0.0,0.0,0.0,0.0,0.0,0.0,0.0,0.0,0.0,0.0,0.0,0.0,3.5441,3.8374,3.8961,3.9479,0.0,4.543,4.6098,4.6969,4.7491,4.7637,4.6998,4.6359,4.5605,4.4501,4.4124,4.3747,4.2847,4.231,4.201,4.195,4.0979,4.0305,4.0627,4.0955,4.1182,4.1329,4.1891,4.2491,0.0,0.0,0.0,0.0,0.0,0.0,0.0,0.0,0.0,4.122,4.1172,4.1172,4.1172,4.1028,4.0523,3.9609,3.9441,3.8912,3.7974,3.7974,3.7974,3.7974,3.7974,3.7974,3.7974,0.0,0.0,0.0,3.6627,3.6098,3.5569,3.504,3.4775,3.4775,3.4775,3.4775,3.4775,0.0,0.0,0.0,0.0,0.0,0.0,0.0,2.9412,3.0513,3.1573,3.1717,3.1717,3.1717,3.1717,3.1934,3.2442,0.0,0.0,0.0,0.0,0.0,0.0,0.0,0.0,0.0,0.0,3.4246,3.4751,3.5328,3.5593,0.0,0.0,0.0,0.0,0.0,0.0,0.0,0.0,0.0,0.0,0.0,0.0,0.0,0.0,0.0,0.0,0.0,0.0,0.0,0.0,0.0,0.0,0.0,3.7731,3.7794,4.1825,4.4385,4.5895,4.5895,4.6824,4.7637,4.6998,4.6359,4.5721,4.5024,4.4414,4.3979,4.3979,4.3456,4.2709,4.1777,4.1025,4.0343,3.957,3.9942,4.0641,4.1559,4.1854,4.2307,0.0,0.0,0.0,0.0,0.0,0.0,0.0,0.0,0.0,4.122,4.1172,4.1172,4.1172,4.0691,4.0138,3.9609,3.908,3.8551,3.7974,3.7974,3.7974,3.7974,3.7974,3.7974,0.0,0.0,0.0,0.0,3.6627,3.6098,3.5569,3.504,3.4775,3.4775,3.4775,3.4775,3.4775,0.0,0.0,0.0,0.0,0.0,0.0,0.0,2.9412,3.0326,3.1067,3.1476,3.1717,3.1717,3.1717,3.1934,3.2442,0.0,0.0,0.0,0.0,0.0,0.0,0.0,0.0,0.0,0.0,3.4246,3.4775,3.4943,3.5039,3.5039,3.5039,0.0,0.0,0.0,0.0,0.0,0.0,0.0,0.0,0.0,0.0,0.0,0.0,0.0,0.0,0.0,0.0,0.0,0.0,0.0,0.0,0.0,0.0,0.0,3.9915,4.181,4.3193,4.4268,4.4879,4.514,4.4937,4.5053,4.5024,4.4414,4.4443,4.4356,4.3485,4.2639,4.201,4.1979,4.1199,4.092,4.1975,4.1944,0.0,0.0,0.0,0.0,4.2919,0.0,0.0,0.0,0.0,0.0,0.0,0.0,0.0,4.122,4.1172,4.1172,4.1172,4.0667,4.0138,3.9609,3.908,3.8527,3.7974,3.7974,3.7974,3.7974,3.7974,0.0,0.0,0.0,0.0,0.0,3.6483,3.5881,3.5015,3.4895,3.4775,3.4775,3.4775,3.4775,3.4775,0.0,0.0,0.0,0.0,0.0,0.0,0.0,2.9412,3.0278,3.085,3.138,3.1717,3.1717,3.191,3.2202,3.2755,0.0,0.0,0.0,0.0,0.0,0.0,0.0,0.0,0.0,3.3982,3.4655,3.5425,3.5232,3.5232,3.5425,3.5232,3.4967,3.4775,0.0,0.0,0.0,0.0,0.0,0.0,0.0,0.0,0.0,0.0,0.0,0.0,0.0,0.0,0.0,0.0,0.0,0.0,0.0,0.0,0.0,0.0,3.9436,4.0529,4.2983,4.3805,4.3979,4.3979,4.4443,4.4792,4.4414,4.4821,4.4908,4.3631,4.2912,4.2439,4.2154,4.1577,4.1554,4.284,4.2579,0.0,0.0,0.0,0.0,4.2793,0.0,0.0,0.0,0.0,0.0,0.0,0.0,0.0,4.1196,4.1004,4.0884,4.0884,4.0379,3.985,3.932,3.8767,3.8334,3.7974,3.7974,3.7974,3.7974,3.7974,0.0,0.0,0.0,0.0,0.0,3.6411,3.5785,3.4775,3.4775,3.4775,3.4775,3.4775,3.4775,3.4775,0.0,0.0,0.0,0.0,0.0,0.0,0.0,0.0,0.0,0.0,3.1356,3.1717,3.1717,3.2178,3.2707,0.0,0.0,0.0,0.0,0.0,0.0,0.0,0.0,0.0,0.0,3.4342,3.5376,3.6338,3.5881,3.593,3.6386,3.5905,3.54,3.4847,3.4847,0.0,0.0,0.0,0.0,0.0,0.0,0.0,0.0,0.0,0.0,0.0,0.0,0.0,0.0,0.0,0.0,0.0,0.0,0.0,0.0,0.0,0.0,0.0,0.0,4.3182,4.3718,4.3718,4.4211,4.4676,4.4676,4.5198,0.0,4.4153,4.3892,4.3515,4.244,4.2208,4.2292,4.2754,4.2287,0.0,0.0,4.2583,0.0,0.0,0.0,0.0,0.0,0.0,0.0,0.0,0.0,0.0,4.1172,4.0691,4.0379,4.0331,3.9826,3.932,3.8815,3.8262,3.7974,3.7974,3.7974,3.7974,3.7974,3.7974,0.0,0.0,0.0,0.0,0.0,3.6411,3.5809,3.4823,3.4799,3.4775,3.4775,3.4775,3.4775,3.4775,0.0,0.0,0.0,0.0,0.0,0.0,0.0,0.0,0.0,0.0,0.0,3.1717,3.1717,3.2178,0.0,0.0,0.0,0.0,0.0,0.0,0.0,0.0,0.0,0.0,3.3814,3.4895,3.5545,3.5809,3.6074,3.629,3.6411,3.6266,3.593,3.5425,3.5425,3.5234,0.0,0.0,0.0,0.0,0.0,0.0,0.0,0.0,0.0,0.0,0.0,3.5114,0.0,0.0,0.0,0.0,0.0,0.0,0.0,0.0,3.6614,3.7249,3.9281,0.0,4.1018,4.1018,4.1889,4.276,0.0,4.3224,4.3602,4.3282,4.2876,4.2731,4.3427,4.3137,4.3429,4.5463,0.0,0.0,4.4687,0.0,0.0,4.407,0.0,0.0,0.0,0.0,0.0,0.0,0.0,4.1172,4.1172,4.0691,4.021,3.9801,3.9272,3.8936,3.8815,3.8262,3.7974,3.7974,3.7974,3.7974,3.7974,3.7974,0.0,0.0,0.0,0.0,3.6988,3.6579,3.6026,3.54,3.4943,3.4775,3.4775,3.4775,3.4775,3.4775,0.0,0.0,0.0,0.0,0.0,0.0,0.0,0.0,0.0,0.0,0.0,0.0,0.0,0.0,0.0,0.0,0.0,0.0,0.0,0.0,0.0,0.0,0.0,0.0,3.4006,3.5064,3.5737,3.5978,3.6266,3.6531,3.6771,3.6266,3.5881,3.5593,3.5451,3.5356,0.0,0.0,0.0,0.0,0.0,0.0,0.0,0.0,0.0,0.0,3.4775,3.5066,0.0,3.5259,3.5668,3.6143,0.0,0.0,0.0,0.0,3.6293,3.6887,3.777,3.9693,4.1424,4.1424,4.2411,4.3369,4.3369,4.3398,4.3369,4.305,4.2963,4.3079,4.3456,4.33,4.3929,4.6413,4.474,0.0,0.0,0.0,4.4443,0.0,0.0,0.0,0.0,0.0,0.0,0.0,0.0,4.1172,4.1172,4.0451,3.9898,3.9609,3.8839,3.8431,3.8431,3.8142,3.7974,3.7974,3.7974,3.7974,3.7974,3.7974,3.7974,0.0,0.0,0.0,3.718,3.6892,3.6459,3.593,3.54,3.5184,3.516,3.4871,3.4775,3.4775,0.0,0.0,0.0,0.0,0.0,0.0,0.0,0.0,0.0,0.0,0.0,0.0,0.0,0.0,0.0,0.0,0.0,0.0,0.0,0.0,0.0,0.0,0.0,3.4558,3.4126,3.5063,3.5881,3.6411,3.6483,3.6747,3.718,3.6266,3.5761,3.5643,3.5308,3.5235,0.0,0.0,0.0,0.0,0.0,0.0,0.0,0.0,0.0,0.0,0.0,0.0,0.0,3.5187,3.5572,3.6003,3.5668,0.0,0.0,0.0,0.0,0.0,3.7276,4.0167,4.305,4.2644,4.366,4.4734,4.4618,4.4269,4.3834,4.3253,4.3602,4.382,4.3314,4.3434,0.0,0.0,0.0,0.0,4.3337,4.4218,4.454,0.0,0.0,0.0,0.0,0.0,0.0,0.0,0.0,4.1206,4.1076,4.0138,3.9561,3.9489,3.8503,3.7974,3.7974,3.7974,3.7974,3.7974,3.7974,3.7974,3.7974,3.7974,3.7974,0.0,0.0,0.0,3.73,3.7228,3.694,3.6459,3.5857,3.5617,3.5545,3.4967,3.4775,3.4823,0.0,0.0,0.0,0.0,0.0,0.0,0.0,0.0,0.0,0.0,0.0,0.0,0.0,0.0,0.0,0.0,0.0,0.0,0.0,0.0,0.0,0.0,3.4751,3.4751,3.4655,3.5304,3.5881,3.6411,3.6843,3.7108,3.7204,3.7036,3.6584,3.589,3.5405,3.5476,3.586,0.0,0.0,0.0,0.0,0.0,0.0,0.0,0.0,0.0,0.0,0.0,0.0,3.5017,3.55,3.6216,3.5524,0.0,0.0,0.0,0.0,0.0,3.9043,4.1552,4.3311,4.1105,4.2353,4.3979,4.3398,4.366,4.395,4.3863,4.3921,4.4007,4.4089,4.4869,4.5671,0.0,0.0,4.4732,0.0,0.0,0.0,0.0,0.0,0.0,0.0,0.0,0.0,0.0,0.0,0.0,4.0547,3.9946,3.9393,3.896,3.831,3.7974,3.7974,3.7974,3.7974,3.7974,3.7974,3.7974,3.7974,3.7974,3.7974,0.0,0.0,3.7926,3.7829,3.7372,3.7156,3.6964,3.6002,3.5617,3.5545,3.4967,3.4775,3.4823,0.0,0.0,0.0,0.0,0.0,0.0,0.0,0.0,0.0,0.0,0.0,0.0,0.0,0.0,0.0,0.0,0.0,0.0,0.0,0.0,0.0,3.4775,3.4775,3.4775,3.4775,3.5617,3.6026,3.5978,3.7084,3.7469,3.718,3.6892,3.6245,3.5331,3.5381,3.5476,3.5572,3.574,0.0,0.0,0.0,0.0,0.0,0.0,0.0,0.0,0.0,0.0,0.0,0.0,3.5404,3.6146,3.574,0.0,0.0,0.0,0.0,0.0,3.9791,4.1946,4.3689,4.2498,4.4124,4.5953,4.5663,4.4995,4.4472,4.4472,4.4472,4.4515,4.4617,0.0,4.6053,4.6228,0.0,4.6234,4.4516,0.0,0.0,0.0,0.0,0.0,0.0,0.0,0.0,0.0,0.0,0.0,4.066,0.0,3.9219,3.8815,3.8262,3.7974,3.7974,3.7974,3.7974,3.7974,3.7974,3.7974,3.7974,3.7974,3.7974,3.8027,0.0,3.8133,3.8027,3.7891,3.777,3.7517,3.6459,3.615,3.6154,3.5478,3.5235,3.5284,0.0,0.0,0.0,0.0,0.0,0.0,0.0,0.0,0.0,0.0,0.0,0.0,0.0,0.0,0.0,0.0,0.0,0.0,0.0,0.0,3.4775,3.4775,3.4775,3.4847,3.4967,3.5689,3.5954,3.5809,3.7012,3.7521,3.7284,3.6753,3.6056,3.5308,3.5648,3.5744,3.5696,3.6273,3.6443,0.0,0.0,0.0,0.0,0.0,0.0,0.0,0.0,0.0,0.0,0.0,0.0,0.0,0.0,0.0,0.0,3.8749,3.9562,4.0408,4.0699,4.2121,4.366,4.4095,4.5663,4.723,4.7695,4.6272,4.5024,4.5459,4.543,4.5299,0.0,4.5618,0.0,4.6648,4.7229,4.6919,0.0,0.0,0.0,0.0,0.0,0.0,0.0,0.0,0.0,0.0,0.0,0.0,4.055,0.0,3.915,3.8785,3.8321,3.808,3.808,3.808,3.808,3.7974,3.7974,3.7974,3.7974,3.7974,3.8027,3.808,3.8315,3.8315,3.8185,3.8344,3.8315,3.7983,3.6922,3.6495,3.6453,3.5819,3.562,3.562,0.0,0.0,0.0,0.0,0.0,0.0,0.0,0.0,0.0,0.0,0.0,0.0,0.0,0.0,0.0,0.0,0.0,0.0,0.0,0.0,3.4775,3.4775,3.4775,3.5015,3.5545,3.516,3.54,3.6338,3.6459,3.685,3.7542,3.7008,3.6749,3.6626,3.6456,3.6602,3.7014,3.6869,3.7071,3.7444,0.0,0.0,0.0,0.0,0.0,0.0,0.0,0.0,0.0,0.0,0.0,0.0,0.0,0.0,3.92,3.9448,4.0238,4.1279,4.2469,4.2498,4.2644,4.4385,4.4966,4.5576,4.7375,4.6272,4.5401,4.7201,4.7114,4.6403,0.0,4.5785,4.656,4.7724,4.7074,4.6032,0.0,0.0,0.0,0.0,0.0,0.0,0.0,0.0,0.0,0.0,0.0,0.0,0.0,0.0,0.0,3.881,3.855,3.8368,3.8368,3.8368,3.8262,3.7974,3.7974,3.7974,3.7974,3.7974,3.8157,3.8368,3.8421,3.8526,3.8736,3.8473,3.8421,3.8247,3.7178,3.6307,3.5671,3.5597,3.562,3.562,0.0,0.0,0.0,0.0,0.0,0.0,0.0,0.0,0.0,0.0,0.0,0.0,0.0,0.0,0.0,0.0,0.0,0.0,0.0,0.0,3.4438,3.4775,3.4775,3.5064,3.5617,3.5737,3.5833,3.5905,3.6579,3.7039,3.7336,3.7142,3.679,3.6309,3.6211,3.6186,3.623,3.6649,3.6897,3.7071,3.6873,0.0,0.0,0.0,0.0,0.0,0.0,0.0,0.0,0.0,3.5572,3.6098,3.6521,3.7723,3.9139,4.0012,4.0943,4.1831,4.2295,4.2853,4.3573,4.4617,4.4658,4.4998,4.73,4.7201,4.6998,4.813,4.7869,4.7311,0.0,0.0,4.7444,4.8284,4.7819,0.0,0.0,0.0,0.0,0.0,0.0,0.0,0.0,0.0,0.0,0.0,0.0,0.0,0.0,0.0,0.0,3.8788,3.8526,3.8421,3.8421,3.8421,3.8368,3.8238,3.8421,3.8421,3.8238,3.8238,3.8291,3.8421,3.8579,3.8736,3.8788,3.8945,3.854,3.7813,3.6894,3.626,3.586,3.6051,3.6073,3.6121,0.0,0.0,0.0,0.0,0.0,0.0,0.0,0.0,0.0,0.0,0.0,0.0,0.0,0.0,0.0,0.0,0.0,0.0,0.0,3.3814,3.415,3.451,3.4703,3.4943,3.5352,3.5881,3.5978,3.5617,3.6338,3.6823,3.7067,3.716,3.6928,3.638,3.638,3.6309,3.6234,3.6699,3.7019,3.7168,3.6994,3.6771,0.0,0.0,0.0,0.0,0.0,0.0,0.0,0.0,3.5473,3.6003,3.6756,3.7678,3.8738,4.0071,4.0843,4.144,4.1977,4.2366,4.2879,4.39,4.3881,4.426,4.6702,4.7224,4.7521,4.8769,4.8362,4.784,4.8043,0.0,0.0,0.0,0.0,0.0,0.0,0.0,0.0,0.0,0.0,0.0,0.0,0.0,0.0,0.0,0.0,0.0,0.0,0.0,0.0,0.0,3.8841,3.8684,3.8684,3.8684,3.8684,3.8684,3.8945,3.8893,3.8526,3.8526,3.8579,3.8684,3.8893,3.8998,3.9102,3.9258,3.863,3.7533,3.6825,3.633,3.6146,3.631,3.6405,3.6405,0.0,0.0,0.0,0.0,0.0,0.0,0.0,0.0,0.0,0.0,0.0,0.0,0.0,0.0,0.0,0.0,0.0,0.0,3.2491,3.3406,3.3982,3.3982,3.4486,3.4775,3.4775,3.5352,3.5617,3.5617,3.5617,3.6006,3.6765,3.7043,3.7173,3.7168,3.7168,3.7318,3.7593,3.7315,3.7487,3.7939,3.7412,3.6716,0.0,0.0,0.0,0.0,0.0,0.0,0.0,0.0,3.5367,3.574,3.6499,3.7222,3.8069,3.9475,3.9769,4.0006,4.1805,4.0892,3.9936,4.1982,4.2497,4.3138,4.5559,4.6039,4.6621,4.9146,4.8682,4.7985,4.8624,4.8217,0.0,0.0,0.0,0.0,0.0,0.0,0.0,0.0,0.0,0.0,0.0,0.0,0.0,0.0,0.0,0.0,0.0,0.0,0.0,0.0,3.9413,3.931,3.931,3.931,3.931,3.931,3.9569,3.9362,3.8788,3.8788,3.8998,3.931,3.931,3.9413,3.9697,3.9413,3.8612,3.7519,3.6973,3.662,3.6405,3.6405,3.6405,3.6405,0.0,0.0,0.0,0.0,0.0,0.0,0.0,0.0,0.0,0.0,0.0,0.0,0.0,0.0,0.0,0.0,0.0,0.0,3.2491,3.2779,3.3284,3.3958,3.415,3.439,3.4775,3.4992,3.5425,3.617,3.617,3.6293,3.6512,3.663,3.6666,3.6604,3.6455,3.6481,3.6764,3.6893,3.7116,3.7412,3.7236,3.7038,0.0,0.0,0.0,0.0,0.0,0.0,0.0,0.0,0.0,0.0,3.642,3.7339,3.8179,3.8737,3.9617,4.0392,4.0133,4.0875,4.1856,4.2362,4.351,4.4948,4.6489,4.6769,4.721,4.88,4.8789,4.8508,4.8682,0.0,0.0,0.0,0.0,0.0,0.0,0.0,0.0,0.0,0.0,0.0,0.0,0.0,0.0,0.0,0.0,0.0,0.0,0.0,0.0,0.0,3.9039,3.886,3.931,3.886,3.8662,3.8662,3.8993,3.9167,3.9154,3.9154,3.9206,3.931,3.931,3.9413,3.9622,3.8565,3.7767,3.7241,3.6498,3.6295,3.6405,3.6405,3.6405,3.6405,0.0,0.0,0.0,0.0,0.0,0.0,0.0,0.0,0.0,0.0,3.2184,3.2475,0.0,0.0,0.0,0.0,0.0,0.0,0.0,0.0,3.2779,3.3404,3.3766,3.4246,3.4775,3.4775,3.5136,3.5785,3.5785,3.5785,3.5785,3.6102,3.618,3.6063,3.626,3.6333,3.6422,3.657,3.6739,3.6908,3.6908,3.6686,3.6366,0.0,0.0,0.0,0.0,0.0,0.0,0.0,0.0,0.0,3.6351,3.689,3.745,3.8161,3.8622,3.8998,3.9446,4.0326,4.1349,4.2316,4.3663,4.5134,4.6537,4.7393,4.8028,0.0,4.8787,4.875,4.9059,4.8885,0.0,0.0,0.0,0.0,0.0,0.0,0.0,0.0,0.0,0.0,0.0,0.0,0.0,0.0,0.0,0.0,0.0,0.0,0.0,0.0,3.8992,3.874,3.9141,3.854,3.8241,3.8241,3.8467,3.8642,3.8765,3.9041,3.9265,3.9465,3.924,3.9243,3.927,3.7991,3.7341,3.7136,3.6441,3.6288,3.6405,3.6405,3.6405,3.6405,0.0,0.0,0.0,0.0,0.0,0.0,0.0,0.0,0.0,0.0,3.2225,3.2352,0.0,0.0,0.0,0.0,0.0,0.0,0.0,0.0,3.2442,3.2491,3.343,3.4246,3.4775,3.4727,3.4727,3.4775,3.4775,3.4775,3.4847,3.5574,3.5792,3.5644,3.6407,3.6578,3.6333,3.6368,3.638,3.6329,3.638,3.5962,3.5376,3.5852,0.0,0.0,0.0,0.0,0.0,0.0,0.0,0.0,3.631,3.6241,3.6293,3.7625,3.7061,3.6628,3.9128,3.9375,3.9432,4.1915,4.3302,4.4497,4.6102,4.7699,4.8731,4.8731,0.0,4.8876,4.9504,4.9156,0.0,0.0,0.0,0.0,0.0,0.0,0.0,0.0,0.0,0.0,0.0,0.0,0.0,0.0,0.0,0.0,0.0,0.0,0.0,3.9697,3.912,3.8818,3.8919,3.8241,3.7939,0.0,3.7939,3.7939,3.7939,3.8592,3.9145,3.9597,3.9094,3.8869,3.8693,3.7613,3.7161,3.7061,3.6606,3.6405,3.6405,3.6405,3.6405,3.6405,0.0,0.0,0.0,0.0,0.0,0.0,0.0,0.0,0.0,0.0,0.0,0.0,0.0,0.0,0.0,0.0,0.0,0.0,0.0,0.0,3.2034,3.2491,3.343,3.4246,3.4775,3.4366,3.4366,3.4775,3.4775,3.4775,3.4823,3.5187,3.543,3.5648,3.5985,3.6001,3.5719,3.6185,3.6107,3.5708,3.6182,3.6282,3.6135,3.6285,3.5937,0.0,0.0,0.0,0.0,0.0,0.0,0.0,3.6232,3.6358,3.6335,3.6461,3.6486,3.6606,3.6975,3.8201,3.9844,4.1471,4.3919,4.6046,4.6374,4.7081,4.7647,4.7647,4.8296,4.8886,4.9079,0.0,0.0,0.0,0.0,0.0,0.0,0.0,0.0,0.0,0.0,0.0,0.0,0.0,0.0,0.0,0.0,0.0,0.0,0.0,0.0,3.9697,3.8718,3.8417,3.8919,3.7864,3.7362,0.0,3.7362,3.7362,3.7387,3.8417,3.8944,3.9095,3.8969,3.8416,3.7538,3.7287,3.6935,3.6581,3.6455,3.6405,3.6405,3.6405,3.6405,3.6405,0.0,0.0,0.0,0.0,0.0,0.0,0.0,0.0,0.0,0.0,0.0,0.0,0.0,0.0,0.0,0.0,0.0,0.0,0.0,0.0,3.2078,3.2851,3.3404,3.4054,3.4751,3.451,3.451,3.4775,3.4775,3.4872,3.4993,3.5527,3.5795,3.5795,3.6327,3.6173,3.5581,3.5862,3.5655,3.5132,3.5454,3.5579,3.5579,3.5579,3.5403,3.5107,3.5107,0.0,0.0,0.0,0.0,0.0,0.0,0.0,3.5494,3.5901,3.563,3.5407,3.6282,3.7518,3.9144,4.1336,4.3886,4.5795,4.5795,4.6403,4.6925,4.6925,4.7801,4.8531,4.8531,0.0,0.0,0.0,0.0,0.0,0.0,0.0,0.0,0.0,0.0,0.0,0.0,0.0,0.0,0.0,0.0,0.0,0.0,3.9697,3.9697,3.9697,3.8592,3.814,3.8467,3.7337,3.6832,3.6832,3.6832,3.6935,3.7236,3.8366,3.8919,3.8894,3.8567,3.7965,3.7161,3.6933,3.6681,3.6405,3.6405,3.6405,3.6405,3.6405,3.6405,3.6405,0.0,0.0,0.0,0.0,0.0,0.0,0.0,0.0,0.0,0.0,0.0,0.0,0.0,0.0,0.0,0.0,0.0,0.0,0.0,3.1516,3.2199,3.3236,3.3284,3.3765,3.4751,3.4703,3.4727,3.4872,3.4727,3.4969,3.5649,3.6162,3.6284,3.6112,3.6847,3.6595,3.5591,3.5497,3.5182,3.468,3.468,3.468,3.468,3.4625,3.4525,3.4424,3.4424,3.4726,3.5082,3.5182,0.0,0.0,0.0,0.0,3.4239,3.5183,3.4462,3.3869,3.5771,3.7047,3.8517,4.1353,4.3407,4.4727,4.4727,4.5422,4.6056,4.6027,4.7019,4.7976,0.0,0.0,0.0,0.0,0.0,0.0,0.0,0.0,0.0,0.0,0.0,0.0,0.0,0.0,0.0,0.0,0.0,0.0,3.9697,3.9697,3.9697,3.9697,3.8592,3.8015,3.8015,3.6958,3.6405,3.6405,3.6405,3.6707,3.7211,3.8215,3.8617,3.8592,3.8065,3.7563,3.7059,3.6606,3.6405,3.6405,3.6405,3.6405,3.6405,3.6405,3.6405,3.6405,0.0,0.0,0.0,0.0,0.0,0.0,0.0,0.0,0.0,0.0,3.2686,3.2327,3.1571,3.1455,0.0,0.0,0.0,0.0,3.0941,0.0,0.0,3.3236,3.3284,3.3765,3.4751,3.4318,3.4462,3.5138,3.4462,3.5187,3.7271,3.6702,3.6383,3.6383,3.6944,3.6561,3.5515,3.5487,3.5182,3.468,3.468,3.468,3.4675,3.4198,3.3721,3.3294,3.3294,3.3345,3.347,3.3947,3.45,0.0,0.0,0.0,0.0,3.3165,3.3002,3.3019,3.4026,3.6452,3.9245,4.1268,4.2544,4.3295,4.3295,0.0,4.4388,0.0,4.5774,0.0,0.0,0.0,0.0,0.0,0.0,0.0,0.0,0.0,0.0,0.0,0.0,0.0,0.0,0.0,0.0,0.0,0.0,0.0,3.9697,3.9697,3.9697,3.9697,3.8592,3.8015,3.8015,3.6958,3.6405,3.6405,3.6405,3.6707,3.7186,3.7337,3.7412,3.7412,3.7337,3.6985,3.6505,3.643,3.6405,3.6405,3.6405,3.6405,3.6405,3.6405,3.6405,3.6405,0.0,0.0,0.0,0.0,0.0,0.0,0.0,0.0,0.0,0.0,0.0,3.2457,3.1783,3.1563,0.0,0.0,0.0,0.0,3.0441,3.0927,0.0,0.0,0.0,3.3188,3.3958,3.3452,3.362,3.4534,3.362,3.4461,3.6943,3.6923,3.7294,3.8013,3.8116,3.7415,3.6196,3.5386,3.4731,3.4248,3.3922,3.4173,3.4625,3.3771,3.347,3.3495,3.3237,3.2867,3.2667,3.3244,3.3796,3.4173,3.3621,0.0,0.0,0.0,3.2112,3.2098,3.3762,3.5647,3.7613,3.9193,4.0525,4.1468,4.1771,4.249,4.2995,4.2814,0.0,0.0,0.0,0.0,0.0,0.0,0.0,0.0,0.0,0.0,0.0,0.0,0.0,0.0,0.0,0.0,0.0,0.0,0.0,4.0262,3.9749,3.9697,3.9697,3.9697,3.8592,3.8015,3.8015,3.6958,3.6405,3.6405,3.6732,3.6784,3.6782,3.7036,3.7186,3.7186,3.7186,3.6933,3.6405,3.6405,3.6405,3.6405,3.6405,3.6405,3.6405,3.6405,3.6405,3.6405,0.0,0.0,0.0,0.0,0.0,0.0,0.0,0.0,0.0,0.0,0.0,0.0,3.2012,0.0,0.0,0.0,0.0,0.0,2.9887,0.0,0.0,0.0,0.0,0.0,3.3284,3.2779,3.2947,3.3884,3.2947,3.3932,3.6765,3.7118,3.8137,3.9613,3.9269,3.8291,3.6821,3.5637,3.4826,3.4274,3.3872,3.4123,3.465,3.3972,3.3872,3.4048,3.3495,3.2817,3.229,3.2717,3.3043,3.3169,3.2616,0.0,0.0,0.0,0.0,3.139,3.3588,3.4698,3.5673,3.7287,3.8607,3.9597,0.0,0.0,4.1612,0.0,0.0,0.0,0.0,0.0,0.0,0.0,0.0,0.0,0.0,0.0,0.0,0.0,0.0,0.0,0.0,0.0,0.0,0.0,0.0,4.0743,3.9749,3.9697,3.9697,3.9697,3.8743,3.8165,3.8015,3.6958,3.6405,3.6405,3.6832,3.6807,3.643,3.6784,3.6985,3.6985,3.6985,3.6782,3.6405,3.6405,3.6405,3.6405,3.6405,3.6405,3.6405,3.6405,3.6405,3.6405,0.0,0.0,0.0,0.0,0.0,0.0,0.0,0.0,0.0,0.0,0.0,0.0,3.2173,3.1712,3.1304,3.1075,0.0,0.0,0.0,0.0,0.0,0.0,0.0,0.0,3.326,3.2779,3.2846,3.3633,3.2846,3.4261,3.7643,3.7419,3.8437,4.0398,3.9898,3.8743,3.7136,3.6581,3.5956,3.5408,3.5382,3.5082,3.4731,3.5182,3.5056,3.46,3.4048,3.3144,3.2215,3.224,3.1938,3.1436,3.0909,3.106,3.1235,0.0,0.0,0.0,3.3021,3.3578,3.4156,3.6332,3.7302,3.7785,0.0,0.0,0.0,0.0,0.0,0.0,0.0,0.0,0.0,0.0,0.0,0.0,0.0,0.0,0.0,0.0,0.0,0.0,0.0,0.0,0.0,0.0,0.0,4.0743,3.9749,3.9697,3.9697,3.9697,3.912,3.8567,3.8015,3.6958,3.6405,3.6405,3.643,3.643,3.6405,3.643,3.6455,3.6455,3.6455,3.643,3.6405,3.6405,3.6405,3.6405,3.6405,3.6405,3.6405,3.6405,3.6405,3.6405,0.0,0.0,0.0,0.0,0.0,0.0,0.0,0.0,0.0,0.0,0.0,0.0,0.0,3.1938,3.1345,3.1304,3.0428,0.0,0.0,0.0,0.0,0.0,0.0,0.0,0.0,3.1809,3.1934,3.2916,3.2067,3.3214,3.6088,3.638,3.7245,3.8614,3.9044,3.8617,3.7638,3.6358,3.5683,3.5508,3.5508,3.5809,3.6257,3.5683,3.5608,3.5629,3.4349,3.3169,3.2215,3.2215,3.2089,3.1763,3.0884,3.0959,3.1185,3.0105,3.0407,3.1245,3.1771,3.2159,3.2959,3.4961,3.5502,3.5843,3.6955,3.7737,3.8157,0.0,0.0,0.0,0.0,0.0,0.0,0.0,0.0,0.0,0.0,0.0,0.0,0.0,0.0,0.0,0.0,0.0,0.0,0.0,0.0,0.0,4.0693,4.0032,3.9697,3.9697,3.917,3.8417,3.7487,3.7086,3.6757,3.6405,3.6405,3.6405,3.6405,3.6405,3.6405,3.6405,3.6405,3.6405,3.6405,3.6405,3.6405,3.6405,3.6405,3.6405,3.6405,3.6405,3.6405,3.6405,0.0,0.0,0.0,0.0,0.0,0.0,0.0,0.0,0.0,3.3445,0.0,0.0,0.0,0.0,3.1546,3.1329,3.1032,3.0654,3.0278,0.0,0.0,0.0,0.0,0.0,0.0,3.1317,3.1443,3.2316,3.1661,3.2665,3.523,3.5563,3.6424,3.7742,3.8166,3.8191,3.7939,3.6787,3.611,3.5855,3.6185,3.6584,3.691,3.6935,3.6835,3.6558,3.5604,3.4324,3.3068,0.0,0.0,3.2315,3.121,3.0859,3.0758,3.0231,3.0457,3.0844,3.0882,3.1165,3.1921,3.3839,3.4345,3.4768,3.6184,0.0,3.7091,0.0,0.0,0.0,0.0,0.0,0.0,0.0,0.0,0.0,0.0,0.0,0.0,0.0,0.0,0.0,0.0,0.0,0.0,0.0,0.0,0.0,4.0794,4.0083,3.9697,3.9697,3.917,3.8567,3.7764,3.7362,3.701,3.6681,3.6505,3.6405,3.6405,3.6405,3.6405,3.6405,3.6405,3.6405,3.6405,3.6405,3.6405,3.6405,3.6405,3.6405,3.6405,3.6405,3.6405,3.6405,0.0,0.0,0.0,0.0,0.0,0.0,0.0,0.0,3.3947,3.3922,0.0,0.0,0.0,0.0,0.0,3.1224,3.163,3.162,3.091,3.086,0.0,0.0,0.0,0.0,3.1761,3.1428,3.1515,3.205,3.1755,3.2846,3.5155,3.5155,3.6168,3.7939,3.7387,3.7462,3.799,3.7965,3.7337,3.6531,3.7563,3.7362,3.6707,3.8818,3.8617,3.7287,3.7789,3.6609,0.0,3.4731,0.0,0.0,3.1788,3.0708,2.9955,3.0457,3.0256,2.998,0.0,0.0,0.0,0.0,0.0,0.0,3.5698,0.0,0.0,0.0,0.0,0.0,0.0,0.0,0.0,0.0,0.0,0.0,0.0,0.0,0.0,0.0,0.0,0.0,0.0,0.0,0.0,0.0,0.0,4.194,3.9852,3.9749,3.9697,3.9697,3.917,3.8944,3.8919,3.7764,3.7211,3.7186,3.6681,3.6405,3.6405,3.6405,3.6405,3.6405,3.6405,3.6405,3.6405,3.6405,3.6405,3.6405,3.6405,3.6405,3.6405,3.6405,3.6405,3.6405,0.0,0.0,0.0,0.0,0.0,3.6182,3.5583,3.5232,3.4906,0.0,0.0,0.0,3.4248,3.3771,3.3176,3.2624,3.2682,3.2682,3.2489,3.2446,3.2496,3.2561,3.2785,3.2926,3.2985,3.2774,3.273,3.2877,3.2556,3.2934,3.3966,3.417,3.5182,3.6857,3.6707,3.6933,3.7387,3.6985,3.6933,3.6985,3.7287,3.7713,0.0,0.0,0.0,0.0,0.0,3.6759,3.5952,0.0,3.5177,3.4073,3.2968,3.1838,3.0909,3.0683,3.106,3.1311,3.0306,0.0,0.0,0.0,0.0,0.0,0.0,0.0,0.0,0.0,0.0,0.0,0.0,0.0,0.0,0.0,0.0,0.0,0.0,0.0,0.0,0.0,0.0,0.0,0.0,0.0,0.0,0.0,4.3719,4.2851,4.1491,4.0311,3.9697,3.9697,3.9546,3.927,3.8919,3.814,3.7588,3.7186,3.6681,3.6405,3.6405,3.6405,3.6405,3.6405,3.6405,3.6405,3.6405,3.6405,3.6405,3.6405,3.6405,3.6405,3.6405,3.6405,3.6405,3.6405,0.0,0.0,0.0,0.0,0.0,3.638,3.6232,3.5784,3.5458,0.0,0.0,0.0,3.468,3.465,3.4349,3.3796,3.3771,3.3671,3.3445,3.342,3.3276,3.2939,3.3289,3.3454,3.3365,3.3588,3.3567,3.3321,3.322,3.3352,3.3676,3.4034,3.4876,3.6031,3.6304,3.6581,3.6883,3.6556,3.6606,3.6933,3.7337,0.0,0.0,3.8216,3.8216,0.0,0.0,0.0,3.6405,3.6405,3.5479,0.0,3.3113,3.2127,3.1336,3.1035,3.1386,3.1662,3.0708,3.0909,3.1587,3.2365,0.0,0.0,0.0,3.4523,0.0,0.0,0.0,0.0,0.0,0.0,0.0,0.0,0.0,0.0,0.0,0.0,0.0,0.0,0.0,0.0,0.0,0.0,0.0,4.4271,4.3445,4.2459,4.1183,4.0209,3.9697,3.9697,3.9697,3.9546,3.922,3.8417,3.7839,3.7513,3.6782,3.6405,3.6405,3.6405,3.6405,3.6405,3.6405,3.6405,3.6405,3.6405,3.6405,3.6405,3.6405,3.6405,3.6405,3.6405,3.6405,3.6405,0.0,0.0,3.7111,3.7186,3.6832,3.6656,3.7111,3.6358,3.5931,0.0,3.5705,3.5077,3.5077,3.5433,3.5483,3.5027,3.4876,3.46,3.4123,3.4022,3.3683,3.2965,3.3419,3.3628,3.3473,3.4169,3.4259,3.3717,3.389,3.3997,3.3997,3.45,3.4981,3.5508,3.5981,3.6304,3.6405,3.6355,3.638,3.6581,3.7513,3.7688,0.0,0.0,3.8617,3.7437,3.7839,3.7337,3.648,3.643,3.5282,0.0,3.272,3.1899,3.1348,3.1422,3.1397,3.1439,3.1446,3.1486,3.1712,3.2742,3.2541,0.0,3.3936,3.3841,3.3722,0.0,0.0,0.0,0.0,0.0,0.0,0.0,0.0,0.0,0.0,0.0,0.0,0.0,0.0,0.0,4.5899,4.5546,4.4859,4.3779,4.2632,4.1338,3.9774,3.9697,3.9697,3.9697,3.9697,3.9672,3.9597,3.8542,3.7965,3.7889,3.686,3.6405,3.6405,3.6405,3.6405,3.6405,3.6405,3.6405,3.6405,3.6405,3.6405,3.6405,3.6405,3.6405,3.6405,3.6405,3.6405,3.6405,0.0,3.6835,3.6707,3.7111,3.7086,3.7061,3.7161,3.701,3.7061,3.7613,3.7487,3.7362,3.7362,3.7061,3.6835,3.6709,3.5859,3.5282,3.5182,3.4756,3.4455,3.431,3.4835,3.509,3.5044,3.519,3.5236,3.5136,3.4731,3.455,3.4575,3.4675,3.4981,3.5483,3.5203,3.5529,3.638,3.5881,0.0,3.7036,3.7262,0.0,3.8567,3.8391,3.8417,3.8492,3.814,3.7588,3.7008,3.6556,3.5315,3.3902,0.0,3.2059,3.0945,3.1432,3.153,3.1588,3.1955,3.2039,3.2114,3.2315,0.0,0.0,3.3583,3.3533,3.3539,0.0,0.0,0.0,0.0,0.0,0.0,0.0,0.0,0.0,0.0,0.0,0.0,0.0,0.0,0.0,4.3602,4.4349,4.4351,4.3229,4.2106,4.0938,3.9747,3.9697,3.9697,3.9697,3.9697,3.9471,3.9044,3.8341,3.7789,3.7337,3.6732,3.6405,3.6405,3.6405,3.6405,3.6405,3.6405,3.6405,3.6405,3.6405,3.6405,3.6405,3.6405,3.6405,3.6405,3.6405,3.6405,3.6405,0.0,3.7186,3.7262,3.7538,3.7362,3.7387,3.7939,3.7789,3.7789,3.8366,3.8442,3.8316,3.804,3.8015,3.7789,3.7236,3.6684,3.6132,3.5533,3.5232,3.4956,3.4726,3.5207,3.5508,3.5508,3.5805,3.5805,3.5508,3.5232,3.4956,3.4726,3.4956,3.5232,3.5508,3.5529,3.5902,3.638,3.6081,3.6282,3.6883,3.7737,0.0,3.927,3.927,3.927,3.917,3.8316,3.7462,3.6686,3.5861,3.5203,0.0,0.0,3.2418,3.1971,0.0,3.1796,3.1309,3.2069,3.213,3.189,3.189,0.0,0.0,0.0,3.3043,3.2925,3.3965,0.0,0.0,0.0,0.0,0.0,0.0,0.0,0.0,0.0,0.0,0.0,0.0,0.0,0.0,4.2986,4.3517,4.35,4.264,4.1806,4.0924,4.0149,3.9848,3.9697,3.9697,3.9697,3.9572,3.927,3.8442,3.7864,3.7588,3.6807,3.6405,3.6405,3.6405,3.6405,3.6405,3.6405,3.6405,3.6405,3.6405,3.6405,3.6405,3.6405,3.6405,3.6405,3.6405,3.6405,3.6405,3.7287,3.7563,3.7939,3.7739,3.7588,3.7789,3.8567,3.8391,3.8341,3.8869,3.9095,3.9019,3.8542,3.8818,3.8718,3.7889,3.7538,3.696,3.6034,3.5884,3.5608,3.5203,3.5529,3.5708,3.5809,3.6182,3.6132,3.5658,3.5658,3.5433,3.5052,3.5458,3.5658,3.5683,3.6056,3.6304,3.6405,3.6304,0.0,3.7008,0.0,3.9094,3.9295,3.9948,3.9848,3.9245,3.8216,3.7211,3.6263,3.5427,3.5086,3.4766,3.3193,3.2791,0.0,0.0,0.0,0.0,0.0,0.0,0.0,0.0,0.0,3.2319,0.0,0.0,0.0,3.2878,0.0,0.0,0.0,0.0,0.0,0.0,0.0,0.0,0.0,0.0,0.0,0.0,0.0,0.0,0.0,4.2559,4.2409,4.2238,4.1354,4.0752,4.0526,3.9998,3.9697,3.9697,3.9697,3.9647,3.9546,3.8617,3.8065,3.7839,3.6983,3.6505,3.6405,3.6405,3.6405,3.6405,3.6405,3.6405,3.6405,3.6405,3.6405,3.6405,3.6405,3.6405,3.6405,3.6405,3.6405,3.6405,3.6908,3.7287,3.7688,3.6757,3.7788,3.8542,3.8165,3.8492,3.8844,3.8919,3.9722,4.03,4.0249,3.9848,3.9747,4.0099,3.8768,3.7864,3.7739,3.7262,3.696,3.691,3.6531,3.6508,3.6985,3.6631,3.638,3.6329,3.6329,3.6279,3.6229,3.6279,3.6329,3.6304,3.583,3.5906,3.638,0.0,3.6784,0.0,3.932,3.8743,0.0,3.8642,3.8693,3.8115,3.7487,3.6933,3.6358,0.0,3.4993,3.3534,0.0,3.294,3.1878,3.2417,0.0,0.0,0.0,0.0,0.0,0.0,3.2229,0.0,0.0,0.0,3.2903,3.2536,0.0,0.0,0.0,0.0,0.0,0.0,0.0,0.0,0.0,0.0,0.0,0.0,0.0,0.0,0.0,0.0,4.1178,4.2137,4.0352,3.9546,4.0475,3.9998,3.9697,3.9697,3.9697,3.9446,3.902,3.8894,3.8266,3.7287,3.7161,3.6835,3.6405,3.6405,3.6405,3.6405,3.6405,3.6405,3.6405,3.6405,3.6405,3.6405,3.6405,3.6405,3.6405,3.6405,3.6405,3.6405,3.7209,3.7462,3.7764,3.6985,3.7688,3.8391,3.8492,3.927,3.9823,3.9823,4.0224,4.0877,4.1831,4.1178,4.0877,4.143,0.0,3.9546,0.0,0.0,3.8015,3.7688,3.7437,3.7287,3.7186,3.7008,3.6732,3.6405,3.6405,3.6405,3.6405,3.6405,3.6405,3.6405,3.6458,3.6634,3.6883,0.0,3.7036,0.0,0.0,0.0,0.0,3.9622,3.9346,3.7965,3.7739,3.7111,3.6405,0.0,3.581,0.0,0.0,0.0,0.0,0.0,0.0,0.0,0.0,0.0,0.0,0.0,0.0,0.0,3.1202,0.0,3.1362,0.0,0.0,0.0,0.0,0.0,0.0,0.0,0.0,0.0,0.0,0.0,0.0,0.0,0.0,0.0,0.0,0.0,0.0,0.0,0.0,3.922,3.9998,3.9823,3.9697,3.9697,3.9697,3.9572,3.9346,3.907,3.8467,3.7663,3.7337,3.6933,3.6405,3.6405,3.6405,3.6405,3.6405,3.6405,3.6405,3.6405,3.6405,3.6405,3.6405,3.6405,3.6405,3.6405,3.6405,3.6405,3.7839,3.7965,3.8065,3.7513,3.7864,3.8492,3.922,3.9998,4.0576,4.0727,4.0877,4.153,4.3037,4.2484,0.0,0.0,4.2384,4.1279,0.0,0.0,3.8969,3.8718,3.8241,3.7965,3.7864,3.7412,3.6985,3.6631,3.648,3.6405,3.6405,3.6405,3.6405,3.643,3.6935,3.7186,3.7186,0.0,3.7588,3.7914,3.8316,3.8642,3.9069,4.0375,3.9798,3.8216,3.8065,3.7287,3.6405,3.6405,3.6216,0.0,3.5379,0.0,0.0,0.0,0.0,0.0,3.124,0.0,0.0,0.0,0.0,0.0,0.0,0.0,0.0,0.0,0.0,0.0,0.0,0.0,0.0,0.0,0.0,0.0,0.0,0.0,0.0,0.0,0.0,0.0,0.0,0.0,0.0,0.0,0.0,0.0,3.9647,3.9546,3.9546,3.9697,3.9697,3.9697,3.9697,3.9145,3.8567,3.799,3.7437,3.6933,3.6405,3.6405,3.6405,3.6405,3.6405,3.6405,3.6405,3.6405,3.6405,3.6405,3.6405,3.6405,3.6405,3.6405,3.6405,3.6405,3.8919,3.8869,3.8668,3.809,3.8467,3.922,4.03,4.0501,4.0701,4.12,0.0,0.0,0.0,0.0,0.0,0.0,0.0,4.2911,4.2861,0.0,3.9898,4.0425,3.8868,3.8517,0.0,3.8015,3.7186,3.7161,3.6681,3.6405,3.6405,3.6405,3.6405,3.643,3.6935,3.7186,3.7211,3.7739,3.8617,3.9622,3.9647,4.0275,4.1075,0.0,3.9371,3.8768,3.8216,0.0,0.0,3.6405,3.5715,0.0,0.0,0.0,0.0,0.0,0.0,0.0,0.0,0.0,0.0,3.0902,0.0,0.0,0.0,0.0,3.051,0.0,0.0,0.0,0.0,0.0,0.0,0.0,0.0,0.0,0.0,0.0,0.0,0.0,0.0,0.0,0.0,0.0,0.0,0.0,0.0,0.0,3.9546,3.9195,3.9145,3.9672,3.9697,3.9697,3.9697,3.9145,3.8567,3.799,3.7437,3.6933,3.6405,3.6405,3.6405,3.6405,3.6405,3.6405,3.6405,3.6405,3.6405,3.6405,3.6405,3.6405,3.6405,3.6405,3.6405,3.6405,3.9446,3.912,3.8693,3.8115,0.0,3.9245,4.035,4.0774,4.1476,0.0,4.3137,0.0,0.0,4.5874,4.5849,0.0,0.0,4.5095,4.3614,4.2836,0.0,4.2158,4.0902,4.0224,0.0,3.932,3.8291,3.7186,3.6985,3.6757,3.6405,3.6405,3.6405,3.643,3.6935,3.7387,0.0,0.0,0.0,0.0,0.0,4.035,4.125,0.0,0.0,3.9346,3.8768,3.7864,0.0,3.6958,3.6468,3.5906,3.631,3.6168,3.5715,3.5017,3.4775,0.0,0.0,0.0,3.2454,3.1519,0.0,0.0,0.0,0.0,0.0,0.0,0.0,0.0,0.0,0.0,0.0,0.0,0.0,0.0,0.0,0.0,0.0,0.0,0.0,0.0,0.0,0.0,0.0,0.0,3.6307,0.0,0.0,3.8919,3.932,3.917,3.9496,3.9521,3.9145,3.902,3.8391,3.7462,3.7287,3.6933,3.6405,3.6405,3.6405,3.6405,3.6405,3.6405,3.6405,3.6405,3.6405,3.6405,3.6405,3.6499,3.6593,3.6452,3.6405,3.6405,3.9998,3.9697,0.0,0.0,0.0,3.9772,4.0676,4.1455,0.0,0.0,4.4267,0.0,4.7657,0.0,4.7179,0.0,4.7419,4.6451,4.4794,4.4317,0.0,4.3288,4.2409,0.0,0.0,4.0475,3.9346,3.809,3.7663,3.7186,3.6707,3.6505,3.6405,3.643,3.6935,3.7487,3.8015,3.8216,3.8642,0.0,0.0,4.04,0.0,0.0,4.0475,3.9622,0.0,3.8266,3.7487,3.7487,3.7111,3.6707,3.6707,3.6556,3.6263,3.5571,3.5379,3.5114,3.4042,3.3796,0.0,3.1971,3.1265,0.0,2.917,0.0,0.0,0.0,0.0,0.0,0.0,0.0,0.0,0.0,0.0,0.0,0.0,0.0,0.0,0.0,0.0,0.0,0.0,0.0,3.4198,3.4856,0.0,0.0,0.0,0.0,3.932,3.917,3.9496,3.9421,3.8919,3.8668,3.809,3.7186,3.6985,3.6757,3.6405,3.6405,3.6405,3.6405,3.6405,3.6405,3.6405,3.6405,3.6405,3.6405,3.6499,3.6593,3.6662,3.6546,3.6593,3.6687,4.0551,4.0576,0.0,0.0,4.0199,0.0,0.0,0.0,4.3388,0.0,4.5221,4.6225,4.7807,4.7983,4.841,4.9464,4.8134,4.7004,4.6401,4.5347,0.0,0.0,4.3388,4.3062,4.3062,0.0,0.0,3.9697,3.8567,3.7739,3.7186,3.6656,3.6405,3.643,3.691,0.0,3.804,3.8592,3.917,3.9747,4.0275,4.0475,4.0475,4.0475,4.0149,3.9622,3.9094,3.8542,3.804,3.804,3.7663,3.7186,3.7186,3.6857,3.6405,3.6405,3.6405,3.6168,3.5162,3.4872,3.4385,3.2275,0.0,0.0,0.0,0.0,2.9434,0.0,0.0,0.0,0.0,0.0,0.0,0.0,0.0,0.0,0.0,0.0,0.0,0.0,0.0,0.0,0.0,3.3596,3.3897,3.3947,3.5429,0.0,0.0,0.0,3.9069,3.9647,3.9647,3.9396,3.8894,3.8266,3.7688,3.7136,3.6656,3.6405,3.6405,3.6405,3.6405,3.6405,3.6405,3.6405,3.6405,3.6405,3.6405,3.6405,3.6615,3.6709,3.6709,3.6709,3.6875,3.7108,4.1075,4.1455,4.1735,0.0,4.0953,4.0852,0.0,0.0,0.0,0.0,4.6702,4.7757,4.9012,4.9163,4.9113,4.8987,4.8962,0.0,0.0,0.0,0.0,4.6276,4.4945,4.4192,4.4192,4.2585,0.0,3.9697,0.0,3.7739,3.7186,0.0,0.0,0.0,0.0,0.0,3.8015,3.8165,3.8793,3.9697,3.9848,3.9898,0.0,0.0,3.9823,3.9672,3.9546,3.912,3.8642,3.8642,3.799,3.7186,3.7186,3.6857,3.6405,3.6405,3.6405,3.6358,3.6048,3.6026,3.5667,3.4337,3.3876,3.3443,0.0,0.0,0.0,0.0,0.0,0.0,0.0,0.0,0.0,0.0,0.0,0.0,0.0,0.0,0.0,0.0,0.0,0.0,0.0,0.0,3.4073,3.4474,0.0,0.0,0.0,0.0,0.0,3.9069,3.9094,3.8793,3.8241,3.7663,3.7111,3.6606,3.648,3.6405,3.6405,3.6405,3.6405,3.6405,3.6405,3.6405,3.6405,3.6405,3.6405,3.6405,3.6615,3.6968,3.7248,3.7062,3.7062,3.7108,4.2007,0.0,0.0,4.3187,0.0,0.0,4.3137,4.3288,0.0,4.605,4.7054,0.0,4.8761,4.9289,4.9464,4.9163,4.9188,0.0,4.7556,0.0,0.0,4.6803,4.61,4.5497,4.502,4.384,0.0,4.0777,0.0,0.0,3.7538,0.0,0.0,0.0,0.0,3.6883,3.7688,3.8165,3.8743,3.9346,3.9597,0.0,0.0,3.9697,3.9697,3.9697,3.9697,3.9496,3.922,3.922,3.8642,3.7864,3.7613,3.7161,3.6732,3.648,3.6405,3.6405,3.6405,3.6405,3.6168,3.5066,3.4775,3.446,3.3128,3.2547,3.2208,0.0,0.0,0.0,0.0,0.0,0.0,0.0,0.0,0.0,0.0,0.0,0.0,0.0,0.0,0.0,0.0,0.0,0.0,0.0,0.0,0.0,0.0,0.0,0.0,3.8165,3.8366,3.8216,3.7663,3.7337,3.6958,3.6405,3.6405,3.6405,3.6405,3.6405,3.6405,3.6405,3.6405,3.6405,3.6405,3.6405,3.6452,3.6593,3.6922,3.732,3.767,3.7764,3.7666,3.7485,4.3112,0.0,0.0,0.0,0.0,0.0,0.0,4.4593,0.0,4.6326,0.0,4.7631,4.8083,4.9012,4.959,4.959,0.0,4.8636,4.8058,4.8033,4.7581,4.6552,4.6903,4.6677,4.5723,4.492,4.379,0.0,0.0,0.0,0.0,0.0,0.0,0.0,0.0,0.0,0.0,3.8466,3.8969,3.907,3.9496,3.9697,3.9697,3.9772,3.9747,3.9697,3.9772,3.9747,3.9697,3.9697,3.932,3.8844,3.8266,3.7688,3.7086,3.6656,3.6455,3.6405,3.6405,3.6405,3.6168,3.5235,3.5017,3.4775,3.3845,3.3499,3.34,3.34,3.33,3.3201,0.0,0.0,0.0,0.0,0.0,0.0,0.0,0.0,0.0,0.0,0.0,0.0,0.0,0.0,0.0,0.0,0.0,0.0,0.0,0.0,0.0,3.7186,3.7638,0.0,3.7186,0.0,3.6835,3.6405,3.6405,3.6405,3.6405,3.6405,3.6405,3.6405,3.6405,3.6405,3.6405,3.6452,3.6593,3.6875,3.732,3.7696,3.8057,3.8527,3.8475,3.8187,4.4317,0.0,0.0,0.0,0.0,4.6301,4.7205,4.6878,4.6803,4.7531,4.8535,4.9188,4.9289,4.9464,4.959,4.959,4.9515,0.0,0.0,0.0,0.0,4.7657,4.7305,4.6993,4.6853,4.4945,4.3589,0.0,0.0,0.0,0.0,0.0,0.0,0.0,0.0,0.0,3.7914,3.8592,0.0,3.9572,3.9647,3.9697,3.9747,4.0199,4.0099,3.9747,4.0199,4.0074,3.9697,3.9697,3.932,3.8894,3.8793,3.8015,3.7161,3.7061,3.6757,3.6405,3.6405,3.6405,3.6358,3.6168,3.6121,3.6073,3.5858,3.5162,3.4532,3.4532,3.3796,3.3201,3.3201,0.0,0.0,0.0,0.0,0.0,0.0,0.0,0.0,0.0,0.0,0.0,0.0,0.0,0.0,0.0,0.0,0.0,0.0,0.0,0.0,0.0,3.7287,0.0,0.0,0.0,3.6505,3.6405,3.6405,3.6405,3.6405,3.6405,3.6405,3.6405,3.6405,3.6405,3.6405,3.6593,3.6922,3.7366,3.7459,3.793,3.8579,3.8684,3.8972,3.9337,0.0,0.0,0.0,0.0,0.0,0.0,0.0,4.8385,0.0,4.7958,4.8385,4.8711,4.8711,4.9238,4.959,4.959,4.959,4.949,4.9213,4.8937,4.8661,4.836,4.7832,0.0,4.7093,4.5522,4.4116,4.2986,0.0,0.0,0.0,0.0,0.0,0.0,0.0,3.7086,0.0,0.0,0.0,3.9295,3.9572,3.9873,4.0149,4.0425,4.0526,4.0551,4.0526,4.035,4.0074,3.9798,3.9521,3.9245,3.902,3.8492,3.7989,3.7362,3.6985,3.6782,3.648,3.6405,3.6405,3.6405,3.6405,3.6405,3.6405,3.6001,3.5619,3.5619,3.5235,3.4678,3.4141,3.383,0.0,0.0,0.0,0.0,0.0,0.0,0.0,0.0,0.0,0.0,0.0,0.0,0.0,0.0,0.0,0.0,0.0,0.0,0.0,0.0,0.0,0.0,0.0,0.0,0.0,3.6405,3.6405,3.6405,3.6405,3.6405,3.6405,3.6405,3.6405,3.6452,3.6593,3.6968,3.7248,3.7531,3.7956,3.8382,3.8789,3.9364,3.9782,4.0017,0.0,4.6175,0.0,0.0,4.7732,0.0,4.8711,4.9238,4.9264,4.8385,4.8259,4.8259,4.8259,4.9063,4.959,4.959,4.959,4.959,4.959,4.9188,4.8887,4.8786,4.8335,4.7832,4.7305,4.6225,4.4895,0.0,0.0,0.0,0.0,0.0,0.0,0.0,0.0,0.0,0.0,0.0,3.917,3.927,3.9823,4.03,4.0701,4.0827,4.1053,4.125,4.0978,4.0727,4.045,4.0023,3.9798,3.9622,3.917,3.902,3.8743,3.7789,3.7362,3.7086,3.6707,3.6505,3.6405,3.6405,3.6405,3.6405,3.6405,3.6405,3.6405,3.6405,3.6405,3.6073,3.4969,3.4969,0.0,0.0,0.0,0.0,0.0,0.0,0.0,0.0,0.0,0.0,0.0,0.0,0.0,0.0,0.0,0.0,3.3244,3.3671,0.0,0.0,0.0,3.5708,3.6182,0.0,3.6405,0.0,3.6405,3.6405,3.6405,3.6405,3.6405,3.6452,3.6452,3.664,3.6922,3.732,3.7551,3.765,3.8277,3.8684,3.8998,3.9913,4.0409,4.0592,0.0,0.0,0.0,0.0,0.0,0.0,4.8761,4.9238,4.9565,4.9439,4.9439,4.9439,4.9439,4.954,4.959,4.959,4.959,4.959,4.959,4.954,4.9289,4.8786,4.8711,4.8435,4.7857,4.6778,4.5648,0.0,0.0,0.0,0.0,0.0,0.0,0.0,0.0,0.0,0.0,3.9371,3.9898,4.04,4.0899,4.1175,4.125,4.1806,4.1731,4.1351,4.1831,4.1354,4.0501,4.045,4.0099,3.9697,3.9647,3.927,3.8894,3.8793,3.799,3.7186,3.7111,3.6782,3.6405,3.6405,3.6405,3.6405,3.6405,3.6405,3.6405,3.6405,3.6405,3.6073,3.4969,3.5619,3.5906,0.0,0.0,0.0,0.0,0.0,0.0,0.0,0.0,0.0,0.0,0.0,0.0,0.0,0.0,0.0,3.3796,3.3872,3.4148,3.4655,0.0,3.5533,3.5583,3.6107,3.6405,3.6405,3.6405,3.6405,3.6405,3.6405,3.6499,3.6662,3.6662,3.6968,3.7413,3.7459,3.7644,3.7854,3.7952,3.8606,3.9547,3.9651,4.0357,4.1246,0.0,0.0,0.0,0.0,0.0,0.0,0.0,4.9464,4.959,4.959,4.959,4.959,4.959,4.959,4.959,4.959,4.959,4.959,4.959,4.959,4.949,4.9264,4.8937,4.8661,4.8435,4.7029,4.5748,0.0,0.0,4.1534,4.0174,0.0,0.0,0.0,0.0,3.932,3.9898,4.045,4.0749,4.0974,4.12,4.153,4.1856,4.2137,4.2233,4.2308,4.2263,4.1936,4.1455,4.1128,4.0425,3.9697,3.9697,3.9546,3.9295,3.8969,3.8592,3.804,3.7362,3.701,3.6832,3.648,3.6405,3.6405,3.6405,3.6405,3.6405,3.6405,3.6405,3.6263,3.581,3.6121,3.6263,0.0,0.0,0.0,0.0,0.0,0.0,0.0,0.0,3.5207,0.0,0.0,0.0,0.0,0.0,0.0,0.0,0.0,0.0,3.4223,0.0,3.5508,3.5508,3.6081,3.6405,3.6405,3.6546,3.6593,3.6593,3.6734,3.6875,3.6968,3.7108,3.732,3.7505,3.7644,3.799,3.8423,3.8789,3.9416,4.0148,4.0488,4.0932,4.1324,4.8134,0.0,4.8335,0.0,4.9012,4.9138,4.954,4.959,4.959,4.959,4.959,4.959,4.959,4.959,4.959,4.959,4.959,4.959,4.959,4.959,4.959,4.959,4.9213,0.0,4.8761,4.7631,4.6401,4.5121,4.379,0.0,4.1204,0.0,0.0,0.0,3.9998,4.04,4.0802,4.1354,4.158,4.1605,4.1756,4.2057,4.2464,4.2464,4.269,4.2936,4.259,4.2338,4.2137,4.1706,4.0953,4.0149,3.9998,3.9823,3.9622,3.922,3.9045,3.8743,3.7889,3.7563,3.7287,3.6782,3.6656,3.6606,3.6455,3.6405,3.6405,3.6405,3.6405,3.6405,3.6405,3.6405,3.6405,3.6405,0.0,0.0,0.0,0.0,0.0,0.0,3.5755,3.5107,3.4731,0.0,0.0,0.0,0.0,0.0,0.0,0.0,0.0,0.0,0.0,0.0,0.0,3.6175,3.6499,3.6499,3.6734,3.6803,3.6803,3.7108,3.7201,3.7201,3.7505,3.7598,3.767,3.7964,3.837,3.8762,3.9364,3.9939,4.0461,4.0906,4.1167,4.1324,4.8661,4.8761,4.8937,4.949,4.959,4.959,4.959,4.959,4.959,4.959,4.959,4.959,4.959,4.959,4.959,4.959,4.959,4.959,4.959,4.959,4.959,0.0,0.0,4.9339,4.8786,4.8761,4.7933,4.6301,0.0,0.0,4.2911,0.0,4.125,4.125,4.125,4.1275,4.13,4.1907,4.2213,4.2263,4.2791,4.2961,4.2961,4.2961,4.2961,4.2986,4.2961,4.2665,4.2213,4.2213,4.1781,4.1175,4.0676,4.0124,3.9697,3.9697,3.9295,3.8919,3.8894,3.8442,3.7864,3.7312,3.7186,3.7036,3.6531,3.6405,3.6405,3.6405,3.6405,3.6405,3.6405,3.6405,3.6405,3.6405,0.0,0.0,0.0,0.0,0.0,0.0,3.5403,3.4726,3.468,0.0,0.0,0.0,0.0,0.0,0.0,0.0,0.0,3.4655,3.5207,0.0,3.5508,3.6315,3.6709,3.6709,3.6968,3.7108,3.7108,3.7366,3.7505,3.7505,3.7762,3.79,3.7952,3.8475,3.871,3.8762,3.9364,3.9939,4.0409,4.0435,4.0801,4.1324,4.9289,4.9339,4.9389,4.9565,4.959,4.959,4.959,4.959,4.959,4.959,4.959,4.959,4.959,4.959,4.959,0.0,4.959,4.959,0.0,4.959,4.959,4.959,4.959,4.9515,4.9339,4.8962,4.8309,4.7405,0.0,0.0,0.0,4.2635,4.266,4.3011,4.2635,4.266,4.3011,4.2811,4.2766,4.2791,4.2911,4.2986,4.2986,4.2986,4.2986,4.2986,4.2986,4.2861,4.2766,4.2766,4.2359,4.1856,4.1681,4.1003,4.0174,3.9798,3.9572,3.9346,3.902,3.8793,3.8467,3.7889,3.7739,3.7588,3.7036,3.6681,3.6405,3.6405,3.6405,3.6405,3.6405,3.6405,3.6531,3.6908,3.7061,0.0,0.0,0.0,0.0,0.0,3.5956,3.5232,0.0,3.4731,0.0,0.0,0.0,0.0,0.0,0.0,0.0,0.0,3.5743,0.0,3.5759,3.6595,3.6968,3.6968,3.7248,3.7459,3.767,3.7762,3.7762,3.7834,3.8246,3.8449,3.8501,3.9076,3.9547,3.9886,4.0095,4.0514,4.1036,4.1036,4.1167,4.1324,4.959,4.959,4.959,4.959,4.959,4.959,4.959,4.959,4.959,4.959,4.959,4.959,4.959,4.959,0.0,4.959,4.959,4.959,4.959,4.959,4.959,4.959,4.959,4.959,4.959,0.0,0.0,4.8234,4.6602,4.5146,4.3915,4.3689,4.379,4.4091,4.374,4.379,4.4066,4.3514,4.3288,4.3263,4.3062,4.2986,4.2986,4.2986,4.2986,4.2986,4.2986,4.2986,4.2986,4.2986,4.2816,4.2489,4.2263,4.1735,4.1028,4.0475,4.0174,3.9923,3.9572,3.9346,3.9044,3.8467,3.8341,3.8191,3.7613,3.7061,3.6732,3.6732,3.6556,3.6405,3.6405,3.6581,3.6832,3.7136,3.7538,3.7939,3.8291,0.0,0.0,0.0,0.0,0.0,0.0,3.5182,0.0,0.0,0.0,0.0,0.0,0.0,0.0,3.5163,3.616,0.0,3.634,3.6929,3.7248,3.7248,3.7505,3.7762,3.7926,3.8109,3.8214,3.824,3.8789,3.905,3.9102,3.9677,4.0122,4.0435,4.0671,4.0984,4.1324,4.1324,4.1324,4.1324,4.959,4.959,0.0,0.0,4.959,0.0,4.959,4.959,4.959,4.959,4.959,4.959,4.959,4.959,4.959,4.959,0.0,0.0,0.0,4.959,4.959,4.959,4.959,4.959,4.959,4.959,4.9314,4.8761,4.7205,4.615,4.5598,4.502,4.4744,4.4744,4.4694,4.4694,4.4644,4.4091,4.3865,4.3815,4.3288,4.3087,4.3087,4.3062,4.3037,4.3037,4.2986,4.2986,4.2986,4.2986,4.2986,4.2886,4.2439,4.2263,4.2162,4.1505,4.0924,4.0576,4.0526,4.0149,3.9622,3.9069,3.8944,3.8718,3.8191,3.7638,3.7236,3.7186,3.6857,3.6505,3.648,3.686,3.7262,3.7287,3.8191,3.8919,3.8919,0.0,0.0,0.0,0.0,0.0,0.0,3.5558,3.5805,0.0,0.0,0.0,0.0,0.0,3.5163,3.5968,3.6502,3.6875,3.7108,3.7413,3.7505,3.7505,3.7834,3.7952,3.7978,3.8527,3.8762,3.8815,3.9416,3.9677,3.9703,4.0252,4.0488,4.054,4.1089,4.1324,4.1324,4.1324,4.1324,4.1324,0.0,0.0,4.959,4.959,4.959,4.959,4.959,4.959,4.959,4.959,4.959,4.959,4.959,4.959,4.959,4.959,4.959,4.959,4.959,4.959,4.959,4.959,4.959,4.959,4.959,4.959,4.9314,4.8761,4.7933,4.7255,4.6728,4.6175,4.5924,4.5899,4.5472,4.5271,4.5246,4.4669,4.4418,4.4418,4.4292,4.4242,4.4192,4.3765,4.3614,4.3564,4.3137,4.2986,4.2986,4.2986,4.2986,4.2961,4.2866,4.2841,4.2585,4.163,4.12,4.1,4.0626,4.0425,4.0199,3.9647,3.917,3.8894,3.8693,3.8216,3.7688,3.7262,3.7412,3.7487,3.7061,3.7437,3.7965,3.8391,3.8743,3.8919,3.8919,3.8366,0.0,0.0,3.6584,3.6182,3.6182,3.6182,3.6056,0.0,0.0,0.0,0.0,3.5801,3.5994,3.6785,3.715,3.7366,3.7413,3.7644,3.7808,3.7808,3.8272,3.8527,3.8527,3.9128,3.939,3.9442,3.9991,4.0226,4.0278,4.0853,4.1115,4.1115,4.1272,4.1324,4.1324,4.1324,4.1324,4.1324,4.959,4.959,4.959,4.959,4.959,4.959,4.959,4.959,4.959,4.959,4.959,4.959,4.959,4.959,4.959,4.959,4.959,4.959,4.959,4.959,4.959,4.959,4.959,4.959,4.959,4.959,4.9314,4.8761,4.846,4.8033,4.7481,4.6954,4.6702,4.6652,4.6125,4.5874,4.5824,4.5246,4.502,4.4995,4.4719,4.4618,4.4593,4.4292,4.4192,4.4141,4.384,4.374,4.3689,4.3438,4.3363,4.3313,4.3062,4.2986,4.2861,4.2258,4.1907,4.1656,4.1354,4.1078,4.0752,4.0199,3.9647,3.9245,3.9245,3.8818,3.8316,3.8015,3.799,3.7914,3.7613,3.8015,3.8517,3.8869,3.8969,3.902,3.8919,3.8338,0.0,3.726,3.6779,3.6546,3.6546,3.6546,3.6467,3.6257,0.0,0.0,3.6601,3.6647,3.6847,3.7248,3.7413,3.7551,3.769,3.7854,3.79,3.7926,3.8449,3.871,3.8736,3.9599,3.9991,4.0017,4.0592,4.0827,4.0853,4.1167,4.1324,4.1324,4.1324,4.1324,4.1324,4.1324,4.1324,4.1324,4.959,4.959,4.959,4.959,4.959,4.959,4.959,4.959,4.959,4.959,4.959,4.959,4.959,4.959,4.959,4.959,4.959,4.959,4.959,4.959,4.959,4.959,4.959,4.959,4.959,4.959,4.9364,4.8887,4.8812,4.851,4.8033,4.7405,4.7068,4.7043,4.6552,4.6301,4.6276,4.5799,4.5623,4.5573,4.507,4.4869,4.4869,4.4794,4.4744,4.4744,4.4644,4.4618,4.4543,4.4091,4.3915,4.384,4.3363,4.3212,4.3212,4.3112,4.2816,4.2414,4.2263,4.1756,4.1175,4.0752,4.0224,3.9823,3.9874,3.9447,3.902,3.8995,3.8592,3.8241,3.814,3.8617,3.9045,3.9045,3.9171,3.9221,3.8869,0.0,3.7814,3.7278,3.6919,3.6756,3.6756,3.6756,3.6849,3.7062,3.7108,3.7201,0.0,3.7505,3.7505,3.7551,3.7551,3.7644,3.79,3.79,3.79,3.7926,3.8553,3.8841,3.8893,4.0043,4.054,4.0566,4.1089,4.1324,4.1324,4.1324,4.1324,4.1324,4.1324,4.1398,4.1547,4.1547,4.1647,4.1746,4.959,4.959,4.959,4.959,4.959,4.959,4.959,4.959,4.959,4.959,4.959,4.959,4.959,4.959,4.959,4.959,4.959,4.959,4.959,4.959,4.959,4.959,4.959,4.959,4.959,4.959,4.9565,4.9464,4.9012,4.8736,4.8611,4.7606,4.7068,4.7043,4.6552,4.6301,4.6301,4.6225,4.6175,4.6175,4.6075,4.605,4.5999,4.5522,4.5347,4.5296,4.4794,4.4618,4.4618,4.4518,4.4493,4.4493,4.4392,4.4367,4.4267,4.3815,4.3614,4.3338,4.2464,4.1756,4.1275,4.1175,4.0802,4.0453,4.0689,4.0104,3.9497,3.9272,3.9322,3.9295,3.8818,3.9195,3.9572,3.9572,3.9803,3.9626,3.8638,0.0,3.8313,3.7271,3.7066,3.7062,3.7062,3.7062,3.7062,3.7108,3.7108,3.7201,3.7505,3.7505,3.7598,3.7854,3.7854,3.7854,3.79,3.79,3.79,3.7926,3.8972,3.9468,3.952,4.0644,4.1167,4.1193,4.1272,4.1324,4.1324,4.1324,4.1324,4.1324,4.1324,4.1819,4.255,4.255,4.3081,4.3843,4.959,4.959,4.959,4.959,4.959,4.959,4.959,4.959,4.959,4.959,4.959,4.959,4.959,4.959,4.959,4.959,4.959,4.959,4.959,4.959,4.959,4.959,4.959,4.959,4.959,4.959,4.959,4.959,4.9339,4.9213,4.9188,4.8385,4.7857,4.7531,4.7004,4.6602,4.6301,4.6301,4.6301,4.6301,4.6301,4.6301,4.6276,4.6024,4.5924,4.5899,4.5623,4.5547,4.5497,4.5196,4.5095,4.5045,4.4719,4.4618,4.4568,4.4317,4.3815,4.3237,4.2791,4.2318,4.1944,4.1835,4.1487,4.1218,4.1377,4.0841,4.0308,4.0158,4.0134,4.0007,3.9601,3.988,4.016,4.016,4.0083,0.0,0.0,3.8946,3.8855,3.7719,3.7994,3.8093,3.783,3.7805,3.7723,3.7531,3.7505,3.7551,3.7716,3.7716,3.7762,3.79,3.79,3.79,3.79,3.8187,3.8344,3.8344,3.9494,4.0043,4.0069,4.0932,4.1324,4.1324,4.1324,4.1324,4.1324,4.1324,4.1647,4.2088,4.2088,4.2695,4.3606,4.3606,4.389,4.4312,4.959,4.959,4.959,4.959,4.959,4.959,4.959,4.959,4.959,4.959,4.959,4.959,4.959,4.959,4.959,4.959,4.959,4.959,4.959,4.959,4.959,4.959,4.959,4.959,4.959,4.959,4.959,4.959,4.959,4.959,4.959,4.9038,4.846,4.7883,4.7355,4.6828,4.6301,4.6301,4.6301,4.6301,4.6301,4.6301,4.6301,4.6301,4.6301,4.6301,4.6301,4.6301,4.625,4.5824,4.5673,4.5598,4.5146,4.502,4.4995,4.4903,4.4313,4.3538,4.3285,4.3017,4.2743,4.2633,4.2312,4.2121,4.2174,4.1688,4.1203,4.1307,4.108,4.0799,4.044,4.0594,4.0645,4.0517,0.0,0.0,0.0,3.9492,3.9429,3.8501,3.8907,3.9129,3.8735,3.8683,3.8496,3.8135,3.8083,3.8083,3.8083,3.8083,3.8161,3.8292,3.8161,3.8161,3.8292,3.871,3.8919,3.8919,3.9939,4.0409,4.0435,4.1036,4.1324,4.1324,4.1547,4.1647,4.1696,4.1868,4.2431,4.3177,4.3177,4.3796,4.4638,4.4638,4.4823,4.5007,4.959,4.959,4.959,4.959,4.959,4.959,4.959,4.959,4.959,4.959,4.959,4.959,4.959,4.959,4.959,4.959,4.959,4.959,4.959,4.959,4.959,4.959,4.959,4.959,4.959,4.959,4.959,4.959,4.959,4.959,4.959,4.9038,4.846,4.7883,4.7355,4.6828,4.6301,4.6301,4.6301,4.6301,4.6301,4.6301,4.6301,4.6301,4.6301,4.6301,4.6301,4.6301,4.6301,4.625,4.625,4.625,4.62,4.6175,4.6135,4.5902,4.5635,4.515,4.4126,4.3628,4.3386,4.3713,4.3332,4.2951,4.3194,4.2675,4.2158,4.2422,4.2291,4.1953,4.1414,4.1337,4.1158,4.0594,0.0,0.0,4.0018,4.0161,4.0099,3.9577,3.9525,3.9551,3.9499,3.9499,3.9238,3.8684,3.8658,3.8658,3.8658,3.8658,3.8919,3.9468,3.8945,3.8919,3.9468,3.952,3.9547,3.9547,4.0148,4.0409,4.0435,4.1036,4.1324,4.1348,4.2284,4.2695,4.2744,4.3701,4.4125,4.4172,4.4172,4.4823,4.5689,4.5689,4.6255,4.7062,4.959,4.959,4.959,4.959,4.959,4.959,4.959,4.959,4.959,4.959,4.959,4.959,4.959,4.959,4.959,4.959,4.959,4.959,4.959,4.959,4.959,4.959,4.959,4.959,4.959,4.959,4.959,4.959,4.959,4.959,4.959,4.9389,4.8987,4.8435,4.8234,4.7832,4.7305,4.7305,4.7305,4.7305,4.7305,4.7104,4.6828,4.6828,4.6602,4.6301,4.6566,4.6506,4.6301,4.6566,4.6626,4.6626,4.6626,4.6721,4.6832,4.6565,4.6315,4.6039,4.5607,4.5004,4.4421,4.3976,4.383,4.3813,4.3922,4.3429,4.3016,4.3122,4.289,4.2579,4.2189,4.2035,4.1826,4.1568,0.0,4.0939,4.0317,4.065,4.0749,4.0174,4.0435,4.0514,4.0148,4.0122,3.9886,3.9311,3.9259,3.9259,3.9259,3.9259,3.952,4.0095,3.9886,3.9703,3.9599,3.9939,4.0122,4.0122,4.0697,4.0984,4.0984,4.1861,4.2235,4.2284,4.3273,4.3748,4.3748,4.4125,4.4684,4.5235,4.5235,4.5824,4.6726,4.6726,4.6975,4.7309,4.959,4.959,4.959,4.959,4.959,4.959,4.959,4.959,4.959,4.959,4.959,4.959,4.959,4.959,4.959,4.959,4.959,4.959,4.959,4.959,4.959,4.959,4.995,5.0014,4.959,5.0014,5.0014,4.959,4.959,4.959,4.959,4.959,4.9289,4.8825,4.9204,4.8874,4.7908,4.8342,4.8255,4.7908,4.7908,4.7682,4.738,4.738,4.7154,4.6864,4.7192,4.7066,4.6733,4.712,4.7112,4.6959,4.6959,4.7112,4.7306,4.7179,4.7076,4.6947,4.6778,4.6334,4.5641,4.4668,4.4468,4.4422,4.4422,4.411,4.3799,4.3879,4.3674,4.3441,4.31,4.2866,4.2682,4.2448,4.1951,4.1428,4.101,4.1167,4.1167,4.0749,4.1063,4.1167,4.0749,4.0697,4.0461,3.9913,3.986,3.986,3.986,4.0043,4.0305,4.0697,4.0697,4.0514,4.0148,4.0514,4.0697,4.0697,4.1115,4.1448,4.1769,4.2479,4.2985,4.3321,4.4331,4.4776,4.4823,4.5098,4.5644,4.6255,4.6255,4.6682,4.7309,4.7309,4.7309,4.7309,4.959,4.959,4.959,4.959,4.959,4.959,4.959,4.959,4.959,4.959,4.959,4.959,4.959,4.959,4.959,4.959,4.959,4.959,4.959,4.959,4.9654,4.9654,5.0853,5.0916,4.9654,5.0853,5.0916,4.9654,4.9654,4.9654,4.9654,4.959,4.9378,4.8913,5.0178,4.9657,4.8032,4.936,4.9116,4.7933,4.7933,4.7908,4.7908,4.7908,4.7908,4.797,4.8393,4.8136,4.7653,4.8016,4.7692,4.7205,4.7205,4.7442,4.7703,4.7703,4.7938,4.8068,4.7492,4.7278,4.6991,4.5869,4.5111,4.4694,4.4668,4.4668,4.4668,4.4668,4.4668,4.4565,4.399,4.3912,4.3676,4.3127,4.2552,4.2211,4.2211,4.1664,4.1324,4.1324,4.1324,4.1324,4.1324,4.1324,4.1063,4.0461,4.0435,4.0435,4.0435,4.0984,4.1324,4.1324,4.1324,4.1324,4.1324,4.1324,4.1324,4.1324,4.1324,4.1819,4.2792,4.284,4.3368,4.4359,4.5372,4.5824,4.5869,4.6887,4.7309,4.7309,4.7309,4.7309,4.7309,4.7309,4.7309,4.7309,4.959,4.959,4.959,4.959,4.959,4.959,4.959,4.959,4.959,4.959,4.959,4.959,4.959,4.959,4.959,4.959,4.959,4.995,5.0853,5.1829,5.235,5.235,5.1829,5.1767,5.2324,5.2692,5.2692,5.235,5.235,5.235,5.235,5.133,5.1377,5.2085,5.1504,5.0992,5.0436,5.1083,5.0488,4.9088,4.9343,4.9242,4.8888,4.8888,4.8785,4.8702,4.9045,4.8881,4.8631,4.891,4.8902,4.8696,4.8573,4.8622,4.8603,4.8186,4.8114,4.8146,4.7989,4.7623,4.6991,4.5869,4.5425,4.519,4.4826,4.4668,4.4668,4.4668,4.4668,4.467,4.4513,4.4147,4.3807,4.365,4.3127,4.2631,4.2264,4.2081,4.1768,4.135,4.1324,4.1324,4.1324,4.1324,4.1246,4.1063,4.1036,4.1036,4.1036,4.1219,4.1324,4.1324,4.1324,4.1324,4.1324,4.1324,4.162,4.2333,4.2333,4.2889,4.389,4.4563,4.507,4.5417,4.6417,4.6844,4.6887,4.7149,4.7309,4.7309,4.7309,4.7309,4.7309,4.7309,4.7309,4.7309,4.9866,4.9741,4.9665,4.9891,4.9741,4.959,4.959,4.959,4.959,4.959,4.959,4.9783,5.0308,4.9886,4.9783,5.0308,5.0372,5.0916,5.2201,5.3059,5.3724,5.4204,5.3456,5.3153,5.3483,5.3964,5.3964,5.351,5.351,5.351,5.351,5.2692,5.2754,5.351,5.3153,5.2849,5.2482,5.3214,5.2727,5.1518,5.1705,5.1583,5.1268,5.0737,5.0468,5.0367,5.012,4.9832,4.959,4.9871,4.9776,4.9577,4.9445,4.9401,4.9296,4.8721,4.8538,4.8486,4.825,4.7937,4.744,4.6525,4.5895,4.5477,4.5111,4.485,4.4668,4.4668,4.4668,4.4668,4.4668,4.4434,4.4225,4.4225,4.3729,4.3232,4.2944,4.2499,4.2081,4.169,4.1455,4.1324,4.1324,4.1324,4.1324,4.1324,4.1324,4.1324,4.1324,4.1324,4.1324,4.1324,4.1324,4.1498,4.1868,4.1868,4.2186,4.2792,4.3225,4.3937,4.4915,4.5508,4.6032,4.6432,4.7019,4.7309,4.7309,4.7309,4.7309,4.7309,4.7309,4.7309,4.7309,4.7309,4.7309,4.7309,5.0243,4.9941,4.9741,5.0243,5.0046,4.9783,4.9783,4.9912,4.9912,4.9783,4.9912,5.0308,5.1393,5.0563,5.0436,5.158,5.1803,5.2359,5.3604,5.3784,5.4323,5.5528,5.5586,5.5032,5.3904,5.4973,5.4973,5.3844,5.3844,5.3844,5.3844,5.3784,5.3784,5.3964,5.4973,5.4973,5.4176,5.5442,5.5325,5.4386,5.4446,5.4446,5.4327,5.3153,5.2727,5.2631,5.1757,5.1132,5.0777,5.0961,5.0682,5.0209,5.0036,4.9976,4.9871,4.9322,4.9113,4.8956,4.8407,4.8224,4.8068,4.7545,4.6521,4.5767,4.5607,4.5138,4.48,4.4694,4.4668,4.4668,4.4668,4.4668,4.4668,4.4668,4.4278,4.3938,4.3939,4.3023,4.2342,4.2238,4.1716,4.1376,4.1324,4.1324,4.1324,4.1324,4.1324,4.1324,4.1324,4.1424,4.1398,4.1324,4.1424,4.1868,4.2792,4.2889,4.2985,4.3081,4.4031,4.4961,4.5913,4.5913,4.6432,4.7309,4.7309,4.7309,4.7309,4.7309,4.7309,4.7309,4.7309,4.7309,4.7309,4.7309,4.7309,4.7309,4.9741,4.9665,4.964,4.9741,5.0512,5.1079,5.1079,5.1953,5.2262,5.1205,5.2015,5.2324,5.1554,5.2201,5.2754,5.3059,5.3964,5.4679,5.4973,5.5934,5.6594,5.6879,5.6879,5.6879,5.6879,5.6879,5.6765,5.648,5.648,5.6594,5.6822,5.5876,5.605,5.7133,5.6222,5.579,5.582,5.6136,5.5586,5.4386,5.471,5.4828,5.4769,5.4446,5.4533,5.4738,5.456,5.4359,5.413,5.326,5.2816,5.2447,5.1014,5.0603,5.0472,4.9897,4.9427,4.9061,4.893,4.8538,4.8146,4.8041,4.7466,4.6678,4.5764,4.5477,4.5297,4.4826,4.4668,4.4668,4.4668,4.4668,4.4668,4.4668,4.4617,4.4382,4.3938,4.3703,4.3232,4.2316,4.2107,4.1794,4.135,4.1324,4.1324,4.1324,4.1324,4.1324,4.1324,4.2065,4.2088,4.1298,4.2039,4.255,4.2792,4.3606,4.4377,4.5161,4.5372,4.6032,4.6975,4.6975,4.7062,4.7309,4.7309,4.7309,4.7309,4.7309,4.7309,4.7309,4.7309,4.7309,4.7309,4.7309,4.7309,4.7309,4.9941,4.9766,4.9665,4.9941,5.0843,5.1492,5.1492,5.2631,5.3241,5.257,5.3059,5.3483,5.3396,5.3423,5.3724,5.4323,5.5032,5.5761,5.648,5.7191,5.7584,5.7696,5.7751,5.7807,5.8003,5.7807,5.7751,5.7751,5.7751,5.7807,5.8003,5.733,5.7443,5.814,5.733,5.7162,5.7443,5.7472,5.7162,5.6679,5.6821,5.6934,5.6878,5.6223,5.6108,5.6194,5.5616,5.5412,5.5295,5.4619,5.4382,5.4208,5.3277,5.3016,5.2881,5.2257,5.1465,5.067,5.0111,4.9297,4.8538,4.825,4.7963,4.7519,4.663,4.6238,4.5872,4.5271,4.5111,4.5007,4.472,4.4668,4.4668,4.4668,4.4668,4.4617,4.433,4.4042,4.3703,4.3101,4.2552,4.1951,4.1376,4.1324,4.1324,4.1324,4.172,4.1819,4.1324,4.2235,4.255,4.2065,4.2501,4.3245,4.4238,4.4748,4.5508,4.655,4.655,4.677,4.7309,4.7309,4.7309,4.7309,4.7309,4.7309,4.7309,4.7309,4.7309,4.7309,4.7309,4.7309,4.7309,4.7309,4.7309,4.7309,5.0193,4.9916,4.9805,5.0493,5.129,5.1927,5.2112,5.3335,5.4144,5.3904,5.4084,5.456,5.5412,5.4738,5.4679,5.5703,5.5876,5.6451,5.7781,5.7892,5.8003,5.8195,5.8195,5.8195,5.825,5.828,5.825,5.8195,5.8195,5.8195,5.828,5.828,5.8305,5.836,5.8335,5.8445,5.8803,5.8748,5.8828,5.9099,5.9099,5.9099,5.8991,5.7915,5.7496,5.7384,5.6366,5.6021,5.5992,5.579,5.5674,5.5674,5.547,5.5412,5.5299,5.4823,5.3846,5.2752,5.1771,5.064,4.9579,4.9107,4.8864,4.8594,4.7916,4.7193,4.6473,4.5898,4.5767,4.5584,4.4983,4.4824,4.4853,4.4748,4.4668,4.4668,4.4668,4.433,4.399,4.3939,4.2918,4.1951,4.1376,4.1324,4.1348,4.1547,4.2333,4.2501,4.1819,4.2744,4.3197,4.3081,4.3225,4.4097,4.5779,4.5779,4.6299,4.7309,4.7309,4.7309,4.7309,4.7309,4.7309,4.7309,4.7309,4.7309,4.7309,4.7309,4.7309,4.7309,4.7309,4.7309,4.7309,4.7309,4.7309,4.7309,4.969,4.964,4.9976,5.112,5.2377,5.3604,5.4679,5.6222,5.6822,5.5703,5.6537,5.6879,5.5934,5.6651,5.7303,5.7472,5.7696,5.7918,5.814,5.8169,5.814,5.8195,5.8195,5.8335,5.8609,5.8609,5.85,5.8195,5.8195,5.8335,5.8609,5.8609,5.8773,5.8991,5.8719,5.8773,5.9045,5.8803,5.8828,5.9099,5.9099,5.9099,5.9099,5.8936,5.8852,5.8798,5.8634,5.858,5.8415,5.7328,5.6962,5.6736,5.5732,5.5412,5.5383,5.5299,5.482,5.4228,5.406,5.3134,5.2184,5.2101,5.1655,5.0962,4.982,4.8315,4.7048,4.6473,4.6369,4.6186,4.5611,4.5506,4.5323,4.4746,4.4668,4.4668,4.4668,4.467,4.4434,4.3938,4.2918,4.1951,4.1376,4.1324,4.1647,4.2501,4.2744,4.3129,4.3843,4.4869,4.5007,4.4125,4.4932,4.5553,4.5779,4.5779,4.6299,4.7309,4.7309,4.7309,4.7309,4.7309,4.7309,4.7309,4.7309,4.7309,4.7309,4.7309,4.7309,4.7309,4.7309,4.7309,4.7309,4.7309,4.7309,4.7309,5.0664,5.1231,5.1731,5.1518,5.3335,5.5032,5.5586,5.6992,5.7807,5.7274,5.7696,5.7807,5.7274,5.7696,5.8059,5.8059,5.814,5.825,5.8445,5.85,5.8555,5.8719,5.8719,5.8773,5.8936,5.8936,5.8828,5.8719,5.8719,5.8773,5.8936,5.8936,5.8991,5.9099,5.8991,5.8991,5.9099,5.8936,5.8991,5.9099,5.9099,5.9099,5.9099,5.9099,5.9099,5.9099,5.9099,5.9099,5.8991,5.844,5.8276,5.8166,5.7637,5.747,5.747,5.747,5.6788,5.5964,5.562,5.4685,5.367,5.3332,5.2769,5.2153,5.1572,5.0573,4.9442,4.8206,4.7931,4.7745,4.7157,4.6262,4.5477,4.5271,4.4957,4.4668,4.4668,4.4668,4.4513,4.3938,4.3621,4.3285,4.2724,4.2814,4.3129,4.3606,4.4144,4.4424,4.4312,4.5281,4.5598,4.5144,4.5553,4.6077,4.6638,4.6638,4.6887,4.7309,4.7309,4.7309,4.7309,4.7309,4.7309,4.7309,4.7309,4.7309,4.7309,4.7309,4.7309,4.7309,4.7309,4.7309,4.7309,4.7309,4.7309,4.7309]}]]